<?xml version="1.0" encoding="UTF-8" standalone="no" ?>
<gpx xmlns="http://www.topografix.com/GPX/1/1" xmlns:xsi="http://www.w3.org/2001/XMLSchema-instance" xsi:schemaLocation="http://www.topografix.com/GPX/1/1 http://www.topografix.com/GPX/1/1/gpx.xsd" version="1.1" creator="VisuGPX - https://www.visugpx.com">
  <metadata>
    <name>Balade du 24 juin 2012</name>
    <desc><![CDATA[Beau temps]]></desc>
  </metadata>
  <trk>
    <name><![CDATA[2012-06-24 09:18]]></name>
    <trkseg>
      <trkpt lat="43.62443" lon="3.8378">
        <ele>74.64</ele>
        <time>2012-06-24T07:18:24Z</time>
      </trkpt>
      <trkpt lat="43.62443" lon="3.83782">
        <ele>75.6</ele>
        <time>2012-06-24T07:18:35Z</time>
      </trkpt>
      <trkpt lat="43.62443" lon="3.83764">
        <ele>75.6</ele>
        <time>2012-06-24T07:18:42Z</time>
      </trkpt>
      <trkpt lat="43.62442" lon="3.83756">
        <ele>75.6</ele>
        <time>2012-06-24T07:18:43Z</time>
      </trkpt>
      <trkpt lat="43.62432" lon="3.83707">
        <ele>76.56</ele>
        <time>2012-06-24T07:18:49Z</time>
      </trkpt>
      <trkpt lat="43.62432" lon="3.837">
        <ele>76.56</ele>
        <time>2012-06-24T07:18:50Z</time>
      </trkpt>
      <trkpt lat="43.62435" lon="3.83693">
        <ele>76.56</ele>
        <time>2012-06-24T07:18:51Z</time>
      </trkpt>
      <trkpt lat="43.6244" lon="3.83687">
        <ele>76.08</ele>
        <time>2012-06-24T07:18:52Z</time>
      </trkpt>
      <trkpt lat="43.62446" lon="3.83681">
        <ele>76.08</ele>
        <time>2012-06-24T07:18:53Z</time>
      </trkpt>
      <trkpt lat="43.62452" lon="3.83676">
        <ele>76.08</ele>
        <time>2012-06-24T07:18:54Z</time>
      </trkpt>
      <trkpt lat="43.62459" lon="3.83673">
        <ele>75.6</ele>
        <time>2012-06-24T07:18:55Z</time>
      </trkpt>
      <trkpt lat="43.62465" lon="3.83671">
        <ele>75.12</ele>
        <time>2012-06-24T07:18:56Z</time>
      </trkpt>
      <trkpt lat="43.62471" lon="3.8367">
        <ele>75.12</ele>
        <time>2012-06-24T07:18:57Z</time>
      </trkpt>
      <trkpt lat="43.62477" lon="3.83671">
        <ele>74.64</ele>
        <time>2012-06-24T07:18:58Z</time>
      </trkpt>
      <trkpt lat="43.62484" lon="3.83674">
        <ele>74.16</ele>
        <time>2012-06-24T07:18:59Z</time>
      </trkpt>
      <trkpt lat="43.62491" lon="3.8368">
        <ele>74.16</ele>
        <time>2012-06-24T07:19:00Z</time>
      </trkpt>
      <trkpt lat="43.62499" lon="3.83685">
        <ele>74.16</ele>
        <time>2012-06-24T07:19:01Z</time>
      </trkpt>
      <trkpt lat="43.62508" lon="3.8369">
        <ele>74.16</ele>
        <time>2012-06-24T07:19:02Z</time>
      </trkpt>
      <trkpt lat="43.62517" lon="3.83692">
        <ele>73.68</ele>
        <time>2012-06-24T07:19:03Z</time>
      </trkpt>
      <trkpt lat="43.62528" lon="3.83693">
        <ele>73.68</ele>
        <time>2012-06-24T07:19:04Z</time>
      </trkpt>
      <trkpt lat="43.62539" lon="3.83695">
        <ele>73.68</ele>
        <time>2012-06-24T07:19:05Z</time>
      </trkpt>
      <trkpt lat="43.6255" lon="3.83698">
        <ele>73.68</ele>
        <time>2012-06-24T07:19:06Z</time>
      </trkpt>
      <trkpt lat="43.62561" lon="3.83706">
        <ele>73.2</ele>
        <time>2012-06-24T07:19:07Z</time>
      </trkpt>
      <trkpt lat="43.62572" lon="3.83718">
        <ele>72.72</ele>
        <time>2012-06-24T07:19:08Z</time>
      </trkpt>
      <trkpt lat="43.62582" lon="3.83731">
        <ele>72.24</ele>
        <time>2012-06-24T07:19:09Z</time>
      </trkpt>
      <trkpt lat="43.6268" lon="3.83892">
        <ele>66.47</ele>
        <time>2012-06-24T07:19:19Z</time>
      </trkpt>
      <trkpt lat="43.62832" lon="3.84089">
        <ele>60.22</ele>
        <time>2012-06-24T07:19:32Z</time>
      </trkpt>
      <trkpt lat="43.62963" lon="3.84178">
        <ele>57.34</ele>
        <time>2012-06-24T07:19:42Z</time>
      </trkpt>
      <trkpt lat="43.63028" lon="3.84197">
        <ele>55.89</ele>
        <time>2012-06-24T07:19:49Z</time>
      </trkpt>
      <trkpt lat="43.63056" lon="3.84208">
        <ele>56.37</ele>
        <time>2012-06-24T07:19:56Z</time>
      </trkpt>
      <trkpt lat="43.63062" lon="3.84211">
        <ele>56.37</ele>
        <time>2012-06-24T07:19:57Z</time>
      </trkpt>
      <trkpt lat="43.63069" lon="3.84218">
        <ele>56.37</ele>
        <time>2012-06-24T07:19:58Z</time>
      </trkpt>
      <trkpt lat="43.63076" lon="3.84227">
        <ele>55.89</ele>
        <time>2012-06-24T07:19:59Z</time>
      </trkpt>
      <trkpt lat="43.63081" lon="3.84239">
        <ele>55.41</ele>
        <time>2012-06-24T07:20:00Z</time>
      </trkpt>
      <trkpt lat="43.63087" lon="3.84252">
        <ele>55.41</ele>
        <time>2012-06-24T07:20:01Z</time>
      </trkpt>
      <trkpt lat="43.63093" lon="3.84264">
        <ele>54.93</ele>
        <time>2012-06-24T07:20:02Z</time>
      </trkpt>
      <trkpt lat="43.63102" lon="3.84274">
        <ele>54.45</ele>
        <time>2012-06-24T07:20:03Z</time>
      </trkpt>
      <trkpt lat="43.63112" lon="3.84281">
        <ele>54.45</ele>
        <time>2012-06-24T07:20:04Z</time>
      </trkpt>
      <trkpt lat="43.63123" lon="3.84283">
        <ele>54.45</ele>
        <time>2012-06-24T07:20:05Z</time>
      </trkpt>
      <trkpt lat="43.63135" lon="3.84281">
        <ele>54.45</ele>
        <time>2012-06-24T07:20:06Z</time>
      </trkpt>
      <trkpt lat="43.63148" lon="3.84277">
        <ele>54.45</ele>
        <time>2012-06-24T07:20:07Z</time>
      </trkpt>
      <trkpt lat="43.6316" lon="3.84272">
        <ele>54.45</ele>
        <time>2012-06-24T07:20:08Z</time>
      </trkpt>
      <trkpt lat="43.63173" lon="3.84269">
        <ele>54.45</ele>
        <time>2012-06-24T07:20:09Z</time>
      </trkpt>
      <trkpt lat="43.63186" lon="3.8427">
        <ele>54.45</ele>
        <time>2012-06-24T07:20:10Z</time>
      </trkpt>
      <trkpt lat="43.63201" lon="3.84274">
        <ele>53.97</ele>
        <time>2012-06-24T07:20:11Z</time>
      </trkpt>
      <trkpt lat="43.63215" lon="3.84279">
        <ele>53.49</ele>
        <time>2012-06-24T07:20:12Z</time>
      </trkpt>
      <trkpt lat="43.63336" lon="3.8432">
        <ele>54.45</ele>
        <time>2012-06-24T07:20:21Z</time>
      </trkpt>
      <trkpt lat="43.63342" lon="3.84321">
        <ele>55.41</ele>
        <time>2012-06-24T07:20:27Z</time>
      </trkpt>
      <trkpt lat="43.63371" lon="3.8433">
        <ele>57.34</ele>
        <time>2012-06-24T07:20:54Z</time>
      </trkpt>
      <trkpt lat="43.6347" lon="3.84369">
        <ele>56.86</ele>
        <time>2012-06-24T07:21:02Z</time>
      </trkpt>
      <trkpt lat="43.6359" lon="3.84441">
        <ele>53.97</ele>
        <time>2012-06-24T07:21:12Z</time>
      </trkpt>
      <trkpt lat="43.63667" lon="3.84487">
        <ele>55.41</ele>
        <time>2012-06-24T07:21:19Z</time>
      </trkpt>
      <trkpt lat="43.63739" lon="3.84553">
        <ele>57.34</ele>
        <time>2012-06-24T07:21:25Z</time>
      </trkpt>
      <trkpt lat="43.63883" lon="3.84652">
        <ele>56.86</ele>
        <time>2012-06-24T07:21:34Z</time>
      </trkpt>
      <trkpt lat="43.64048" lon="3.84694">
        <ele>58.3</ele>
        <time>2012-06-24T07:21:43Z</time>
      </trkpt>
      <trkpt lat="43.64233" lon="3.84767">
        <ele>68.39</ele>
        <time>2012-06-24T07:21:54Z</time>
      </trkpt>
      <trkpt lat="43.64245" lon="3.84779">
        <ele>69.35</ele>
        <time>2012-06-24T07:21:55Z</time>
      </trkpt>
      <trkpt lat="43.64328" lon="3.84893">
        <ele>76.56</ele>
        <time>2012-06-24T07:22:03Z</time>
      </trkpt>
      <trkpt lat="43.64335" lon="3.8491">
        <ele>77.52</ele>
        <time>2012-06-24T07:22:04Z</time>
      </trkpt>
      <trkpt lat="43.64341" lon="3.84929">
        <ele>78.48</ele>
        <time>2012-06-24T07:22:05Z</time>
      </trkpt>
      <trkpt lat="43.644" lon="3.85081">
        <ele>77.52</ele>
        <time>2012-06-24T07:22:13Z</time>
      </trkpt>
      <trkpt lat="43.64547" lon="3.85318">
        <ele>74.16</ele>
        <time>2012-06-24T07:22:27Z</time>
      </trkpt>
      <trkpt lat="43.64579" lon="3.85364">
        <ele>72.72</ele>
        <time>2012-06-24T07:22:30Z</time>
      </trkpt>
      <trkpt lat="43.6459" lon="3.85377">
        <ele>72.24</ele>
        <time>2012-06-24T07:22:31Z</time>
      </trkpt>
      <trkpt lat="43.64602" lon="3.85388">
        <ele>71.27</ele>
        <time>2012-06-24T07:22:32Z</time>
      </trkpt>
      <trkpt lat="43.64627" lon="3.85406">
        <ele>70.31</ele>
        <time>2012-06-24T07:22:34Z</time>
      </trkpt>
      <trkpt lat="43.6464" lon="3.85413">
        <ele>69.83</ele>
        <time>2012-06-24T07:22:35Z</time>
      </trkpt>
      <trkpt lat="43.64794" lon="3.85496">
        <ele>63.1</ele>
        <time>2012-06-24T07:22:46Z</time>
      </trkpt>
      <trkpt lat="43.64898" lon="3.85602">
        <ele>57.82</ele>
        <time>2012-06-24T07:22:55Z</time>
      </trkpt>
      <trkpt lat="43.64971" lon="3.85761">
        <ele>59.26</ele>
        <time>2012-06-24T07:23:05Z</time>
      </trkpt>
      <trkpt lat="43.65004" lon="3.85844">
        <ele>58.78</ele>
        <time>2012-06-24T07:23:10Z</time>
      </trkpt>
      <trkpt lat="43.65009" lon="3.85861">
        <ele>58.78</ele>
        <time>2012-06-24T07:23:11Z</time>
      </trkpt>
      <trkpt lat="43.65014" lon="3.85879">
        <ele>58.3</ele>
        <time>2012-06-24T07:23:12Z</time>
      </trkpt>
      <trkpt lat="43.65044" lon="3.86089">
        <ele>52.53</ele>
        <time>2012-06-24T07:23:23Z</time>
      </trkpt>
      <trkpt lat="43.65071" lon="3.86418">
        <ele>43.88</ele>
        <time>2012-06-24T07:23:40Z</time>
      </trkpt>
      <trkpt lat="43.65076" lon="3.8653">
        <ele>44.36</ele>
        <time>2012-06-24T07:23:47Z</time>
      </trkpt>
      <trkpt lat="43.65075" lon="3.86541">
        <ele>44.36</ele>
        <time>2012-06-24T07:23:48Z</time>
      </trkpt>
      <trkpt lat="43.65071" lon="3.86552">
        <ele>44.36</ele>
        <time>2012-06-24T07:23:49Z</time>
      </trkpt>
      <trkpt lat="43.65065" lon="3.86563">
        <ele>44.36</ele>
        <time>2012-06-24T07:23:50Z</time>
      </trkpt>
      <trkpt lat="43.65059" lon="3.86575">
        <ele>44.84</ele>
        <time>2012-06-24T07:23:51Z</time>
      </trkpt>
      <trkpt lat="43.65055" lon="3.86588">
        <ele>45.32</ele>
        <time>2012-06-24T07:23:52Z</time>
      </trkpt>
      <trkpt lat="43.65054" lon="3.86602">
        <ele>45.8</ele>
        <time>2012-06-24T07:23:53Z</time>
      </trkpt>
      <trkpt lat="43.65054" lon="3.86616">
        <ele>46.28</ele>
        <time>2012-06-24T07:23:54Z</time>
      </trkpt>
      <trkpt lat="43.65058" lon="3.8663">
        <ele>46.76</ele>
        <time>2012-06-24T07:23:55Z</time>
      </trkpt>
      <trkpt lat="43.65063" lon="3.86641">
        <ele>46.76</ele>
        <time>2012-06-24T07:23:56Z</time>
      </trkpt>
      <trkpt lat="43.6507" lon="3.86651">
        <ele>47.24</ele>
        <time>2012-06-24T07:23:57Z</time>
      </trkpt>
      <trkpt lat="43.65079" lon="3.86658">
        <ele>46.76</ele>
        <time>2012-06-24T07:23:58Z</time>
      </trkpt>
      <trkpt lat="43.65089" lon="3.86662">
        <ele>46.76</ele>
        <time>2012-06-24T07:23:59Z</time>
      </trkpt>
      <trkpt lat="43.651" lon="3.86662">
        <ele>46.28</ele>
        <time>2012-06-24T07:24:00Z</time>
      </trkpt>
      <trkpt lat="43.6511" lon="3.86658">
        <ele>45.8</ele>
        <time>2012-06-24T07:24:01Z</time>
      </trkpt>
      <trkpt lat="43.65119" lon="3.86651">
        <ele>45.32</ele>
        <time>2012-06-24T07:24:02Z</time>
      </trkpt>
      <trkpt lat="43.65128" lon="3.86642">
        <ele>44.84</ele>
        <time>2012-06-24T07:24:03Z</time>
      </trkpt>
      <trkpt lat="43.65136" lon="3.8663">
        <ele>44.84</ele>
        <time>2012-06-24T07:24:04Z</time>
      </trkpt>
      <trkpt lat="43.65144" lon="3.86619">
        <ele>44.36</ele>
        <time>2012-06-24T07:24:05Z</time>
      </trkpt>
      <trkpt lat="43.65153" lon="3.8661">
        <ele>44.36</ele>
        <time>2012-06-24T07:24:06Z</time>
      </trkpt>
      <trkpt lat="43.65164" lon="3.86602">
        <ele>43.88</ele>
        <time>2012-06-24T07:24:07Z</time>
      </trkpt>
      <trkpt lat="43.65176" lon="3.86595">
        <ele>43.4</ele>
        <time>2012-06-24T07:24:08Z</time>
      </trkpt>
      <trkpt lat="43.65283" lon="3.86524">
        <ele>42.92</ele>
        <time>2012-06-24T07:24:16Z</time>
      </trkpt>
      <trkpt lat="43.65413" lon="3.8649">
        <ele>43.88</ele>
        <time>2012-06-24T07:24:25Z</time>
      </trkpt>
      <trkpt lat="43.65516" lon="3.86448">
        <ele>45.32</ele>
        <time>2012-06-24T07:24:34Z</time>
      </trkpt>
      <trkpt lat="43.65668" lon="3.8639">
        <ele>45.8</ele>
        <time>2012-06-24T07:24:44Z</time>
      </trkpt>
      <trkpt lat="43.65751" lon="3.86362">
        <ele>45.32</ele>
        <time>2012-06-24T07:24:51Z</time>
      </trkpt>
      <trkpt lat="43.65848" lon="3.86337">
        <ele>46.28</ele>
        <time>2012-06-24T07:24:59Z</time>
      </trkpt>
      <trkpt lat="43.66006" lon="3.86321">
        <ele>45.8</ele>
        <time>2012-06-24T07:25:10Z</time>
      </trkpt>
      <trkpt lat="43.66049" lon="3.86326">
        <ele>46.28</ele>
        <time>2012-06-24T07:25:13Z</time>
      </trkpt>
      <trkpt lat="43.66064" lon="3.86324">
        <ele>46.28</ele>
        <time>2012-06-24T07:25:14Z</time>
      </trkpt>
      <trkpt lat="43.66078" lon="3.8632">
        <ele>46.28</ele>
        <time>2012-06-24T07:25:15Z</time>
      </trkpt>
      <trkpt lat="43.66092" lon="3.86315">
        <ele>46.76</ele>
        <time>2012-06-24T07:25:16Z</time>
      </trkpt>
      <trkpt lat="43.66107" lon="3.8631">
        <ele>46.28</ele>
        <time>2012-06-24T07:25:17Z</time>
      </trkpt>
      <trkpt lat="43.66135" lon="3.863">
        <ele>46.76</ele>
        <time>2012-06-24T07:25:19Z</time>
      </trkpt>
      <trkpt lat="43.6615" lon="3.86298">
        <ele>46.76</ele>
        <time>2012-06-24T07:25:20Z</time>
      </trkpt>
      <trkpt lat="43.66222" lon="3.86292">
        <ele>46.76</ele>
        <time>2012-06-24T07:25:27Z</time>
      </trkpt>
      <trkpt lat="43.66304" lon="3.863">
        <ele>46.28</ele>
        <time>2012-06-24T07:25:33Z</time>
      </trkpt>
      <trkpt lat="43.66319" lon="3.86306">
        <ele>46.76</ele>
        <time>2012-06-24T07:25:34Z</time>
      </trkpt>
      <trkpt lat="43.66333" lon="3.86314">
        <ele>46.76</ele>
        <time>2012-06-24T07:25:35Z</time>
      </trkpt>
      <trkpt lat="43.66346" lon="3.86324">
        <ele>46.76</ele>
        <time>2012-06-24T07:25:36Z</time>
      </trkpt>
      <trkpt lat="43.66389" lon="3.86352">
        <ele>47.72</ele>
        <time>2012-06-24T07:25:39Z</time>
      </trkpt>
      <trkpt lat="43.66404" lon="3.86358">
        <ele>47.24</ele>
        <time>2012-06-24T07:25:40Z</time>
      </trkpt>
      <trkpt lat="43.6642" lon="3.8636">
        <ele>47.24</ele>
        <time>2012-06-24T07:25:41Z</time>
      </trkpt>
      <trkpt lat="43.66435" lon="3.86358">
        <ele>47.24</ele>
        <time>2012-06-24T07:25:42Z</time>
      </trkpt>
      <trkpt lat="43.66448" lon="3.86355">
        <ele>46.76</ele>
        <time>2012-06-24T07:25:43Z</time>
      </trkpt>
      <trkpt lat="43.66458" lon="3.86348">
        <ele>47.24</ele>
        <time>2012-06-24T07:25:44Z</time>
      </trkpt>
      <trkpt lat="43.66475" lon="3.86341">
        <ele>48.2</ele>
        <time>2012-06-24T07:25:46Z</time>
      </trkpt>
      <trkpt lat="43.6655" lon="3.86316">
        <ele>50.61</ele>
        <time>2012-06-24T07:25:52Z</time>
      </trkpt>
      <trkpt lat="43.66671" lon="3.86334">
        <ele>51.57</ele>
        <time>2012-06-24T07:26:00Z</time>
      </trkpt>
      <trkpt lat="43.66702" lon="3.86346">
        <ele>51.57</ele>
        <time>2012-06-24T07:26:02Z</time>
      </trkpt>
      <trkpt lat="43.66718" lon="3.86349">
        <ele>51.57</ele>
        <time>2012-06-24T07:26:03Z</time>
      </trkpt>
      <trkpt lat="43.6681" lon="3.8634">
        <ele>52.05</ele>
        <time>2012-06-24T07:26:09Z</time>
      </trkpt>
      <trkpt lat="43.66824" lon="3.86334">
        <ele>52.05</ele>
        <time>2012-06-24T07:26:10Z</time>
      </trkpt>
      <trkpt lat="43.66836" lon="3.8632">
        <ele>52.05</ele>
        <time>2012-06-24T07:26:11Z</time>
      </trkpt>
      <trkpt lat="43.66849" lon="3.86308">
        <ele>52.53</ele>
        <time>2012-06-24T07:26:12Z</time>
      </trkpt>
      <trkpt lat="43.66859" lon="3.86296">
        <ele>53.49</ele>
        <time>2012-06-24T07:26:13Z</time>
      </trkpt>
      <trkpt lat="43.66938" lon="3.86216">
        <ele>56.37</ele>
        <time>2012-06-24T07:26:21Z</time>
      </trkpt>
      <trkpt lat="43.6698" lon="3.86175">
        <ele>57.82</ele>
        <time>2012-06-24T07:26:25Z</time>
      </trkpt>
      <trkpt lat="43.66991" lon="3.86168">
        <ele>58.3</ele>
        <time>2012-06-24T07:26:26Z</time>
      </trkpt>
      <trkpt lat="43.67003" lon="3.86163">
        <ele>58.78</ele>
        <time>2012-06-24T07:26:27Z</time>
      </trkpt>
      <trkpt lat="43.67013" lon="3.86161">
        <ele>58.3</ele>
        <time>2012-06-24T07:26:28Z</time>
      </trkpt>
      <trkpt lat="43.67024" lon="3.86161">
        <ele>58.3</ele>
        <time>2012-06-24T07:26:29Z</time>
      </trkpt>
      <trkpt lat="43.67034" lon="3.86163">
        <ele>57.82</ele>
        <time>2012-06-24T07:26:30Z</time>
      </trkpt>
      <trkpt lat="43.67043" lon="3.86166">
        <ele>57.34</ele>
        <time>2012-06-24T07:26:31Z</time>
      </trkpt>
      <trkpt lat="43.67051" lon="3.86172">
        <ele>56.86</ele>
        <time>2012-06-24T07:26:32Z</time>
      </trkpt>
      <trkpt lat="43.67057" lon="3.86177">
        <ele>56.86</ele>
        <time>2012-06-24T07:26:33Z</time>
      </trkpt>
      <trkpt lat="43.67064" lon="3.86181">
        <ele>56.37</ele>
        <time>2012-06-24T07:26:34Z</time>
      </trkpt>
      <trkpt lat="43.6707" lon="3.86178">
        <ele>56.37</ele>
        <time>2012-06-24T07:26:35Z</time>
      </trkpt>
      <trkpt lat="43.67075" lon="3.86169">
        <ele>56.37</ele>
        <time>2012-06-24T07:26:36Z</time>
      </trkpt>
      <trkpt lat="43.67081" lon="3.86157">
        <ele>56.86</ele>
        <time>2012-06-24T07:26:37Z</time>
      </trkpt>
      <trkpt lat="43.67088" lon="3.86144">
        <ele>56.86</ele>
        <time>2012-06-24T07:26:38Z</time>
      </trkpt>
      <trkpt lat="43.67098" lon="3.86129">
        <ele>57.34</ele>
        <time>2012-06-24T07:26:39Z</time>
      </trkpt>
      <trkpt lat="43.67111" lon="3.86116">
        <ele>57.34</ele>
        <time>2012-06-24T07:26:40Z</time>
      </trkpt>
      <trkpt lat="43.67125" lon="3.86105">
        <ele>57.82</ele>
        <time>2012-06-24T07:26:41Z</time>
      </trkpt>
      <trkpt lat="43.67142" lon="3.86095">
        <ele>57.82</ele>
        <time>2012-06-24T07:26:42Z</time>
      </trkpt>
      <trkpt lat="43.6716" lon="3.86085">
        <ele>58.3</ele>
        <time>2012-06-24T07:26:43Z</time>
      </trkpt>
      <trkpt lat="43.67328" lon="3.85967">
        <ele>62.62</ele>
        <time>2012-06-24T07:26:53Z</time>
      </trkpt>
      <trkpt lat="43.67343" lon="3.8596">
        <ele>62.62</ele>
        <time>2012-06-24T07:26:54Z</time>
      </trkpt>
      <trkpt lat="43.67384" lon="3.8594">
        <ele>63.58</ele>
        <time>2012-06-24T07:26:57Z</time>
      </trkpt>
      <trkpt lat="43.67398" lon="3.8593">
        <ele>64.07</ele>
        <time>2012-06-24T07:26:58Z</time>
      </trkpt>
      <trkpt lat="43.67413" lon="3.85916">
        <ele>64.07</ele>
        <time>2012-06-24T07:26:59Z</time>
      </trkpt>
      <trkpt lat="43.67502" lon="3.85821">
        <ele>63.58</ele>
        <time>2012-06-24T07:27:04Z</time>
      </trkpt>
      <trkpt lat="43.67637" lon="3.85683">
        <ele>64.55</ele>
        <time>2012-06-24T07:27:10Z</time>
      </trkpt>
      <trkpt lat="43.67714" lon="3.85612">
        <ele>65.03</ele>
        <time>2012-06-24T07:27:14Z</time>
      </trkpt>
      <trkpt lat="43.67734" lon="3.85605">
        <ele>65.03</ele>
        <time>2012-06-24T07:27:15Z</time>
      </trkpt>
      <trkpt lat="43.67756" lon="3.85604">
        <ele>65.51</ele>
        <time>2012-06-24T07:27:16Z</time>
      </trkpt>
      <trkpt lat="43.67778" lon="3.85608">
        <ele>65.99</ele>
        <time>2012-06-24T07:27:17Z</time>
      </trkpt>
      <trkpt lat="43.67801" lon="3.85614">
        <ele>65.99</ele>
        <time>2012-06-24T07:27:18Z</time>
      </trkpt>
      <trkpt lat="43.67823" lon="3.85622">
        <ele>65.99</ele>
        <time>2012-06-24T07:27:19Z</time>
      </trkpt>
      <trkpt lat="43.68014" lon="3.85684">
        <ele>63.58</ele>
        <time>2012-06-24T07:27:27Z</time>
      </trkpt>
      <trkpt lat="43.68103" lon="3.85701">
        <ele>63.1</ele>
        <time>2012-06-24T07:27:31Z</time>
      </trkpt>
      <trkpt lat="43.68126" lon="3.85699">
        <ele>63.1</ele>
        <time>2012-06-24T07:27:32Z</time>
      </trkpt>
      <trkpt lat="43.68292" lon="3.85674">
        <ele>63.1</ele>
        <time>2012-06-24T07:27:40Z</time>
      </trkpt>
      <trkpt lat="43.68487" lon="3.85647">
        <ele>60.7</ele>
        <time>2012-06-24T07:27:49Z</time>
      </trkpt>
      <trkpt lat="43.68508" lon="3.85651">
        <ele>60.7</ele>
        <time>2012-06-24T07:27:50Z</time>
      </trkpt>
      <trkpt lat="43.6853" lon="3.85656">
        <ele>60.22</ele>
        <time>2012-06-24T07:27:51Z</time>
      </trkpt>
      <trkpt lat="43.68552" lon="3.85655">
        <ele>60.22</ele>
        <time>2012-06-24T07:27:52Z</time>
      </trkpt>
      <trkpt lat="43.68576" lon="3.85652">
        <ele>59.74</ele>
        <time>2012-06-24T07:27:53Z</time>
      </trkpt>
      <trkpt lat="43.686" lon="3.85646">
        <ele>59.74</ele>
        <time>2012-06-24T07:27:54Z</time>
      </trkpt>
      <trkpt lat="43.68626" lon="3.85639">
        <ele>59.74</ele>
        <time>2012-06-24T07:27:55Z</time>
      </trkpt>
      <trkpt lat="43.68753" lon="3.856">
        <ele>60.7</ele>
        <time>2012-06-24T07:28:00Z</time>
      </trkpt>
      <trkpt lat="43.68776" lon="3.85585">
        <ele>61.18</ele>
        <time>2012-06-24T07:28:01Z</time>
      </trkpt>
      <trkpt lat="43.68911" lon="3.85483">
        <ele>65.99</ele>
        <time>2012-06-24T07:28:08Z</time>
      </trkpt>
      <trkpt lat="43.69006" lon="3.8537">
        <ele>66.95</ele>
        <time>2012-06-24T07:28:16Z</time>
      </trkpt>
      <trkpt lat="43.69107" lon="3.85284">
        <ele>66.95</ele>
        <time>2012-06-24T07:28:24Z</time>
      </trkpt>
      <trkpt lat="43.69122" lon="3.85278">
        <ele>66.47</ele>
        <time>2012-06-24T07:28:25Z</time>
      </trkpt>
      <trkpt lat="43.69138" lon="3.85275">
        <ele>66.95</ele>
        <time>2012-06-24T07:28:26Z</time>
      </trkpt>
      <trkpt lat="43.69155" lon="3.85275">
        <ele>66.95</ele>
        <time>2012-06-24T07:28:27Z</time>
      </trkpt>
      <trkpt lat="43.69172" lon="3.85279">
        <ele>67.43</ele>
        <time>2012-06-24T07:28:28Z</time>
      </trkpt>
      <trkpt lat="43.69191" lon="3.85287">
        <ele>67.43</ele>
        <time>2012-06-24T07:28:29Z</time>
      </trkpt>
      <trkpt lat="43.69212" lon="3.85296">
        <ele>67.43</ele>
        <time>2012-06-24T07:28:30Z</time>
      </trkpt>
      <trkpt lat="43.69364" lon="3.85341">
        <ele>66.47</ele>
        <time>2012-06-24T07:28:36Z</time>
      </trkpt>
      <trkpt lat="43.69531" lon="3.85375">
        <ele>65.99</ele>
        <time>2012-06-24T07:28:43Z</time>
      </trkpt>
      <trkpt lat="43.69681" lon="3.85372">
        <ele>64.55</ele>
        <time>2012-06-24T07:28:49Z</time>
      </trkpt>
      <trkpt lat="43.69902" lon="3.85387">
        <ele>67.43</ele>
        <time>2012-06-24T07:28:58Z</time>
      </trkpt>
      <trkpt lat="43.69942" lon="3.85388">
        <ele>68.87</ele>
        <time>2012-06-24T07:29:00Z</time>
      </trkpt>
      <trkpt lat="43.69962" lon="3.85384">
        <ele>69.35</ele>
        <time>2012-06-24T07:29:01Z</time>
      </trkpt>
      <trkpt lat="43.69983" lon="3.85377">
        <ele>69.83</ele>
        <time>2012-06-24T07:29:02Z</time>
      </trkpt>
      <trkpt lat="43.70042" lon="3.85353">
        <ele>70.31</ele>
        <time>2012-06-24T07:29:05Z</time>
      </trkpt>
      <trkpt lat="43.70063" lon="3.85352">
        <ele>70.31</ele>
        <time>2012-06-24T07:29:06Z</time>
      </trkpt>
      <trkpt lat="43.70084" lon="3.85355">
        <ele>69.83</ele>
        <time>2012-06-24T07:29:07Z</time>
      </trkpt>
      <trkpt lat="43.70172" lon="3.85372">
        <ele>69.35</ele>
        <time>2012-06-24T07:29:13Z</time>
      </trkpt>
      <trkpt lat="43.70178" lon="3.85377">
        <ele>68.87</ele>
        <time>2012-06-24T07:29:14Z</time>
      </trkpt>
      <trkpt lat="43.70181" lon="3.85384">
        <ele>68.87</ele>
        <time>2012-06-24T07:29:15Z</time>
      </trkpt>
      <trkpt lat="43.70184" lon="3.85394">
        <ele>68.39</ele>
        <time>2012-06-24T07:29:16Z</time>
      </trkpt>
      <trkpt lat="43.70188" lon="3.85402">
        <ele>67.91</ele>
        <time>2012-06-24T07:29:17Z</time>
      </trkpt>
      <trkpt lat="43.70191" lon="3.85408">
        <ele>67.43</ele>
        <time>2012-06-24T07:29:18Z</time>
      </trkpt>
      <trkpt lat="43.70198" lon="3.85407">
        <ele>66.95</ele>
        <time>2012-06-24T07:29:19Z</time>
      </trkpt>
      <trkpt lat="43.70205" lon="3.85399">
        <ele>66.47</ele>
        <time>2012-06-24T07:29:20Z</time>
      </trkpt>
      <trkpt lat="43.70211" lon="3.85392">
        <ele>66.95</ele>
        <time>2012-06-24T07:29:21Z</time>
      </trkpt>
      <trkpt lat="43.70217" lon="3.85385">
        <ele>66.95</ele>
        <time>2012-06-24T07:29:22Z</time>
      </trkpt>
      <trkpt lat="43.70224" lon="3.85381">
        <ele>66.95</ele>
        <time>2012-06-24T07:29:23Z</time>
      </trkpt>
      <trkpt lat="43.70231" lon="3.85379">
        <ele>67.43</ele>
        <time>2012-06-24T07:29:24Z</time>
      </trkpt>
      <trkpt lat="43.70239" lon="3.85381">
        <ele>67.43</ele>
        <time>2012-06-24T07:29:25Z</time>
      </trkpt>
      <trkpt lat="43.70247" lon="3.85383">
        <ele>67.91</ele>
        <time>2012-06-24T07:29:26Z</time>
      </trkpt>
      <trkpt lat="43.70328" lon="3.85388">
        <ele>69.83</ele>
        <time>2012-06-24T07:29:33Z</time>
      </trkpt>
      <trkpt lat="43.70487" lon="3.85376">
        <ele>68.39</ele>
        <time>2012-06-24T07:29:44Z</time>
      </trkpt>
      <trkpt lat="43.70629" lon="3.85339">
        <ele>67.91</ele>
        <time>2012-06-24T07:29:53Z</time>
      </trkpt>
      <trkpt lat="43.70762" lon="3.8533">
        <ele>67.43</ele>
        <time>2012-06-24T07:30:00Z</time>
      </trkpt>
      <trkpt lat="43.70962" lon="3.85283">
        <ele>66.47</ele>
        <time>2012-06-24T07:30:10Z</time>
      </trkpt>
      <trkpt lat="43.71145" lon="3.8523">
        <ele>68.87</ele>
        <time>2012-06-24T07:30:19Z</time>
      </trkpt>
      <trkpt lat="43.71347" lon="3.85146">
        <ele>67.43</ele>
        <time>2012-06-24T07:30:30Z</time>
      </trkpt>
      <trkpt lat="43.71363" lon="3.85133">
        <ele>66.95</ele>
        <time>2012-06-24T07:30:31Z</time>
      </trkpt>
      <trkpt lat="43.71378" lon="3.85113">
        <ele>66.95</ele>
        <time>2012-06-24T07:30:32Z</time>
      </trkpt>
      <trkpt lat="43.71394" lon="3.85093">
        <ele>66.95</ele>
        <time>2012-06-24T07:30:33Z</time>
      </trkpt>
      <trkpt lat="43.7141" lon="3.85072">
        <ele>66.47</ele>
        <time>2012-06-24T07:30:34Z</time>
      </trkpt>
      <trkpt lat="43.71523" lon="3.84956">
        <ele>67.43</ele>
        <time>2012-06-24T07:30:41Z</time>
      </trkpt>
      <trkpt lat="43.71576" lon="3.84897">
        <ele>68.87</ele>
        <time>2012-06-24T07:30:45Z</time>
      </trkpt>
      <trkpt lat="43.71586" lon="3.8488">
        <ele>68.87</ele>
        <time>2012-06-24T07:30:46Z</time>
      </trkpt>
      <trkpt lat="43.71593" lon="3.8486">
        <ele>69.35</ele>
        <time>2012-06-24T07:30:47Z</time>
      </trkpt>
      <trkpt lat="43.71598" lon="3.84838">
        <ele>69.83</ele>
        <time>2012-06-24T07:30:48Z</time>
      </trkpt>
      <trkpt lat="43.71601" lon="3.84815">
        <ele>70.31</ele>
        <time>2012-06-24T07:30:49Z</time>
      </trkpt>
      <trkpt lat="43.71603" lon="3.84793">
        <ele>70.79</ele>
        <time>2012-06-24T07:30:50Z</time>
      </trkpt>
      <trkpt lat="43.71634" lon="3.84705">
        <ele>72.24</ele>
        <time>2012-06-24T07:30:55Z</time>
      </trkpt>
      <trkpt lat="43.71649" lon="3.84679">
        <ele>72.72</ele>
        <time>2012-06-24T07:30:57Z</time>
      </trkpt>
      <trkpt lat="43.71652" lon="3.84664">
        <ele>72.72</ele>
        <time>2012-06-24T07:30:58Z</time>
      </trkpt>
      <trkpt lat="43.71653" lon="3.84645">
        <ele>73.2</ele>
        <time>2012-06-24T07:30:59Z</time>
      </trkpt>
      <trkpt lat="43.71653" lon="3.84623">
        <ele>73.68</ele>
        <time>2012-06-24T07:31:00Z</time>
      </trkpt>
      <trkpt lat="43.71651" lon="3.846">
        <ele>74.16</ele>
        <time>2012-06-24T07:31:01Z</time>
      </trkpt>
      <trkpt lat="43.71653" lon="3.84577">
        <ele>74.16</ele>
        <time>2012-06-24T07:31:02Z</time>
      </trkpt>
      <trkpt lat="43.71655" lon="3.84555">
        <ele>74.16</ele>
        <time>2012-06-24T07:31:03Z</time>
      </trkpt>
      <trkpt lat="43.7166" lon="3.84533">
        <ele>74.64</ele>
        <time>2012-06-24T07:31:04Z</time>
      </trkpt>
      <trkpt lat="43.71665" lon="3.84513">
        <ele>74.16</ele>
        <time>2012-06-24T07:31:05Z</time>
      </trkpt>
      <trkpt lat="43.71671" lon="3.84494">
        <ele>73.68</ele>
        <time>2012-06-24T07:31:06Z</time>
      </trkpt>
      <trkpt lat="43.71677" lon="3.84477">
        <ele>73.2</ele>
        <time>2012-06-24T07:31:07Z</time>
      </trkpt>
      <trkpt lat="43.71684" lon="3.84463">
        <ele>73.2</ele>
        <time>2012-06-24T07:31:08Z</time>
      </trkpt>
      <trkpt lat="43.71693" lon="3.8445">
        <ele>73.2</ele>
        <time>2012-06-24T07:31:09Z</time>
      </trkpt>
      <trkpt lat="43.71704" lon="3.84443">
        <ele>72.72</ele>
        <time>2012-06-24T07:31:10Z</time>
      </trkpt>
      <trkpt lat="43.71716" lon="3.84437">
        <ele>72.72</ele>
        <time>2012-06-24T07:31:11Z</time>
      </trkpt>
      <trkpt lat="43.71727" lon="3.84435">
        <ele>73.2</ele>
        <time>2012-06-24T07:31:12Z</time>
      </trkpt>
      <trkpt lat="43.71739" lon="3.84434">
        <ele>72.24</ele>
        <time>2012-06-24T07:31:13Z</time>
      </trkpt>
      <trkpt lat="43.7175" lon="3.84431">
        <ele>72.24</ele>
        <time>2012-06-24T07:31:14Z</time>
      </trkpt>
      <trkpt lat="43.71759" lon="3.84426">
        <ele>72.24</ele>
        <time>2012-06-24T07:31:15Z</time>
      </trkpt>
      <trkpt lat="43.71768" lon="3.84419">
        <ele>71.27</ele>
        <time>2012-06-24T07:31:16Z</time>
      </trkpt>
      <trkpt lat="43.71776" lon="3.8441">
        <ele>71.27</ele>
        <time>2012-06-24T07:31:17Z</time>
      </trkpt>
      <trkpt lat="43.71783" lon="3.84401">
        <ele>70.79</ele>
        <time>2012-06-24T07:31:18Z</time>
      </trkpt>
      <trkpt lat="43.71801" lon="3.8437">
        <ele>70.79</ele>
        <time>2012-06-24T07:31:21Z</time>
      </trkpt>
      <trkpt lat="43.71805" lon="3.84357">
        <ele>70.31</ele>
        <time>2012-06-24T07:31:22Z</time>
      </trkpt>
      <trkpt lat="43.71808" lon="3.84342">
        <ele>69.83</ele>
        <time>2012-06-24T07:31:23Z</time>
      </trkpt>
      <trkpt lat="43.71806" lon="3.84324">
        <ele>69.35</ele>
        <time>2012-06-24T07:31:24Z</time>
      </trkpt>
      <trkpt lat="43.71803" lon="3.84303">
        <ele>69.35</ele>
        <time>2012-06-24T07:31:25Z</time>
      </trkpt>
      <trkpt lat="43.71799" lon="3.8428">
        <ele>70.31</ele>
        <time>2012-06-24T07:31:26Z</time>
      </trkpt>
      <trkpt lat="43.71794" lon="3.84257">
        <ele>70.79</ele>
        <time>2012-06-24T07:31:27Z</time>
      </trkpt>
      <trkpt lat="43.7179" lon="3.84213">
        <ele>71.76</ele>
        <time>2012-06-24T07:31:29Z</time>
      </trkpt>
      <trkpt lat="43.71791" lon="3.84192">
        <ele>72.24</ele>
        <time>2012-06-24T07:31:30Z</time>
      </trkpt>
      <trkpt lat="43.71795" lon="3.84171">
        <ele>72.72</ele>
        <time>2012-06-24T07:31:31Z</time>
      </trkpt>
      <trkpt lat="43.718" lon="3.84149">
        <ele>73.2</ele>
        <time>2012-06-24T07:31:32Z</time>
      </trkpt>
      <trkpt lat="43.71802" lon="3.84127">
        <ele>73.68</ele>
        <time>2012-06-24T07:31:33Z</time>
      </trkpt>
      <trkpt lat="43.71805" lon="3.84107">
        <ele>74.64</ele>
        <time>2012-06-24T07:31:34Z</time>
      </trkpt>
      <trkpt lat="43.71808" lon="3.84088">
        <ele>75.12</ele>
        <time>2012-06-24T07:31:35Z</time>
      </trkpt>
      <trkpt lat="43.71815" lon="3.84071">
        <ele>76.08</ele>
        <time>2012-06-24T07:31:36Z</time>
      </trkpt>
      <trkpt lat="43.71826" lon="3.84057">
        <ele>77.04</ele>
        <time>2012-06-24T07:31:37Z</time>
      </trkpt>
      <trkpt lat="43.71836" lon="3.84044">
        <ele>77.52</ele>
        <time>2012-06-24T07:31:38Z</time>
      </trkpt>
      <trkpt lat="43.71849" lon="3.84032">
        <ele>78.48</ele>
        <time>2012-06-24T07:31:39Z</time>
      </trkpt>
      <trkpt lat="43.71865" lon="3.8402">
        <ele>79.45</ele>
        <time>2012-06-24T07:31:40Z</time>
      </trkpt>
      <trkpt lat="43.71882" lon="3.84008">
        <ele>80.41</ele>
        <time>2012-06-24T07:31:41Z</time>
      </trkpt>
      <trkpt lat="43.71923" lon="3.83966">
        <ele>83.77</ele>
        <time>2012-06-24T07:31:44Z</time>
      </trkpt>
      <trkpt lat="43.71971" lon="3.83905">
        <ele>88.58</ele>
        <time>2012-06-24T07:31:49Z</time>
      </trkpt>
      <trkpt lat="43.71978" lon="3.839">
        <ele>89.54</ele>
        <time>2012-06-24T07:31:50Z</time>
      </trkpt>
      <trkpt lat="43.71985" lon="3.839">
        <ele>90.02</ele>
        <time>2012-06-24T07:31:51Z</time>
      </trkpt>
      <trkpt lat="43.71991" lon="3.83909">
        <ele>90.98</ele>
        <time>2012-06-24T07:31:52Z</time>
      </trkpt>
      <trkpt lat="43.71994" lon="3.83921">
        <ele>91.46</ele>
        <time>2012-06-24T07:31:53Z</time>
      </trkpt>
      <trkpt lat="43.71995" lon="3.83935">
        <ele>92.42</ele>
        <time>2012-06-24T07:31:54Z</time>
      </trkpt>
      <trkpt lat="43.71995" lon="3.8395">
        <ele>92.9</ele>
        <time>2012-06-24T07:31:55Z</time>
      </trkpt>
      <trkpt lat="43.71995" lon="3.83966">
        <ele>93.39</ele>
        <time>2012-06-24T07:31:56Z</time>
      </trkpt>
      <trkpt lat="43.71996" lon="3.83981">
        <ele>94.35</ele>
        <time>2012-06-24T07:31:57Z</time>
      </trkpt>
      <trkpt lat="43.72001" lon="3.83994">
        <ele>94.83</ele>
        <time>2012-06-24T07:31:58Z</time>
      </trkpt>
      <trkpt lat="43.72009" lon="3.84003">
        <ele>95.31</ele>
        <time>2012-06-24T07:31:59Z</time>
      </trkpt>
      <trkpt lat="43.72018" lon="3.84008">
        <ele>95.79</ele>
        <time>2012-06-24T07:32:00Z</time>
      </trkpt>
      <trkpt lat="43.72029" lon="3.8401">
        <ele>96.75</ele>
        <time>2012-06-24T07:32:01Z</time>
      </trkpt>
      <trkpt lat="43.72039" lon="3.84009">
        <ele>97.23</ele>
        <time>2012-06-24T07:32:02Z</time>
      </trkpt>
      <trkpt lat="43.7205" lon="3.84004">
        <ele>97.71</ele>
        <time>2012-06-24T07:32:03Z</time>
      </trkpt>
      <trkpt lat="43.72062" lon="3.83998">
        <ele>98.67</ele>
        <time>2012-06-24T07:32:04Z</time>
      </trkpt>
      <trkpt lat="43.72076" lon="3.83994">
        <ele>99.15</ele>
        <time>2012-06-24T07:32:05Z</time>
      </trkpt>
      <trkpt lat="43.72091" lon="3.83992">
        <ele>100.11</ele>
        <time>2012-06-24T07:32:06Z</time>
      </trkpt>
      <trkpt lat="43.72144" lon="3.83986">
        <ele>103.48</ele>
        <time>2012-06-24T07:32:10Z</time>
      </trkpt>
      <trkpt lat="43.72155" lon="3.83981">
        <ele>103.96</ele>
        <time>2012-06-24T07:32:11Z</time>
      </trkpt>
      <trkpt lat="43.72165" lon="3.83975">
        <ele>104.92</ele>
        <time>2012-06-24T07:32:12Z</time>
      </trkpt>
      <trkpt lat="43.72173" lon="3.83965">
        <ele>105.4</ele>
        <time>2012-06-24T07:32:13Z</time>
      </trkpt>
      <trkpt lat="43.72181" lon="3.83953">
        <ele>105.88</ele>
        <time>2012-06-24T07:32:14Z</time>
      </trkpt>
      <trkpt lat="43.72187" lon="3.83939">
        <ele>106.36</ele>
        <time>2012-06-24T07:32:15Z</time>
      </trkpt>
      <trkpt lat="43.72193" lon="3.83926">
        <ele>105.88</ele>
        <time>2012-06-24T07:32:16Z</time>
      </trkpt>
      <trkpt lat="43.72236" lon="3.83848">
        <ele>103.96</ele>
        <time>2012-06-24T07:32:22Z</time>
      </trkpt>
      <trkpt lat="43.72246" lon="3.83839">
        <ele>103.48</ele>
        <time>2012-06-24T07:32:23Z</time>
      </trkpt>
      <trkpt lat="43.72257" lon="3.83832">
        <ele>103</ele>
        <time>2012-06-24T07:32:24Z</time>
      </trkpt>
      <trkpt lat="43.72393" lon="3.83751">
        <ele>95.79</ele>
        <time>2012-06-24T07:32:35Z</time>
      </trkpt>
      <trkpt lat="43.72453" lon="3.83695">
        <ele>93.87</ele>
        <time>2012-06-24T07:32:40Z</time>
      </trkpt>
      <trkpt lat="43.72468" lon="3.83683">
        <ele>93.87</ele>
        <time>2012-06-24T07:32:41Z</time>
      </trkpt>
      <trkpt lat="43.72573" lon="3.83612">
        <ele>90.98</ele>
        <time>2012-06-24T07:32:49Z</time>
      </trkpt>
      <trkpt lat="43.7261" lon="3.83586">
        <ele>90.98</ele>
        <time>2012-06-24T07:32:53Z</time>
      </trkpt>
      <trkpt lat="43.72618" lon="3.83577">
        <ele>90.5</ele>
        <time>2012-06-24T07:32:54Z</time>
      </trkpt>
      <trkpt lat="43.72625" lon="3.83564">
        <ele>90.5</ele>
        <time>2012-06-24T07:32:55Z</time>
      </trkpt>
      <trkpt lat="43.72631" lon="3.83548">
        <ele>90.02</ele>
        <time>2012-06-24T07:32:56Z</time>
      </trkpt>
      <trkpt lat="43.72636" lon="3.8353">
        <ele>90.02</ele>
        <time>2012-06-24T07:32:57Z</time>
      </trkpt>
      <trkpt lat="43.72642" lon="3.8351">
        <ele>90.02</ele>
        <time>2012-06-24T07:32:58Z</time>
      </trkpt>
      <trkpt lat="43.72664" lon="3.83449">
        <ele>90.02</ele>
        <time>2012-06-24T07:33:01Z</time>
      </trkpt>
      <trkpt lat="43.72675" lon="3.83429">
        <ele>90.02</ele>
        <time>2012-06-24T07:33:02Z</time>
      </trkpt>
      <trkpt lat="43.72813" lon="3.83218">
        <ele>92.42</ele>
        <time>2012-06-24T07:33:13Z</time>
      </trkpt>
      <trkpt lat="43.72896" lon="3.83128">
        <ele>92.42</ele>
        <time>2012-06-24T07:33:19Z</time>
      </trkpt>
      <trkpt lat="43.7291" lon="3.8312">
        <ele>91.94</ele>
        <time>2012-06-24T07:33:20Z</time>
      </trkpt>
      <trkpt lat="43.72936" lon="3.83108">
        <ele>91.94</ele>
        <time>2012-06-24T07:33:22Z</time>
      </trkpt>
      <trkpt lat="43.72945" lon="3.83097">
        <ele>91.94</ele>
        <time>2012-06-24T07:33:23Z</time>
      </trkpt>
      <trkpt lat="43.72953" lon="3.83086">
        <ele>91.46</ele>
        <time>2012-06-24T07:33:24Z</time>
      </trkpt>
      <trkpt lat="43.72957" lon="3.8307">
        <ele>90.98</ele>
        <time>2012-06-24T07:33:25Z</time>
      </trkpt>
      <trkpt lat="43.72953" lon="3.83051">
        <ele>89.54</ele>
        <time>2012-06-24T07:33:26Z</time>
      </trkpt>
      <trkpt lat="43.72948" lon="3.8303">
        <ele>89.06</ele>
        <time>2012-06-24T07:33:27Z</time>
      </trkpt>
      <trkpt lat="43.72942" lon="3.83007">
        <ele>89.06</ele>
        <time>2012-06-24T07:33:28Z</time>
      </trkpt>
      <trkpt lat="43.72933" lon="3.82983">
        <ele>89.06</ele>
        <time>2012-06-24T07:33:29Z</time>
      </trkpt>
      <trkpt lat="43.72923" lon="3.82958">
        <ele>89.06</ele>
        <time>2012-06-24T07:33:30Z</time>
      </trkpt>
      <trkpt lat="43.72913" lon="3.82933">
        <ele>89.54</ele>
        <time>2012-06-24T07:33:31Z</time>
      </trkpt>
      <trkpt lat="43.72855" lon="3.82776">
        <ele>90.5</ele>
        <time>2012-06-24T07:33:39Z</time>
      </trkpt>
      <trkpt lat="43.72853" lon="3.82759">
        <ele>90.98</ele>
        <time>2012-06-24T07:33:40Z</time>
      </trkpt>
      <trkpt lat="43.72853" lon="3.82742">
        <ele>90.98</ele>
        <time>2012-06-24T07:33:41Z</time>
      </trkpt>
      <trkpt lat="43.72855" lon="3.82725">
        <ele>90.98</ele>
        <time>2012-06-24T07:33:42Z</time>
      </trkpt>
      <trkpt lat="43.72858" lon="3.82707">
        <ele>90.5</ele>
        <time>2012-06-24T07:33:43Z</time>
      </trkpt>
      <trkpt lat="43.72863" lon="3.82668">
        <ele>90.5</ele>
        <time>2012-06-24T07:33:45Z</time>
      </trkpt>
      <trkpt lat="43.72863" lon="3.82646">
        <ele>90.5</ele>
        <time>2012-06-24T07:33:46Z</time>
      </trkpt>
      <trkpt lat="43.72862" lon="3.82626">
        <ele>90.5</ele>
        <time>2012-06-24T07:33:47Z</time>
      </trkpt>
      <trkpt lat="43.72859" lon="3.82607">
        <ele>90.98</ele>
        <time>2012-06-24T07:33:48Z</time>
      </trkpt>
      <trkpt lat="43.72856" lon="3.82591">
        <ele>90.98</ele>
        <time>2012-06-24T07:33:49Z</time>
      </trkpt>
      <trkpt lat="43.72843" lon="3.82535">
        <ele>92.42</ele>
        <time>2012-06-24T07:33:55Z</time>
      </trkpt>
      <trkpt lat="43.7282" lon="3.82401">
        <ele>94.83</ele>
        <time>2012-06-24T07:34:03Z</time>
      </trkpt>
      <trkpt lat="43.72812" lon="3.82207">
        <ele>97.71</ele>
        <time>2012-06-24T07:34:14Z</time>
      </trkpt>
      <trkpt lat="43.72812" lon="3.82116">
        <ele>99.15</ele>
        <time>2012-06-24T07:34:22Z</time>
      </trkpt>
      <trkpt lat="43.72817" lon="3.8204">
        <ele>99.15</ele>
        <time>2012-06-24T07:34:28Z</time>
      </trkpt>
      <trkpt lat="43.72811" lon="3.8193">
        <ele>99.63</ele>
        <time>2012-06-24T07:34:37Z</time>
      </trkpt>
      <trkpt lat="43.72805" lon="3.81859">
        <ele>101.08</ele>
        <time>2012-06-24T07:34:44Z</time>
      </trkpt>
      <trkpt lat="43.72804" lon="3.81826">
        <ele>101.56</ele>
        <time>2012-06-24T07:34:47Z</time>
      </trkpt>
      <trkpt lat="43.72805" lon="3.81817">
        <ele>101.56</ele>
        <time>2012-06-24T07:34:48Z</time>
      </trkpt>
      <trkpt lat="43.72807" lon="3.81808">
        <ele>101.56</ele>
        <time>2012-06-24T07:34:49Z</time>
      </trkpt>
      <trkpt lat="43.7281" lon="3.81799">
        <ele>102.04</ele>
        <time>2012-06-24T07:34:50Z</time>
      </trkpt>
      <trkpt lat="43.72814" lon="3.8179">
        <ele>102.04</ele>
        <time>2012-06-24T07:34:51Z</time>
      </trkpt>
      <trkpt lat="43.72818" lon="3.8178">
        <ele>102.04</ele>
        <time>2012-06-24T07:34:52Z</time>
      </trkpt>
      <trkpt lat="43.72824" lon="3.8177">
        <ele>102.04</ele>
        <time>2012-06-24T07:34:53Z</time>
      </trkpt>
      <trkpt lat="43.72831" lon="3.81758">
        <ele>102.04</ele>
        <time>2012-06-24T07:34:54Z</time>
      </trkpt>
      <trkpt lat="43.72891" lon="3.81643">
        <ele>103</ele>
        <time>2012-06-24T07:35:04Z</time>
      </trkpt>
      <trkpt lat="43.72933" lon="3.81552">
        <ele>103.48</ele>
        <time>2012-06-24T07:35:11Z</time>
      </trkpt>
      <trkpt lat="43.72958" lon="3.81446">
        <ele>103.96</ele>
        <time>2012-06-24T07:35:18Z</time>
      </trkpt>
      <trkpt lat="43.7298" lon="3.81331">
        <ele>103</ele>
        <time>2012-06-24T07:35:26Z</time>
      </trkpt>
      <trkpt lat="43.72996" lon="3.81248">
        <ele>102.52</ele>
        <time>2012-06-24T07:35:32Z</time>
      </trkpt>
      <trkpt lat="43.73" lon="3.81236">
        <ele>102.52</ele>
        <time>2012-06-24T07:35:33Z</time>
      </trkpt>
      <trkpt lat="43.73007" lon="3.81227">
        <ele>102.52</ele>
        <time>2012-06-24T07:35:34Z</time>
      </trkpt>
      <trkpt lat="43.73014" lon="3.81219">
        <ele>102.52</ele>
        <time>2012-06-24T07:35:35Z</time>
      </trkpt>
      <trkpt lat="43.73022" lon="3.81213">
        <ele>102.52</ele>
        <time>2012-06-24T07:35:36Z</time>
      </trkpt>
      <trkpt lat="43.73029" lon="3.81207">
        <ele>102.04</ele>
        <time>2012-06-24T07:35:37Z</time>
      </trkpt>
      <trkpt lat="43.73054" lon="3.81188">
        <ele>102.04</ele>
        <time>2012-06-24T07:35:43Z</time>
      </trkpt>
      <trkpt lat="43.73062" lon="3.8118">
        <ele>105.88</ele>
        <time>2012-06-24T07:35:58Z</time>
      </trkpt>
      <trkpt lat="43.73064" lon="3.81182">
        <ele>105.4</ele>
        <time>2012-06-24T07:35:59Z</time>
      </trkpt>
      <trkpt lat="43.73067" lon="3.81187">
        <ele>104.92</ele>
        <time>2012-06-24T07:36:00Z</time>
      </trkpt>
      <trkpt lat="43.7307" lon="3.81197">
        <ele>104.44</ele>
        <time>2012-06-24T07:36:01Z</time>
      </trkpt>
      <trkpt lat="43.73072" lon="3.81208">
        <ele>103.96</ele>
        <time>2012-06-24T07:36:02Z</time>
      </trkpt>
      <trkpt lat="43.73074" lon="3.8122">
        <ele>103.48</ele>
        <time>2012-06-24T07:36:03Z</time>
      </trkpt>
      <trkpt lat="43.7309" lon="3.81342">
        <ele>100.6</ele>
        <time>2012-06-24T07:36:10Z</time>
      </trkpt>
      <trkpt lat="43.73114" lon="3.81523">
        <ele>98.67</ele>
        <time>2012-06-24T07:36:19Z</time>
      </trkpt>
      <trkpt lat="43.73146" lon="3.81674">
        <ele>98.19</ele>
        <time>2012-06-24T07:36:27Z</time>
      </trkpt>
      <trkpt lat="43.73198" lon="3.81855">
        <ele>100.11</ele>
        <time>2012-06-24T07:36:35Z</time>
      </trkpt>
      <trkpt lat="43.7326" lon="3.8206">
        <ele>103</ele>
        <time>2012-06-24T07:36:41Z</time>
      </trkpt>
      <trkpt lat="43.73419" lon="3.82446">
        <ele>101.56</ele>
        <time>2012-06-24T07:36:52Z</time>
      </trkpt>
      <trkpt lat="43.73566" lon="3.82791">
        <ele>100.6</ele>
        <time>2012-06-24T07:37:03Z</time>
      </trkpt>
      <trkpt lat="43.73719" lon="3.8315">
        <ele>100.11</ele>
        <time>2012-06-24T07:37:14Z</time>
      </trkpt>
      <trkpt lat="43.73943" lon="3.83688">
        <ele>102.04</ele>
        <time>2012-06-24T07:37:31Z</time>
      </trkpt>
      <trkpt lat="43.73984" lon="3.83891">
        <ele>98.19</ele>
        <time>2012-06-24T07:37:37Z</time>
      </trkpt>
      <trkpt lat="43.73996" lon="3.84145">
        <ele>93.87</ele>
        <time>2012-06-24T07:37:45Z</time>
      </trkpt>
      <trkpt lat="43.74024" lon="3.84521">
        <ele>91.94</ele>
        <time>2012-06-24T07:37:57Z</time>
      </trkpt>
      <trkpt lat="43.7409" lon="3.84748">
        <ele>88.58</ele>
        <time>2012-06-24T07:38:04Z</time>
      </trkpt>
      <trkpt lat="43.7423" lon="3.85191">
        <ele>85.69</ele>
        <time>2012-06-24T07:38:18Z</time>
      </trkpt>
      <trkpt lat="43.74284" lon="3.85362">
        <ele>85.69</ele>
        <time>2012-06-24T07:38:25Z</time>
      </trkpt>
      <trkpt lat="43.74348" lon="3.85552">
        <ele>86.66</ele>
        <time>2012-06-24T07:38:32Z</time>
      </trkpt>
      <trkpt lat="43.7436" lon="3.85573">
        <ele>87.14</ele>
        <time>2012-06-24T07:38:33Z</time>
      </trkpt>
      <trkpt lat="43.74375" lon="3.85593">
        <ele>87.62</ele>
        <time>2012-06-24T07:38:34Z</time>
      </trkpt>
      <trkpt lat="43.74391" lon="3.8561">
        <ele>87.62</ele>
        <time>2012-06-24T07:38:35Z</time>
      </trkpt>
      <trkpt lat="43.74409" lon="3.85626">
        <ele>87.62</ele>
        <time>2012-06-24T07:38:36Z</time>
      </trkpt>
      <trkpt lat="43.74429" lon="3.85642">
        <ele>87.62</ele>
        <time>2012-06-24T07:38:37Z</time>
      </trkpt>
      <trkpt lat="43.74545" lon="3.85739">
        <ele>85.69</ele>
        <time>2012-06-24T07:38:43Z</time>
      </trkpt>
      <trkpt lat="43.74561" lon="3.8576">
        <ele>85.21</ele>
        <time>2012-06-24T07:38:44Z</time>
      </trkpt>
      <trkpt lat="43.74575" lon="3.85783">
        <ele>85.21</ele>
        <time>2012-06-24T07:38:45Z</time>
      </trkpt>
      <trkpt lat="43.74587" lon="3.85808">
        <ele>85.21</ele>
        <time>2012-06-24T07:38:46Z</time>
      </trkpt>
      <trkpt lat="43.74597" lon="3.85833">
        <ele>85.21</ele>
        <time>2012-06-24T07:38:47Z</time>
      </trkpt>
      <trkpt lat="43.74605" lon="3.85858">
        <ele>85.69</ele>
        <time>2012-06-24T07:38:48Z</time>
      </trkpt>
      <trkpt lat="43.7464" lon="3.85979">
        <ele>86.18</ele>
        <time>2012-06-24T07:38:54Z</time>
      </trkpt>
      <trkpt lat="43.7465" lon="3.86005">
        <ele>86.18</ele>
        <time>2012-06-24T07:38:57Z</time>
      </trkpt>
      <trkpt lat="43.74652" lon="3.86009">
        <ele>86.18</ele>
        <time>2012-06-24T07:38:58Z</time>
      </trkpt>
      <trkpt lat="43.74653" lon="3.86011">
        <ele>86.18</ele>
        <time>2012-06-24T07:38:59Z</time>
      </trkpt>
      <trkpt lat="43.74659" lon="3.86012">
        <ele>86.18</ele>
        <time>2012-06-24T07:39:04Z</time>
      </trkpt>
      <trkpt lat="43.74665" lon="3.8601">
        <ele>86.18</ele>
        <time>2012-06-24T07:39:05Z</time>
      </trkpt>
      <trkpt lat="43.74673" lon="3.86005">
        <ele>85.69</ele>
        <time>2012-06-24T07:39:06Z</time>
      </trkpt>
      <trkpt lat="43.74682" lon="3.85997">
        <ele>85.69</ele>
        <time>2012-06-24T07:39:07Z</time>
      </trkpt>
      <trkpt lat="43.74691" lon="3.85987">
        <ele>85.69</ele>
        <time>2012-06-24T07:39:08Z</time>
      </trkpt>
      <trkpt lat="43.74762" lon="3.85917">
        <ele>87.14</ele>
        <time>2012-06-24T07:39:13Z</time>
      </trkpt>
      <trkpt lat="43.74839" lon="3.85876">
        <ele>88.1</ele>
        <time>2012-06-24T07:39:17Z</time>
      </trkpt>
      <trkpt lat="43.74861" lon="3.85871">
        <ele>88.1</ele>
        <time>2012-06-24T07:39:18Z</time>
      </trkpt>
      <trkpt lat="43.74883" lon="3.8587">
        <ele>88.58</ele>
        <time>2012-06-24T07:39:19Z</time>
      </trkpt>
      <trkpt lat="43.74907" lon="3.85872">
        <ele>88.58</ele>
        <time>2012-06-24T07:39:20Z</time>
      </trkpt>
      <trkpt lat="43.7493" lon="3.85876">
        <ele>89.06</ele>
        <time>2012-06-24T07:39:21Z</time>
      </trkpt>
      <trkpt lat="43.75186" lon="3.85921">
        <ele>90.98</ele>
        <time>2012-06-24T07:39:31Z</time>
      </trkpt>
      <trkpt lat="43.75593" lon="3.86">
        <ele>94.83</ele>
        <time>2012-06-24T07:39:47Z</time>
      </trkpt>
      <trkpt lat="43.75749" lon="3.86079">
        <ele>94.83</ele>
        <time>2012-06-24T07:39:54Z</time>
      </trkpt>
      <trkpt lat="43.75974" lon="3.86229">
        <ele>98.19</ele>
        <time>2012-06-24T07:40:05Z</time>
      </trkpt>
      <trkpt lat="43.76077" lon="3.86299">
        <ele>99.15</ele>
        <time>2012-06-24T07:40:13Z</time>
      </trkpt>
      <trkpt lat="43.76102" lon="3.86316">
        <ele>98.67</ele>
        <time>2012-06-24T07:40:16Z</time>
      </trkpt>
      <trkpt lat="43.76108" lon="3.86323">
        <ele>98.67</ele>
        <time>2012-06-24T07:40:17Z</time>
      </trkpt>
      <trkpt lat="43.76113" lon="3.8633">
        <ele>98.67</ele>
        <time>2012-06-24T07:40:18Z</time>
      </trkpt>
      <trkpt lat="43.76117" lon="3.86338">
        <ele>98.67</ele>
        <time>2012-06-24T07:40:19Z</time>
      </trkpt>
      <trkpt lat="43.76121" lon="3.86349">
        <ele>98.67</ele>
        <time>2012-06-24T07:40:20Z</time>
      </trkpt>
      <trkpt lat="43.76126" lon="3.86358">
        <ele>99.15</ele>
        <time>2012-06-24T07:40:21Z</time>
      </trkpt>
      <trkpt lat="43.76133" lon="3.86366">
        <ele>99.15</ele>
        <time>2012-06-24T07:40:22Z</time>
      </trkpt>
      <trkpt lat="43.76141" lon="3.8637">
        <ele>98.67</ele>
        <time>2012-06-24T07:40:23Z</time>
      </trkpt>
      <trkpt lat="43.7615" lon="3.8637">
        <ele>98.67</ele>
        <time>2012-06-24T07:40:24Z</time>
      </trkpt>
      <trkpt lat="43.7616" lon="3.86367">
        <ele>98.19</ele>
        <time>2012-06-24T07:40:25Z</time>
      </trkpt>
      <trkpt lat="43.76171" lon="3.86365">
        <ele>98.19</ele>
        <time>2012-06-24T07:40:26Z</time>
      </trkpt>
      <trkpt lat="43.76183" lon="3.86369">
        <ele>98.19</ele>
        <time>2012-06-24T07:40:27Z</time>
      </trkpt>
      <trkpt lat="43.76196" lon="3.86376">
        <ele>98.19</ele>
        <time>2012-06-24T07:40:28Z</time>
      </trkpt>
      <trkpt lat="43.76365" lon="3.86488">
        <ele>100.11</ele>
        <time>2012-06-24T07:40:42Z</time>
      </trkpt>
      <trkpt lat="43.76459" lon="3.86551">
        <ele>101.56</ele>
        <time>2012-06-24T07:40:52Z</time>
      </trkpt>
      <trkpt lat="43.76566" lon="3.86623">
        <ele>103.96</ele>
        <time>2012-06-24T07:41:05Z</time>
      </trkpt>
      <trkpt lat="43.76582" lon="3.86638">
        <ele>103.96</ele>
        <time>2012-06-24T07:41:09Z</time>
      </trkpt>
      <trkpt lat="43.76591" lon="3.86648">
        <ele>104.44</ele>
        <time>2012-06-24T07:41:11Z</time>
      </trkpt>
      <trkpt lat="43.76598" lon="3.86651">
        <ele>104.44</ele>
        <time>2012-06-24T07:41:12Z</time>
      </trkpt>
      <trkpt lat="43.76612" lon="3.86656">
        <ele>104.92</ele>
        <time>2012-06-24T07:41:14Z</time>
      </trkpt>
      <trkpt lat="43.76619" lon="3.8666">
        <ele>104.92</ele>
        <time>2012-06-24T07:41:15Z</time>
      </trkpt>
      <trkpt lat="43.76684" lon="3.86703">
        <ele>106.36</ele>
        <time>2012-06-24T07:41:24Z</time>
      </trkpt>
      <trkpt lat="43.76766" lon="3.86735">
        <ele>107.81</ele>
        <time>2012-06-24T07:41:39Z</time>
      </trkpt>
      <trkpt lat="43.76845" lon="3.86764">
        <ele>107.32</ele>
        <time>2012-06-24T07:41:55Z</time>
      </trkpt>
      <trkpt lat="43.76873" lon="3.8677">
        <ele>106.36</ele>
        <time>2012-06-24T07:42:04Z</time>
      </trkpt>
      <trkpt lat="43.76878" lon="3.86772">
        <ele>106.36</ele>
        <time>2012-06-24T07:42:05Z</time>
      </trkpt>
      <trkpt lat="43.76885" lon="3.86775">
        <ele>106.36</ele>
        <time>2012-06-24T07:42:06Z</time>
      </trkpt>
      <trkpt lat="43.76958" lon="3.86804">
        <ele>104.92</ele>
        <time>2012-06-24T07:42:19Z</time>
      </trkpt>
      <trkpt lat="43.76972" lon="3.8681">
        <ele>104.44</ele>
        <time>2012-06-24T07:42:27Z</time>
      </trkpt>
      <trkpt lat="43.76984" lon="3.86813">
        <ele>105.4</ele>
        <time>2012-06-24T07:42:37Z</time>
      </trkpt>
      <trkpt lat="43.77056" lon="3.86841">
        <ele>106.36</ele>
        <time>2012-06-24T07:42:46Z</time>
      </trkpt>
      <trkpt lat="43.77182" lon="3.86887">
        <ele>108.29</ele>
        <time>2012-06-24T07:42:56Z</time>
      </trkpt>
      <trkpt lat="43.7731" lon="3.86934">
        <ele>112.13</ele>
        <time>2012-06-24T07:43:07Z</time>
      </trkpt>
      <trkpt lat="43.77378" lon="3.86954">
        <ele>114.53</ele>
        <time>2012-06-24T07:43:14Z</time>
      </trkpt>
      <trkpt lat="43.77386" lon="3.86959">
        <ele>115.01</ele>
        <time>2012-06-24T07:43:15Z</time>
      </trkpt>
      <trkpt lat="43.77392" lon="3.86966">
        <ele>115.01</ele>
        <time>2012-06-24T07:43:16Z</time>
      </trkpt>
      <trkpt lat="43.77397" lon="3.86977">
        <ele>115.5</ele>
        <time>2012-06-24T07:43:17Z</time>
      </trkpt>
      <trkpt lat="43.77399" lon="3.8699">
        <ele>115.5</ele>
        <time>2012-06-24T07:43:18Z</time>
      </trkpt>
      <trkpt lat="43.77403" lon="3.87004">
        <ele>115.98</ele>
        <time>2012-06-24T07:43:19Z</time>
      </trkpt>
      <trkpt lat="43.77408" lon="3.87017">
        <ele>115.98</ele>
        <time>2012-06-24T07:43:20Z</time>
      </trkpt>
      <trkpt lat="43.77414" lon="3.87031">
        <ele>115.5</ele>
        <time>2012-06-24T07:43:21Z</time>
      </trkpt>
      <trkpt lat="43.77418" lon="3.87046">
        <ele>115.5</ele>
        <time>2012-06-24T07:43:22Z</time>
      </trkpt>
      <trkpt lat="43.77419" lon="3.87063">
        <ele>115.5</ele>
        <time>2012-06-24T07:43:23Z</time>
      </trkpt>
      <trkpt lat="43.77418" lon="3.87083">
        <ele>115.5</ele>
        <time>2012-06-24T07:43:24Z</time>
      </trkpt>
      <trkpt lat="43.77416" lon="3.87103">
        <ele>115.01</ele>
        <time>2012-06-24T07:43:25Z</time>
      </trkpt>
      <trkpt lat="43.77398" lon="3.87327">
        <ele>113.57</ele>
        <time>2012-06-24T07:43:34Z</time>
      </trkpt>
      <trkpt lat="43.77373" lon="3.87571">
        <ele>115.5</ele>
        <time>2012-06-24T07:43:43Z</time>
      </trkpt>
      <trkpt lat="43.77367" lon="3.87745">
        <ele>116.94</ele>
        <time>2012-06-24T07:43:50Z</time>
      </trkpt>
      <trkpt lat="43.77372" lon="3.87774">
        <ele>117.42</ele>
        <time>2012-06-24T07:43:51Z</time>
      </trkpt>
      <trkpt lat="43.7742" lon="3.87979">
        <ele>119.82</ele>
        <time>2012-06-24T07:43:57Z</time>
      </trkpt>
      <trkpt lat="43.77537" lon="3.88412">
        <ele>125.59</ele>
        <time>2012-06-24T07:44:09Z</time>
      </trkpt>
      <trkpt lat="43.77703" lon="3.88934">
        <ele>127.03</ele>
        <time>2012-06-24T07:44:24Z</time>
      </trkpt>
      <trkpt lat="43.77772" lon="3.89483">
        <ele>121.74</ele>
        <time>2012-06-24T07:44:38Z</time>
      </trkpt>
      <trkpt lat="43.77883" lon="3.90365">
        <ele>114.53</ele>
        <time>2012-06-24T07:45:00Z</time>
      </trkpt>
      <trkpt lat="43.77938" lon="3.90744">
        <ele>114.05</ele>
        <time>2012-06-24T07:45:10Z</time>
      </trkpt>
      <trkpt lat="43.78013" lon="3.91149">
        <ele>113.57</ele>
        <time>2012-06-24T07:45:21Z</time>
      </trkpt>
      <trkpt lat="43.78007" lon="3.9154">
        <ele>112.13</ele>
        <time>2012-06-24T07:45:31Z</time>
      </trkpt>
      <trkpt lat="43.78021" lon="3.91914">
        <ele>115.98</ele>
        <time>2012-06-24T07:45:41Z</time>
      </trkpt>
      <trkpt lat="43.78028" lon="3.91948">
        <ele>116.46</ele>
        <time>2012-06-24T07:45:42Z</time>
      </trkpt>
      <trkpt lat="43.78036" lon="3.91981">
        <ele>116.94</ele>
        <time>2012-06-24T07:45:43Z</time>
      </trkpt>
      <trkpt lat="43.78046" lon="3.92011">
        <ele>117.42</ele>
        <time>2012-06-24T07:45:44Z</time>
      </trkpt>
      <trkpt lat="43.78079" lon="3.92185">
        <ele>119.82</ele>
        <time>2012-06-24T07:45:50Z</time>
      </trkpt>
      <trkpt lat="43.78069" lon="3.92441">
        <ele>122.22</ele>
        <time>2012-06-24T07:45:57Z</time>
      </trkpt>
      <trkpt lat="43.7807" lon="3.92822">
        <ele>118.38</ele>
        <time>2012-06-24T07:46:07Z</time>
      </trkpt>
      <trkpt lat="43.78083" lon="3.92922">
        <ele>117.42</ele>
        <time>2012-06-24T07:46:10Z</time>
      </trkpt>
      <trkpt lat="43.78091" lon="3.92951">
        <ele>116.94</ele>
        <time>2012-06-24T07:46:11Z</time>
      </trkpt>
      <trkpt lat="43.78099" lon="3.9298">
        <ele>116.46</ele>
        <time>2012-06-24T07:46:12Z</time>
      </trkpt>
      <trkpt lat="43.78104" lon="3.9301">
        <ele>115.98</ele>
        <time>2012-06-24T07:46:13Z</time>
      </trkpt>
      <trkpt lat="43.78106" lon="3.93043">
        <ele>115.5</ele>
        <time>2012-06-24T07:46:14Z</time>
      </trkpt>
      <trkpt lat="43.78106" lon="3.93078">
        <ele>115.01</ele>
        <time>2012-06-24T07:46:15Z</time>
      </trkpt>
      <trkpt lat="43.78106" lon="3.93112">
        <ele>114.53</ele>
        <time>2012-06-24T07:46:16Z</time>
      </trkpt>
      <trkpt lat="43.78101" lon="3.93175">
        <ele>113.57</ele>
        <time>2012-06-24T07:46:18Z</time>
      </trkpt>
      <trkpt lat="43.78092" lon="3.93202">
        <ele>113.57</ele>
        <time>2012-06-24T07:46:19Z</time>
      </trkpt>
      <trkpt lat="43.7808" lon="3.93225">
        <ele>113.09</ele>
        <time>2012-06-24T07:46:20Z</time>
      </trkpt>
      <trkpt lat="43.78063" lon="3.93247">
        <ele>112.61</ele>
        <time>2012-06-24T07:46:21Z</time>
      </trkpt>
      <trkpt lat="43.78044" lon="3.93266">
        <ele>112.61</ele>
        <time>2012-06-24T07:46:22Z</time>
      </trkpt>
      <trkpt lat="43.78023" lon="3.93285">
        <ele>113.57</ele>
        <time>2012-06-24T07:46:23Z</time>
      </trkpt>
      <trkpt lat="43.77923" lon="3.9336">
        <ele>116.46</ele>
        <time>2012-06-24T07:46:28Z</time>
      </trkpt>
      <trkpt lat="43.779" lon="3.93369">
        <ele>117.42</ele>
        <time>2012-06-24T07:46:29Z</time>
      </trkpt>
      <trkpt lat="43.77753" lon="3.93394">
        <ele>121.74</ele>
        <time>2012-06-24T07:46:35Z</time>
      </trkpt>
      <trkpt lat="43.7773" lon="3.93403">
        <ele>122.22</ele>
        <time>2012-06-24T07:46:36Z</time>
      </trkpt>
      <trkpt lat="43.77685" lon="3.93422">
        <ele>123.19</ele>
        <time>2012-06-24T07:46:38Z</time>
      </trkpt>
      <trkpt lat="43.77661" lon="3.93425">
        <ele>123.67</ele>
        <time>2012-06-24T07:46:39Z</time>
      </trkpt>
      <trkpt lat="43.77635" lon="3.93426">
        <ele>124.15</ele>
        <time>2012-06-24T07:46:40Z</time>
      </trkpt>
      <trkpt lat="43.77453" lon="3.93431">
        <ele>127.03</ele>
        <time>2012-06-24T07:46:46Z</time>
      </trkpt>
      <trkpt lat="43.77319" lon="3.9346">
        <ele>129.92</ele>
        <time>2012-06-24T07:46:51Z</time>
      </trkpt>
      <trkpt lat="43.77189" lon="3.93527">
        <ele>130.88</ele>
        <time>2012-06-24T07:46:57Z</time>
      </trkpt>
      <trkpt lat="43.77172" lon="3.93542">
        <ele>131.36</ele>
        <time>2012-06-24T07:46:58Z</time>
      </trkpt>
      <trkpt lat="43.77157" lon="3.93566">
        <ele>131.84</ele>
        <time>2012-06-24T07:46:59Z</time>
      </trkpt>
      <trkpt lat="43.77141" lon="3.93591">
        <ele>132.32</ele>
        <time>2012-06-24T07:47:00Z</time>
      </trkpt>
      <trkpt lat="43.77125" lon="3.93619">
        <ele>132.8</ele>
        <time>2012-06-24T07:47:01Z</time>
      </trkpt>
      <trkpt lat="43.77003" lon="3.93827">
        <ele>136.64</ele>
        <time>2012-06-24T07:47:08Z</time>
      </trkpt>
      <trkpt lat="43.76991" lon="3.93857">
        <ele>136.64</ele>
        <time>2012-06-24T07:47:09Z</time>
      </trkpt>
      <trkpt lat="43.76981" lon="3.9389">
        <ele>136.64</ele>
        <time>2012-06-24T07:47:10Z</time>
      </trkpt>
      <trkpt lat="43.76973" lon="3.93923">
        <ele>136.64</ele>
        <time>2012-06-24T07:47:11Z</time>
      </trkpt>
      <trkpt lat="43.76967" lon="3.93958">
        <ele>137.13</ele>
        <time>2012-06-24T07:47:12Z</time>
      </trkpt>
      <trkpt lat="43.76964" lon="3.93994">
        <ele>137.13</ele>
        <time>2012-06-24T07:47:13Z</time>
      </trkpt>
      <trkpt lat="43.76963" lon="3.9403">
        <ele>137.13</ele>
        <time>2012-06-24T07:47:14Z</time>
      </trkpt>
      <trkpt lat="43.76964" lon="3.94066">
        <ele>137.13</ele>
        <time>2012-06-24T07:47:15Z</time>
      </trkpt>
      <trkpt lat="43.76967" lon="3.94102">
        <ele>137.13</ele>
        <time>2012-06-24T07:47:16Z</time>
      </trkpt>
      <trkpt lat="43.76972" lon="3.94141">
        <ele>136.64</ele>
        <time>2012-06-24T07:47:17Z</time>
      </trkpt>
      <trkpt lat="43.76979" lon="3.94181">
        <ele>136.16</ele>
        <time>2012-06-24T07:47:18Z</time>
      </trkpt>
      <trkpt lat="43.77024" lon="3.94438">
        <ele>134.72</ele>
        <time>2012-06-24T07:47:25Z</time>
      </trkpt>
      <trkpt lat="43.77044" lon="3.94556">
        <ele>133.76</ele>
        <time>2012-06-24T07:47:30Z</time>
      </trkpt>
      <trkpt lat="43.7705" lon="3.94608">
        <ele>133.76</ele>
        <time>2012-06-24T07:47:33Z</time>
      </trkpt>
      <trkpt lat="43.77054" lon="3.94625">
        <ele>133.28</ele>
        <time>2012-06-24T07:47:34Z</time>
      </trkpt>
      <trkpt lat="43.77059" lon="3.94644">
        <ele>133.28</ele>
        <time>2012-06-24T07:47:35Z</time>
      </trkpt>
      <trkpt lat="43.77062" lon="3.94666">
        <ele>132.8</ele>
        <time>2012-06-24T07:47:36Z</time>
      </trkpt>
      <trkpt lat="43.77063" lon="3.94688">
        <ele>132.8</ele>
        <time>2012-06-24T07:47:37Z</time>
      </trkpt>
      <trkpt lat="43.77063" lon="3.94711">
        <ele>132.8</ele>
        <time>2012-06-24T07:47:38Z</time>
      </trkpt>
      <trkpt lat="43.77061" lon="3.94732">
        <ele>132.8</ele>
        <time>2012-06-24T07:47:39Z</time>
      </trkpt>
      <trkpt lat="43.77057" lon="3.94753">
        <ele>132.32</ele>
        <time>2012-06-24T07:47:40Z</time>
      </trkpt>
      <trkpt lat="43.77052" lon="3.94773">
        <ele>131.84</ele>
        <time>2012-06-24T07:47:41Z</time>
      </trkpt>
      <trkpt lat="43.77046" lon="3.94792">
        <ele>131.36</ele>
        <time>2012-06-24T07:47:42Z</time>
      </trkpt>
      <trkpt lat="43.77039" lon="3.94811">
        <ele>131.36</ele>
        <time>2012-06-24T07:47:43Z</time>
      </trkpt>
      <trkpt lat="43.77006" lon="3.94883">
        <ele>130.4</ele>
        <time>2012-06-24T07:47:47Z</time>
      </trkpt>
      <trkpt lat="43.77" lon="3.94902">
        <ele>129.92</ele>
        <time>2012-06-24T07:47:48Z</time>
      </trkpt>
      <trkpt lat="43.76996" lon="3.94922">
        <ele>129.43</ele>
        <time>2012-06-24T07:47:49Z</time>
      </trkpt>
      <trkpt lat="43.76978" lon="3.94989">
        <ele>127.51</ele>
        <time>2012-06-24T07:47:53Z</time>
      </trkpt>
      <trkpt lat="43.76973" lon="3.94997">
        <ele>127.03</ele>
        <time>2012-06-24T07:47:54Z</time>
      </trkpt>
      <trkpt lat="43.76969" lon="3.95003">
        <ele>126.55</ele>
        <time>2012-06-24T07:47:55Z</time>
      </trkpt>
      <trkpt lat="43.76968" lon="3.95011">
        <ele>125.59</ele>
        <time>2012-06-24T07:47:56Z</time>
      </trkpt>
      <trkpt lat="43.76969" lon="3.95021">
        <ele>125.59</ele>
        <time>2012-06-24T07:47:57Z</time>
      </trkpt>
      <trkpt lat="43.76972" lon="3.95031">
        <ele>125.59</ele>
        <time>2012-06-24T07:47:58Z</time>
      </trkpt>
      <trkpt lat="43.76973" lon="3.95042">
        <ele>124.63</ele>
        <time>2012-06-24T07:47:59Z</time>
      </trkpt>
      <trkpt lat="43.76972" lon="3.95054">
        <ele>124.63</ele>
        <time>2012-06-24T07:48:00Z</time>
      </trkpt>
      <trkpt lat="43.7697" lon="3.95066">
        <ele>124.15</ele>
        <time>2012-06-24T07:48:01Z</time>
      </trkpt>
      <trkpt lat="43.76967" lon="3.9508">
        <ele>123.19</ele>
        <time>2012-06-24T07:48:02Z</time>
      </trkpt>
      <trkpt lat="43.7695" lon="3.95197">
        <ele>119.34</ele>
        <time>2012-06-24T07:48:13Z</time>
      </trkpt>
      <trkpt lat="43.76944" lon="3.95279">
        <ele>118.38</ele>
        <time>2012-06-24T07:48:20Z</time>
      </trkpt>
      <trkpt lat="43.76937" lon="3.95392">
        <ele>116.46</ele>
        <time>2012-06-24T07:48:30Z</time>
      </trkpt>
      <trkpt lat="43.76936" lon="3.95447">
        <ele>115.98</ele>
        <time>2012-06-24T07:48:37Z</time>
      </trkpt>
      <trkpt lat="43.76937" lon="3.95456">
        <ele>115.98</ele>
        <time>2012-06-24T07:48:38Z</time>
      </trkpt>
      <trkpt lat="43.7694" lon="3.95466">
        <ele>115.98</ele>
        <time>2012-06-24T07:48:39Z</time>
      </trkpt>
      <trkpt lat="43.76969" lon="3.95584">
        <ele>115.98</ele>
        <time>2012-06-24T07:48:49Z</time>
      </trkpt>
      <trkpt lat="43.77004" lon="3.95692">
        <ele>117.9</ele>
        <time>2012-06-24T07:49:01Z</time>
      </trkpt>
      <trkpt lat="43.77046" lon="3.95794">
        <ele>119.82</ele>
        <time>2012-06-24T07:49:11Z</time>
      </trkpt>
      <trkpt lat="43.77054" lon="3.95826">
        <ele>119.34</ele>
        <time>2012-06-24T07:49:14Z</time>
      </trkpt>
      <trkpt lat="43.77054" lon="3.95838">
        <ele>118.86</ele>
        <time>2012-06-24T07:49:15Z</time>
      </trkpt>
      <trkpt lat="43.77053" lon="3.95849">
        <ele>118.38</ele>
        <time>2012-06-24T07:49:16Z</time>
      </trkpt>
      <trkpt lat="43.77051" lon="3.9586">
        <ele>117.9</ele>
        <time>2012-06-24T07:49:17Z</time>
      </trkpt>
      <trkpt lat="43.77049" lon="3.95868">
        <ele>117.9</ele>
        <time>2012-06-24T07:49:18Z</time>
      </trkpt>
      <trkpt lat="43.77047" lon="3.95873">
        <ele>117.9</ele>
        <time>2012-06-24T07:49:19Z</time>
      </trkpt>
      <trkpt lat="43.77041" lon="3.95892">
        <ele>115.98</ele>
        <time>2012-06-24T07:49:26Z</time>
      </trkpt>
      <trkpt lat="43.77022" lon="3.95987">
        <ele>110.69</ele>
        <time>2012-06-24T07:49:35Z</time>
      </trkpt>
      <trkpt lat="43.77007" lon="3.96065">
        <ele>104.92</ele>
        <time>2012-06-24T07:49:41Z</time>
      </trkpt>
      <trkpt lat="43.76969" lon="3.9626">
        <ele>98.19</ele>
        <time>2012-06-24T07:49:49Z</time>
      </trkpt>
      <trkpt lat="43.76911" lon="3.96493">
        <ele>93.39</ele>
        <time>2012-06-24T07:49:56Z</time>
      </trkpt>
      <trkpt lat="43.76889" lon="3.96776">
        <ele>89.54</ele>
        <time>2012-06-24T07:50:04Z</time>
      </trkpt>
      <trkpt lat="43.76855" lon="3.97076">
        <ele>88.1</ele>
        <time>2012-06-24T07:50:13Z</time>
      </trkpt>
      <trkpt lat="43.76801" lon="3.9735">
        <ele>85.21</ele>
        <time>2012-06-24T07:50:21Z</time>
      </trkpt>
      <trkpt lat="43.76758" lon="3.97835">
        <ele>79.45</ele>
        <time>2012-06-24T07:50:34Z</time>
      </trkpt>
      <trkpt lat="43.76785" lon="3.98124">
        <ele>76.56</ele>
        <time>2012-06-24T07:50:42Z</time>
      </trkpt>
      <trkpt lat="43.76797" lon="3.98459">
        <ele>74.64</ele>
        <time>2012-06-24T07:50:51Z</time>
      </trkpt>
      <trkpt lat="43.76775" lon="3.98667">
        <ele>77.52</ele>
        <time>2012-06-24T07:50:57Z</time>
      </trkpt>
      <trkpt lat="43.76777" lon="3.98702">
        <ele>78</ele>
        <time>2012-06-24T07:50:58Z</time>
      </trkpt>
      <trkpt lat="43.76781" lon="3.98737">
        <ele>78.97</ele>
        <time>2012-06-24T07:50:59Z</time>
      </trkpt>
      <trkpt lat="43.76808" lon="3.98909">
        <ele>82.81</ele>
        <time>2012-06-24T07:51:04Z</time>
      </trkpt>
      <trkpt lat="43.76857" lon="3.99136">
        <ele>88.1</ele>
        <time>2012-06-24T07:51:11Z</time>
      </trkpt>
      <trkpt lat="43.7689" lon="3.99363">
        <ele>86.18</ele>
        <time>2012-06-24T07:51:18Z</time>
      </trkpt>
      <trkpt lat="43.76928" lon="3.99577">
        <ele>82.33</ele>
        <time>2012-06-24T07:51:25Z</time>
      </trkpt>
      <trkpt lat="43.76935" lon="3.99658">
        <ele>79.45</ele>
        <time>2012-06-24T07:51:28Z</time>
      </trkpt>
      <trkpt lat="43.76939" lon="3.99682">
        <ele>78.97</ele>
        <time>2012-06-24T07:51:29Z</time>
      </trkpt>
      <trkpt lat="43.76979" lon="3.99875">
        <ele>69.83</ele>
        <time>2012-06-24T07:51:38Z</time>
      </trkpt>
      <trkpt lat="43.76979" lon="3.99897">
        <ele>68.87</ele>
        <time>2012-06-24T07:51:39Z</time>
      </trkpt>
      <trkpt lat="43.76973" lon="4.0009">
        <ele>68.39</ele>
        <time>2012-06-24T07:51:47Z</time>
      </trkpt>
      <trkpt lat="43.76976" lon="4.00113">
        <ele>68.87</ele>
        <time>2012-06-24T07:51:48Z</time>
      </trkpt>
      <trkpt lat="43.76981" lon="4.00134">
        <ele>69.35</ele>
        <time>2012-06-24T07:51:49Z</time>
      </trkpt>
      <trkpt lat="43.76988" lon="4.00153">
        <ele>70.31</ele>
        <time>2012-06-24T07:51:50Z</time>
      </trkpt>
      <trkpt lat="43.76994" lon="4.00171">
        <ele>71.27</ele>
        <time>2012-06-24T07:51:51Z</time>
      </trkpt>
      <trkpt lat="43.76999" lon="4.00188">
        <ele>71.76</ele>
        <time>2012-06-24T07:51:52Z</time>
      </trkpt>
      <trkpt lat="43.77003" lon="4.00205">
        <ele>72.24</ele>
        <time>2012-06-24T07:51:53Z</time>
      </trkpt>
      <trkpt lat="43.77004" lon="4.00221">
        <ele>72.72</ele>
        <time>2012-06-24T07:51:54Z</time>
      </trkpt>
      <trkpt lat="43.77003" lon="4.00236">
        <ele>73.2</ele>
        <time>2012-06-24T07:51:55Z</time>
      </trkpt>
      <trkpt lat="43.77" lon="4.00251">
        <ele>73.68</ele>
        <time>2012-06-24T07:51:56Z</time>
      </trkpt>
      <trkpt lat="43.76996" lon="4.00264">
        <ele>73.68</ele>
        <time>2012-06-24T07:51:57Z</time>
      </trkpt>
      <trkpt lat="43.7699" lon="4.00278">
        <ele>73.68</ele>
        <time>2012-06-24T07:51:58Z</time>
      </trkpt>
      <trkpt lat="43.76983" lon="4.0029">
        <ele>73.68</ele>
        <time>2012-06-24T07:51:59Z</time>
      </trkpt>
      <trkpt lat="43.76975" lon="4.00299">
        <ele>73.68</ele>
        <time>2012-06-24T07:52:00Z</time>
      </trkpt>
      <trkpt lat="43.76964" lon="4.00321">
        <ele>72.72</ele>
        <time>2012-06-24T07:52:02Z</time>
      </trkpt>
      <trkpt lat="43.76962" lon="4.00332">
        <ele>72.72</ele>
        <time>2012-06-24T07:52:03Z</time>
      </trkpt>
      <trkpt lat="43.76962" lon="4.0034">
        <ele>72.24</ele>
        <time>2012-06-24T07:52:04Z</time>
      </trkpt>
      <trkpt lat="43.76962" lon="4.00346">
        <ele>72.24</ele>
        <time>2012-06-24T07:52:05Z</time>
      </trkpt>
      <trkpt lat="43.76962" lon="4.00351">
        <ele>71.76</ele>
        <time>2012-06-24T07:52:06Z</time>
      </trkpt>
      <trkpt lat="43.76963" lon="4.00356">
        <ele>71.27</ele>
        <time>2012-06-24T07:52:07Z</time>
      </trkpt>
      <trkpt lat="43.76964" lon="4.00362">
        <ele>71.27</ele>
        <time>2012-06-24T07:52:08Z</time>
      </trkpt>
      <trkpt lat="43.76966" lon="4.00368">
        <ele>71.27</ele>
        <time>2012-06-24T07:52:09Z</time>
      </trkpt>
      <trkpt lat="43.76968" lon="4.00375">
        <ele>71.27</ele>
        <time>2012-06-24T07:52:10Z</time>
      </trkpt>
      <trkpt lat="43.76972" lon="4.00382">
        <ele>70.79</ele>
        <time>2012-06-24T07:52:11Z</time>
      </trkpt>
      <trkpt lat="43.76979" lon="4.00388">
        <ele>71.27</ele>
        <time>2012-06-24T07:52:12Z</time>
      </trkpt>
      <trkpt lat="43.76982" lon="4.00394">
        <ele>70.79</ele>
        <time>2012-06-24T07:52:13Z</time>
      </trkpt>
      <trkpt lat="43.76985" lon="4.00398">
        <ele>70.31</ele>
        <time>2012-06-24T07:52:14Z</time>
      </trkpt>
      <trkpt lat="43.76988" lon="4.00401">
        <ele>70.31</ele>
        <time>2012-06-24T07:52:15Z</time>
      </trkpt>
      <trkpt lat="43.77022" lon="4.00434">
        <ele>68.87</ele>
        <time>2012-06-24T07:52:22Z</time>
      </trkpt>
      <trkpt lat="43.77027" lon="4.00441">
        <ele>68.87</ele>
        <time>2012-06-24T07:52:23Z</time>
      </trkpt>
      <trkpt lat="43.7703" lon="4.0045">
        <ele>68.39</ele>
        <time>2012-06-24T07:52:24Z</time>
      </trkpt>
      <trkpt lat="43.77033" lon="4.00459">
        <ele>68.39</ele>
        <time>2012-06-24T07:52:25Z</time>
      </trkpt>
      <trkpt lat="43.77035" lon="4.0047">
        <ele>68.39</ele>
        <time>2012-06-24T07:52:26Z</time>
      </trkpt>
      <trkpt lat="43.77055" lon="4.00534">
        <ele>66.95</ele>
        <time>2012-06-24T07:52:33Z</time>
      </trkpt>
      <trkpt lat="43.77099" lon="4.00601">
        <ele>66.47</ele>
        <time>2012-06-24T07:52:44Z</time>
      </trkpt>
      <trkpt lat="43.77116" lon="4.00615">
        <ele>65.99</ele>
        <time>2012-06-24T07:52:47Z</time>
      </trkpt>
      <trkpt lat="43.77204" lon="4.00666">
        <ele>65.51</ele>
        <time>2012-06-24T07:53:00Z</time>
      </trkpt>
      <trkpt lat="43.77213" lon="4.00672">
        <ele>65.51</ele>
        <time>2012-06-24T07:53:01Z</time>
      </trkpt>
      <trkpt lat="43.77223" lon="4.00681">
        <ele>65.03</ele>
        <time>2012-06-24T07:53:02Z</time>
      </trkpt>
      <trkpt lat="43.77231" lon="4.00692">
        <ele>65.03</ele>
        <time>2012-06-24T07:53:03Z</time>
      </trkpt>
      <trkpt lat="43.77238" lon="4.00706">
        <ele>64.55</ele>
        <time>2012-06-24T07:53:04Z</time>
      </trkpt>
      <trkpt lat="43.77242" lon="4.00722">
        <ele>64.55</ele>
        <time>2012-06-24T07:53:05Z</time>
      </trkpt>
      <trkpt lat="43.77243" lon="4.00739">
        <ele>64.07</ele>
        <time>2012-06-24T07:53:06Z</time>
      </trkpt>
      <trkpt lat="43.77242" lon="4.00757">
        <ele>63.58</ele>
        <time>2012-06-24T07:53:07Z</time>
      </trkpt>
      <trkpt lat="43.77239" lon="4.00775">
        <ele>63.58</ele>
        <time>2012-06-24T07:53:08Z</time>
      </trkpt>
      <trkpt lat="43.77234" lon="4.00793">
        <ele>63.1</ele>
        <time>2012-06-24T07:53:09Z</time>
      </trkpt>
      <trkpt lat="43.77229" lon="4.00812">
        <ele>63.1</ele>
        <time>2012-06-24T07:53:10Z</time>
      </trkpt>
      <trkpt lat="43.77168" lon="4.01038">
        <ele>60.22</ele>
        <time>2012-06-24T07:53:21Z</time>
      </trkpt>
      <trkpt lat="43.77121" lon="4.01207">
        <ele>60.22</ele>
        <time>2012-06-24T07:53:30Z</time>
      </trkpt>
      <trkpt lat="43.7704" lon="4.01512">
        <ele>58.3</ele>
        <time>2012-06-24T07:53:46Z</time>
      </trkpt>
      <trkpt lat="43.76984" lon="4.0177">
        <ele>55.41</ele>
        <time>2012-06-24T07:54:00Z</time>
      </trkpt>
      <trkpt lat="43.76995" lon="4.01904">
        <ele>54.93</ele>
        <time>2012-06-24T07:54:08Z</time>
      </trkpt>
      <trkpt lat="43.77008" lon="4.01975">
        <ele>55.89</ele>
        <time>2012-06-24T07:54:16Z</time>
      </trkpt>
      <trkpt lat="43.77016" lon="4.02022">
        <ele>54.45</ele>
        <time>2012-06-24T07:54:21Z</time>
      </trkpt>
      <trkpt lat="43.77033" lon="4.02086">
        <ele>55.89</ele>
        <time>2012-06-24T07:54:28Z</time>
      </trkpt>
      <trkpt lat="43.77068" lon="4.02149">
        <ele>60.22</ele>
        <time>2012-06-24T07:54:37Z</time>
      </trkpt>
      <trkpt lat="43.7714" lon="4.02247">
        <ele>59.74</ele>
        <time>2012-06-24T07:54:48Z</time>
      </trkpt>
      <trkpt lat="43.77164" lon="4.02288">
        <ele>58.78</ele>
        <time>2012-06-24T07:54:52Z</time>
      </trkpt>
      <trkpt lat="43.77167" lon="4.023">
        <ele>58.78</ele>
        <time>2012-06-24T07:54:53Z</time>
      </trkpt>
      <trkpt lat="43.77169" lon="4.02315">
        <ele>58.3</ele>
        <time>2012-06-24T07:54:54Z</time>
      </trkpt>
      <trkpt lat="43.77186" lon="4.02462">
        <ele>56.86</ele>
        <time>2012-06-24T07:55:03Z</time>
      </trkpt>
      <trkpt lat="43.77211" lon="4.02653">
        <ele>53.49</ele>
        <time>2012-06-24T07:55:14Z</time>
      </trkpt>
      <trkpt lat="43.77234" lon="4.02818">
        <ele>50.61</ele>
        <time>2012-06-24T07:55:21Z</time>
      </trkpt>
      <trkpt lat="43.77274" lon="4.03108">
        <ele>48.2</ele>
        <time>2012-06-24T07:55:30Z</time>
      </trkpt>
      <trkpt lat="43.77334" lon="4.03412">
        <ele>48.2</ele>
        <time>2012-06-24T07:55:40Z</time>
      </trkpt>
      <trkpt lat="43.77366" lon="4.0351">
        <ele>47.72</ele>
        <time>2012-06-24T07:55:44Z</time>
      </trkpt>
      <trkpt lat="43.77378" lon="4.03531">
        <ele>48.2</ele>
        <time>2012-06-24T07:55:45Z</time>
      </trkpt>
      <trkpt lat="43.77395" lon="4.03548">
        <ele>48.68</ele>
        <time>2012-06-24T07:55:46Z</time>
      </trkpt>
      <trkpt lat="43.77414" lon="4.03566">
        <ele>49.16</ele>
        <time>2012-06-24T07:55:47Z</time>
      </trkpt>
      <trkpt lat="43.77435" lon="4.03583">
        <ele>49.65</ele>
        <time>2012-06-24T07:55:48Z</time>
      </trkpt>
      <trkpt lat="43.77456" lon="4.03601">
        <ele>50.13</ele>
        <time>2012-06-24T07:55:49Z</time>
      </trkpt>
      <trkpt lat="43.77586" lon="4.03728">
        <ele>51.57</ele>
        <time>2012-06-24T07:55:56Z</time>
      </trkpt>
      <trkpt lat="43.77683" lon="4.03898">
        <ele>48.2</ele>
        <time>2012-06-24T07:56:02Z</time>
      </trkpt>
      <trkpt lat="43.77826" lon="4.04202">
        <ele>49.16</ele>
        <time>2012-06-24T07:56:12Z</time>
      </trkpt>
      <trkpt lat="43.77966" lon="4.04424">
        <ele>51.09</ele>
        <time>2012-06-24T07:56:21Z</time>
      </trkpt>
      <trkpt lat="43.78032" lon="4.04581">
        <ele>52.53</ele>
        <time>2012-06-24T07:56:28Z</time>
      </trkpt>
      <trkpt lat="43.78042" lon="4.0463">
        <ele>53.01</ele>
        <time>2012-06-24T07:56:30Z</time>
      </trkpt>
      <trkpt lat="43.78076" lon="4.04812">
        <ele>54.93</ele>
        <time>2012-06-24T07:56:37Z</time>
      </trkpt>
      <trkpt lat="43.7808" lon="4.04836">
        <ele>55.41</ele>
        <time>2012-06-24T07:56:38Z</time>
      </trkpt>
      <trkpt lat="43.78082" lon="4.04862">
        <ele>55.41</ele>
        <time>2012-06-24T07:56:39Z</time>
      </trkpt>
      <trkpt lat="43.78081" lon="4.0489">
        <ele>55.89</ele>
        <time>2012-06-24T07:56:40Z</time>
      </trkpt>
      <trkpt lat="43.78053" lon="4.05203">
        <ele>53.49</ele>
        <time>2012-06-24T07:56:50Z</time>
      </trkpt>
      <trkpt lat="43.78016" lon="4.0552">
        <ele>52.53</ele>
        <time>2012-06-24T07:57:00Z</time>
      </trkpt>
      <trkpt lat="43.77924" lon="4.05849">
        <ele>53.49</ele>
        <time>2012-06-24T07:57:11Z</time>
      </trkpt>
      <trkpt lat="43.77913" lon="4.059">
        <ele>53.01</ele>
        <time>2012-06-24T07:57:13Z</time>
      </trkpt>
      <trkpt lat="43.77911" lon="4.05927">
        <ele>52.53</ele>
        <time>2012-06-24T07:57:14Z</time>
      </trkpt>
      <trkpt lat="43.77911" lon="4.05954">
        <ele>52.53</ele>
        <time>2012-06-24T07:57:15Z</time>
      </trkpt>
      <trkpt lat="43.77911" lon="4.06004">
        <ele>52.05</ele>
        <time>2012-06-24T07:57:17Z</time>
      </trkpt>
      <trkpt lat="43.77906" lon="4.0603">
        <ele>51.57</ele>
        <time>2012-06-24T07:57:18Z</time>
      </trkpt>
      <trkpt lat="43.77896" lon="4.06055">
        <ele>51.09</ele>
        <time>2012-06-24T07:57:19Z</time>
      </trkpt>
      <trkpt lat="43.77881" lon="4.06081">
        <ele>51.57</ele>
        <time>2012-06-24T07:57:20Z</time>
      </trkpt>
      <trkpt lat="43.77865" lon="4.06106">
        <ele>51.57</ele>
        <time>2012-06-24T07:57:21Z</time>
      </trkpt>
      <trkpt lat="43.77849" lon="4.06129">
        <ele>51.57</ele>
        <time>2012-06-24T07:57:22Z</time>
      </trkpt>
      <trkpt lat="43.77797" lon="4.06217">
        <ele>53.01</ele>
        <time>2012-06-24T07:57:26Z</time>
      </trkpt>
      <trkpt lat="43.77791" lon="4.06242">
        <ele>53.49</ele>
        <time>2012-06-24T07:57:27Z</time>
      </trkpt>
      <trkpt lat="43.77787" lon="4.0627">
        <ele>54.45</ele>
        <time>2012-06-24T07:57:28Z</time>
      </trkpt>
      <trkpt lat="43.7777" lon="4.06373">
        <ele>57.82</ele>
        <time>2012-06-24T07:57:32Z</time>
      </trkpt>
      <trkpt lat="43.7776" lon="4.06394">
        <ele>59.26</ele>
        <time>2012-06-24T07:57:33Z</time>
      </trkpt>
      <trkpt lat="43.77749" lon="4.06416">
        <ele>60.22</ele>
        <time>2012-06-24T07:57:34Z</time>
      </trkpt>
      <trkpt lat="43.77739" lon="4.06439">
        <ele>60.7</ele>
        <time>2012-06-24T07:57:35Z</time>
      </trkpt>
      <trkpt lat="43.77729" lon="4.06464">
        <ele>61.66</ele>
        <time>2012-06-24T07:57:36Z</time>
      </trkpt>
      <trkpt lat="43.77722" lon="4.06493">
        <ele>62.14</ele>
        <time>2012-06-24T07:57:37Z</time>
      </trkpt>
      <trkpt lat="43.77715" lon="4.06521">
        <ele>62.62</ele>
        <time>2012-06-24T07:57:38Z</time>
      </trkpt>
      <trkpt lat="43.77695" lon="4.06614">
        <ele>64.07</ele>
        <time>2012-06-24T07:57:42Z</time>
      </trkpt>
      <trkpt lat="43.77696" lon="4.06638">
        <ele>64.07</ele>
        <time>2012-06-24T07:57:43Z</time>
      </trkpt>
      <trkpt lat="43.77698" lon="4.06665">
        <ele>64.07</ele>
        <time>2012-06-24T07:57:44Z</time>
      </trkpt>
      <trkpt lat="43.77713" lon="4.06877">
        <ele>58.3</ele>
        <time>2012-06-24T07:57:50Z</time>
      </trkpt>
      <trkpt lat="43.77743" lon="4.07279">
        <ele>45.32</ele>
        <time>2012-06-24T07:58:01Z</time>
      </trkpt>
      <trkpt lat="43.77739" lon="4.07363">
        <ele>43.4</ele>
        <time>2012-06-24T07:58:04Z</time>
      </trkpt>
      <trkpt lat="43.77733" lon="4.07391">
        <ele>42.44</ele>
        <time>2012-06-24T07:58:05Z</time>
      </trkpt>
      <trkpt lat="43.77712" lon="4.0749">
        <ele>40.51</ele>
        <time>2012-06-24T07:58:09Z</time>
      </trkpt>
      <trkpt lat="43.77711" lon="4.07513">
        <ele>40.51</ele>
        <time>2012-06-24T07:58:10Z</time>
      </trkpt>
      <trkpt lat="43.77712" lon="4.07535">
        <ele>40.03</ele>
        <time>2012-06-24T07:58:11Z</time>
      </trkpt>
      <trkpt lat="43.77715" lon="4.07556">
        <ele>40.03</ele>
        <time>2012-06-24T07:58:12Z</time>
      </trkpt>
      <trkpt lat="43.77719" lon="4.07576">
        <ele>39.55</ele>
        <time>2012-06-24T07:58:13Z</time>
      </trkpt>
      <trkpt lat="43.77727" lon="4.07593">
        <ele>38.59</ele>
        <time>2012-06-24T07:58:14Z</time>
      </trkpt>
      <trkpt lat="43.77741" lon="4.07609">
        <ele>38.59</ele>
        <time>2012-06-24T07:58:15Z</time>
      </trkpt>
      <trkpt lat="43.77756" lon="4.07624">
        <ele>38.59</ele>
        <time>2012-06-24T07:58:16Z</time>
      </trkpt>
      <trkpt lat="43.77772" lon="4.07638">
        <ele>38.11</ele>
        <time>2012-06-24T07:58:17Z</time>
      </trkpt>
      <trkpt lat="43.77787" lon="4.07654">
        <ele>38.11</ele>
        <time>2012-06-24T07:58:18Z</time>
      </trkpt>
      <trkpt lat="43.77846" lon="4.07722">
        <ele>37.15</ele>
        <time>2012-06-24T07:58:23Z</time>
      </trkpt>
      <trkpt lat="43.77854" lon="4.07737">
        <ele>37.15</ele>
        <time>2012-06-24T07:58:24Z</time>
      </trkpt>
      <trkpt lat="43.7786" lon="4.07755">
        <ele>36.67</ele>
        <time>2012-06-24T07:58:25Z</time>
      </trkpt>
      <trkpt lat="43.77864" lon="4.07775">
        <ele>36.67</ele>
        <time>2012-06-24T07:58:26Z</time>
      </trkpt>
      <trkpt lat="43.77867" lon="4.07794">
        <ele>36.67</ele>
        <time>2012-06-24T07:58:27Z</time>
      </trkpt>
      <trkpt lat="43.77876" lon="4.07832">
        <ele>36.19</ele>
        <time>2012-06-24T07:58:29Z</time>
      </trkpt>
      <trkpt lat="43.77883" lon="4.0785">
        <ele>35.71</ele>
        <time>2012-06-24T07:58:30Z</time>
      </trkpt>
      <trkpt lat="43.77892" lon="4.07867">
        <ele>35.71</ele>
        <time>2012-06-24T07:58:31Z</time>
      </trkpt>
      <trkpt lat="43.77952" lon="4.07963">
        <ele>34.74</ele>
        <time>2012-06-24T07:58:38Z</time>
      </trkpt>
      <trkpt lat="43.77963" lon="4.07985">
        <ele>34.74</ele>
        <time>2012-06-24T07:58:40Z</time>
      </trkpt>
      <trkpt lat="43.7797" lon="4.07995">
        <ele>34.74</ele>
        <time>2012-06-24T07:58:41Z</time>
      </trkpt>
      <trkpt lat="43.78058" lon="4.08122">
        <ele>33.78</ele>
        <time>2012-06-24T07:58:52Z</time>
      </trkpt>
      <trkpt lat="43.78088" lon="4.08168">
        <ele>33.78</ele>
        <time>2012-06-24T07:58:57Z</time>
      </trkpt>
      <trkpt lat="43.78093" lon="4.08179">
        <ele>33.78</ele>
        <time>2012-06-24T07:58:58Z</time>
      </trkpt>
      <trkpt lat="43.78102" lon="4.08203">
        <ele>33.78</ele>
        <time>2012-06-24T07:59:00Z</time>
      </trkpt>
      <trkpt lat="43.78105" lon="4.08214">
        <ele>33.78</ele>
        <time>2012-06-24T07:59:01Z</time>
      </trkpt>
      <trkpt lat="43.78107" lon="4.08227">
        <ele>33.3</ele>
        <time>2012-06-24T07:59:02Z</time>
      </trkpt>
      <trkpt lat="43.78108" lon="4.08241">
        <ele>33.3</ele>
        <time>2012-06-24T07:59:03Z</time>
      </trkpt>
      <trkpt lat="43.78109" lon="4.08255">
        <ele>33.3</ele>
        <time>2012-06-24T07:59:04Z</time>
      </trkpt>
      <trkpt lat="43.7811" lon="4.08316">
        <ele>32.82</ele>
        <time>2012-06-24T07:59:10Z</time>
      </trkpt>
      <trkpt lat="43.78119" lon="4.08402">
        <ele>33.78</ele>
        <time>2012-06-24T07:59:16Z</time>
      </trkpt>
      <trkpt lat="43.78128" lon="4.08478">
        <ele>33.78</ele>
        <time>2012-06-24T07:59:22Z</time>
      </trkpt>
      <trkpt lat="43.78138" lon="4.08575">
        <ele>33.78</ele>
        <time>2012-06-24T07:59:30Z</time>
      </trkpt>
      <trkpt lat="43.78144" lon="4.08614">
        <ele>33.3</ele>
        <time>2012-06-24T07:59:35Z</time>
      </trkpt>
      <trkpt lat="43.78147" lon="4.08622">
        <ele>33.3</ele>
        <time>2012-06-24T07:59:36Z</time>
      </trkpt>
      <trkpt lat="43.78152" lon="4.08628">
        <ele>32.82</ele>
        <time>2012-06-24T07:59:37Z</time>
      </trkpt>
      <trkpt lat="43.78158" lon="4.08631">
        <ele>33.3</ele>
        <time>2012-06-24T07:59:38Z</time>
      </trkpt>
      <trkpt lat="43.78165" lon="4.08634">
        <ele>32.82</ele>
        <time>2012-06-24T07:59:39Z</time>
      </trkpt>
      <trkpt lat="43.78172" lon="4.08636">
        <ele>32.82</ele>
        <time>2012-06-24T07:59:40Z</time>
      </trkpt>
      <trkpt lat="43.78179" lon="4.08638">
        <ele>32.82</ele>
        <time>2012-06-24T07:59:41Z</time>
      </trkpt>
      <trkpt lat="43.78185" lon="4.08642">
        <ele>32.82</ele>
        <time>2012-06-24T07:59:42Z</time>
      </trkpt>
      <trkpt lat="43.78191" lon="4.08646">
        <ele>32.34</ele>
        <time>2012-06-24T07:59:43Z</time>
      </trkpt>
      <trkpt lat="43.78194" lon="4.08651">
        <ele>32.34</ele>
        <time>2012-06-24T07:59:44Z</time>
      </trkpt>
      <trkpt lat="43.78196" lon="4.08656">
        <ele>31.86</ele>
        <time>2012-06-24T07:59:45Z</time>
      </trkpt>
      <trkpt lat="43.78196" lon="4.08661">
        <ele>31.38</ele>
        <time>2012-06-24T07:59:46Z</time>
      </trkpt>
      <trkpt lat="43.78195" lon="4.08666">
        <ele>31.38</ele>
        <time>2012-06-24T07:59:47Z</time>
      </trkpt>
      <trkpt lat="43.78192" lon="4.08671">
        <ele>31.38</ele>
        <time>2012-06-24T07:59:48Z</time>
      </trkpt>
      <trkpt lat="43.78189" lon="4.08675">
        <ele>31.38</ele>
        <time>2012-06-24T07:59:49Z</time>
      </trkpt>
      <trkpt lat="43.78186" lon="4.0868">
        <ele>31.38</ele>
        <time>2012-06-24T07:59:50Z</time>
      </trkpt>
      <trkpt lat="43.78184" lon="4.08685">
        <ele>31.38</ele>
        <time>2012-06-24T07:59:51Z</time>
      </trkpt>
      <trkpt lat="43.78183" lon="4.08691">
        <ele>30.9</ele>
        <time>2012-06-24T07:59:52Z</time>
      </trkpt>
      <trkpt lat="43.78184" lon="4.08697">
        <ele>30.9</ele>
        <time>2012-06-24T07:59:53Z</time>
      </trkpt>
      <trkpt lat="43.78186" lon="4.08703">
        <ele>30.9</ele>
        <time>2012-06-24T07:59:54Z</time>
      </trkpt>
      <trkpt lat="43.78189" lon="4.08709">
        <ele>30.9</ele>
        <time>2012-06-24T07:59:55Z</time>
      </trkpt>
      <trkpt lat="43.78194" lon="4.08714">
        <ele>30.9</ele>
        <time>2012-06-24T07:59:56Z</time>
      </trkpt>
      <trkpt lat="43.78199" lon="4.08717">
        <ele>30.9</ele>
        <time>2012-06-24T07:59:57Z</time>
      </trkpt>
      <trkpt lat="43.78205" lon="4.08719">
        <ele>30.9</ele>
        <time>2012-06-24T07:59:58Z</time>
      </trkpt>
      <trkpt lat="43.78211" lon="4.08718">
        <ele>30.9</ele>
        <time>2012-06-24T07:59:59Z</time>
      </trkpt>
      <trkpt lat="43.78216" lon="4.08715">
        <ele>30.42</ele>
        <time>2012-06-24T08:00:00Z</time>
      </trkpt>
      <trkpt lat="43.78219" lon="4.08709">
        <ele>30.42</ele>
        <time>2012-06-24T08:00:01Z</time>
      </trkpt>
      <trkpt lat="43.7822" lon="4.08701">
        <ele>30.42</ele>
        <time>2012-06-24T08:00:02Z</time>
      </trkpt>
      <trkpt lat="43.78219" lon="4.08693">
        <ele>30.42</ele>
        <time>2012-06-24T08:00:03Z</time>
      </trkpt>
      <trkpt lat="43.78215" lon="4.08687">
        <ele>29.94</ele>
        <time>2012-06-24T08:00:04Z</time>
      </trkpt>
      <trkpt lat="43.78211" lon="4.08681">
        <ele>29.94</ele>
        <time>2012-06-24T08:00:05Z</time>
      </trkpt>
      <trkpt lat="43.78206" lon="4.08676">
        <ele>29.94</ele>
        <time>2012-06-24T08:00:06Z</time>
      </trkpt>
      <trkpt lat="43.782" lon="4.08673">
        <ele>29.94</ele>
        <time>2012-06-24T08:00:07Z</time>
      </trkpt>
      <trkpt lat="43.78194" lon="4.08672">
        <ele>29.94</ele>
        <time>2012-06-24T08:00:08Z</time>
      </trkpt>
      <trkpt lat="43.78188" lon="4.08673">
        <ele>29.94</ele>
        <time>2012-06-24T08:00:09Z</time>
      </trkpt>
      <trkpt lat="43.78184" lon="4.08676">
        <ele>29.94</ele>
        <time>2012-06-24T08:00:10Z</time>
      </trkpt>
      <trkpt lat="43.78181" lon="4.0868">
        <ele>29.94</ele>
        <time>2012-06-24T08:00:11Z</time>
      </trkpt>
      <trkpt lat="43.7818" lon="4.08685">
        <ele>29.94</ele>
        <time>2012-06-24T08:00:12Z</time>
      </trkpt>
      <trkpt lat="43.7818" lon="4.08688">
        <ele>29.46</ele>
        <time>2012-06-24T08:00:13Z</time>
      </trkpt>
      <trkpt lat="43.78185" lon="4.08711">
        <ele>29.94</ele>
        <time>2012-06-24T08:00:22Z</time>
      </trkpt>
      <trkpt lat="43.78185" lon="4.08718">
        <ele>29.94</ele>
        <time>2012-06-24T08:00:37Z</time>
      </trkpt>
      <trkpt lat="43.78183" lon="4.0872">
        <ele>29.94</ele>
        <time>2012-06-24T08:00:38Z</time>
      </trkpt>
      <trkpt lat="43.7818" lon="4.08721">
        <ele>29.94</ele>
        <time>2012-06-24T08:00:39Z</time>
      </trkpt>
      <trkpt lat="43.78178" lon="4.0872">
        <ele>29.94</ele>
        <time>2012-06-24T08:00:40Z</time>
      </trkpt>
      <trkpt lat="43.78175" lon="4.08719">
        <ele>30.42</ele>
        <time>2012-06-24T08:00:41Z</time>
      </trkpt>
      <trkpt lat="43.78173" lon="4.08719">
        <ele>30.42</ele>
        <time>2012-06-24T08:00:42Z</time>
      </trkpt>
      <trkpt lat="43.78171" lon="4.08721">
        <ele>30.42</ele>
        <time>2012-06-24T08:00:43Z</time>
      </trkpt>
      <trkpt lat="43.7817" lon="4.08723">
        <ele>30.42</ele>
        <time>2012-06-24T08:00:44Z</time>
      </trkpt>
      <trkpt lat="43.78172" lon="4.08724">
        <ele>31.38</ele>
        <time>2012-06-24T08:00:58Z</time>
      </trkpt>
      <trkpt lat="43.78172" lon="4.08725">
        <ele>33.3</ele>
        <time>2012-06-24T08:01:04Z</time>
      </trkpt>
      <trkpt lat="43.78176" lon="4.08725">
        <ele>28.98</ele>
        <time>2012-06-24T08:29:29Z</time>
      </trkpt>
      <trkpt lat="43.78181" lon="4.08722">
        <ele>28.02</ele>
        <time>2012-06-24T08:29:33Z</time>
      </trkpt>
      <trkpt lat="43.78187" lon="4.08712">
        <ele>28.5</ele>
        <time>2012-06-24T08:29:45Z</time>
      </trkpt>
      <trkpt lat="43.78187" lon="4.08712">
        <ele>28.98</ele>
        <time>2012-06-24T08:29:52Z</time>
      </trkpt>
      <trkpt lat="43.78196" lon="4.08712">
        <ele>29.46</ele>
        <time>2012-06-24T08:29:55Z</time>
      </trkpt>
      <trkpt lat="43.78201" lon="4.08714">
        <ele>28.98</ele>
        <time>2012-06-24T08:29:56Z</time>
      </trkpt>
      <trkpt lat="43.78208" lon="4.08715">
        <ele>29.46</ele>
        <time>2012-06-24T08:29:57Z</time>
      </trkpt>
      <trkpt lat="43.78215" lon="4.08716">
        <ele>29.46</ele>
        <time>2012-06-24T08:29:58Z</time>
      </trkpt>
      <trkpt lat="43.78222" lon="4.08718">
        <ele>29.46</ele>
        <time>2012-06-24T08:29:59Z</time>
      </trkpt>
      <trkpt lat="43.7823" lon="4.08721">
        <ele>29.46</ele>
        <time>2012-06-24T08:30:00Z</time>
      </trkpt>
      <trkpt lat="43.78247" lon="4.08728">
        <ele>28.98</ele>
        <time>2012-06-24T08:30:02Z</time>
      </trkpt>
      <trkpt lat="43.78256" lon="4.08728">
        <ele>28.98</ele>
        <time>2012-06-24T08:30:03Z</time>
      </trkpt>
      <trkpt lat="43.78265" lon="4.08725">
        <ele>28.98</ele>
        <time>2012-06-24T08:30:04Z</time>
      </trkpt>
      <trkpt lat="43.78274" lon="4.08721">
        <ele>28.5</ele>
        <time>2012-06-24T08:30:05Z</time>
      </trkpt>
      <trkpt lat="43.78283" lon="4.08716">
        <ele>28.5</ele>
        <time>2012-06-24T08:30:06Z</time>
      </trkpt>
      <trkpt lat="43.78368" lon="4.08645">
        <ele>28.5</ele>
        <time>2012-06-24T08:30:15Z</time>
      </trkpt>
      <trkpt lat="43.7848" lon="4.08521">
        <ele>28.98</ele>
        <time>2012-06-24T08:30:27Z</time>
      </trkpt>
      <trkpt lat="43.78508" lon="4.0849">
        <ele>29.46</ele>
        <time>2012-06-24T08:30:33Z</time>
      </trkpt>
      <trkpt lat="43.7853" lon="4.08471">
        <ele>30.42</ele>
        <time>2012-06-24T08:30:42Z</time>
      </trkpt>
      <trkpt lat="43.78536" lon="4.08468">
        <ele>30.42</ele>
        <time>2012-06-24T08:30:43Z</time>
      </trkpt>
      <trkpt lat="43.78548" lon="4.08462">
        <ele>30.42</ele>
        <time>2012-06-24T08:30:45Z</time>
      </trkpt>
      <trkpt lat="43.78553" lon="4.08456">
        <ele>30.42</ele>
        <time>2012-06-24T08:30:46Z</time>
      </trkpt>
      <trkpt lat="43.78557" lon="4.0845">
        <ele>30.42</ele>
        <time>2012-06-24T08:30:47Z</time>
      </trkpt>
      <trkpt lat="43.78559" lon="4.08445">
        <ele>30.42</ele>
        <time>2012-06-24T08:30:48Z</time>
      </trkpt>
      <trkpt lat="43.78563" lon="4.08439">
        <ele>30.42</ele>
        <time>2012-06-24T08:30:49Z</time>
      </trkpt>
      <trkpt lat="43.78567" lon="4.08434">
        <ele>30.42</ele>
        <time>2012-06-24T08:30:50Z</time>
      </trkpt>
      <trkpt lat="43.78573" lon="4.0843">
        <ele>30.42</ele>
        <time>2012-06-24T08:30:51Z</time>
      </trkpt>
      <trkpt lat="43.78579" lon="4.08426">
        <ele>30.42</ele>
        <time>2012-06-24T08:30:52Z</time>
      </trkpt>
      <trkpt lat="43.78641" lon="4.08397">
        <ele>30.9</ele>
        <time>2012-06-24T08:31:04Z</time>
      </trkpt>
      <trkpt lat="43.78682" lon="4.08374">
        <ele>31.38</ele>
        <time>2012-06-24T08:31:15Z</time>
      </trkpt>
      <trkpt lat="43.78743" lon="4.08326">
        <ele>30.42</ele>
        <time>2012-06-24T08:31:24Z</time>
      </trkpt>
      <trkpt lat="43.78812" lon="4.08269">
        <ele>31.86</ele>
        <time>2012-06-24T08:31:38Z</time>
      </trkpt>
      <trkpt lat="43.78856" lon="4.08235">
        <ele>33.78</ele>
        <time>2012-06-24T08:31:47Z</time>
      </trkpt>
      <trkpt lat="43.78871" lon="4.08229">
        <ele>34.26</ele>
        <time>2012-06-24T08:31:49Z</time>
      </trkpt>
      <trkpt lat="43.7888" lon="4.08228">
        <ele>34.26</ele>
        <time>2012-06-24T08:31:50Z</time>
      </trkpt>
      <trkpt lat="43.78889" lon="4.08231">
        <ele>34.74</ele>
        <time>2012-06-24T08:31:51Z</time>
      </trkpt>
      <trkpt lat="43.78898" lon="4.08233">
        <ele>34.74</ele>
        <time>2012-06-24T08:31:52Z</time>
      </trkpt>
      <trkpt lat="43.78908" lon="4.0823">
        <ele>35.23</ele>
        <time>2012-06-24T08:31:53Z</time>
      </trkpt>
      <trkpt lat="43.78916" lon="4.08224">
        <ele>35.23</ele>
        <time>2012-06-24T08:31:54Z</time>
      </trkpt>
      <trkpt lat="43.78922" lon="4.08213">
        <ele>35.71</ele>
        <time>2012-06-24T08:31:55Z</time>
      </trkpt>
      <trkpt lat="43.78926" lon="4.08201">
        <ele>35.23</ele>
        <time>2012-06-24T08:31:56Z</time>
      </trkpt>
      <trkpt lat="43.78933" lon="4.08189">
        <ele>35.23</ele>
        <time>2012-06-24T08:31:57Z</time>
      </trkpt>
      <trkpt lat="43.78943" lon="4.08178">
        <ele>34.74</ele>
        <time>2012-06-24T08:31:58Z</time>
      </trkpt>
      <trkpt lat="43.78958" lon="4.08169">
        <ele>35.23</ele>
        <time>2012-06-24T08:31:59Z</time>
      </trkpt>
      <trkpt lat="43.78972" lon="4.08155">
        <ele>34.74</ele>
        <time>2012-06-24T08:32:00Z</time>
      </trkpt>
      <trkpt lat="43.78988" lon="4.08139">
        <ele>34.74</ele>
        <time>2012-06-24T08:32:01Z</time>
      </trkpt>
      <trkpt lat="43.79005" lon="4.08117">
        <ele>34.74</ele>
        <time>2012-06-24T08:32:02Z</time>
      </trkpt>
      <trkpt lat="43.79022" lon="4.08092">
        <ele>34.74</ele>
        <time>2012-06-24T08:32:03Z</time>
      </trkpt>
      <trkpt lat="43.79161" lon="4.07854">
        <ele>35.23</ele>
        <time>2012-06-24T08:32:11Z</time>
      </trkpt>
      <trkpt lat="43.79271" lon="4.07735">
        <ele>36.19</ele>
        <time>2012-06-24T08:32:17Z</time>
      </trkpt>
      <trkpt lat="43.79324" lon="4.07685">
        <ele>36.19</ele>
        <time>2012-06-24T08:32:20Z</time>
      </trkpt>
      <trkpt lat="43.79419" lon="4.07536">
        <ele>35.71</ele>
        <time>2012-06-24T08:32:26Z</time>
      </trkpt>
      <trkpt lat="43.79461" lon="4.0742">
        <ele>35.71</ele>
        <time>2012-06-24T08:32:31Z</time>
      </trkpt>
      <trkpt lat="43.79473" lon="4.07402">
        <ele>35.71</ele>
        <time>2012-06-24T08:32:32Z</time>
      </trkpt>
      <trkpt lat="43.79488" lon="4.07387">
        <ele>35.71</ele>
        <time>2012-06-24T08:32:33Z</time>
      </trkpt>
      <trkpt lat="43.79505" lon="4.07378">
        <ele>35.23</ele>
        <time>2012-06-24T08:32:34Z</time>
      </trkpt>
      <trkpt lat="43.79524" lon="4.07376">
        <ele>35.23</ele>
        <time>2012-06-24T08:32:35Z</time>
      </trkpt>
      <trkpt lat="43.79543" lon="4.07379">
        <ele>35.71</ele>
        <time>2012-06-24T08:32:36Z</time>
      </trkpt>
      <trkpt lat="43.79562" lon="4.07386">
        <ele>35.23</ele>
        <time>2012-06-24T08:32:37Z</time>
      </trkpt>
      <trkpt lat="43.7958" lon="4.07392">
        <ele>35.23</ele>
        <time>2012-06-24T08:32:38Z</time>
      </trkpt>
      <trkpt lat="43.79599" lon="4.07399">
        <ele>35.23</ele>
        <time>2012-06-24T08:32:39Z</time>
      </trkpt>
      <trkpt lat="43.79692" lon="4.07428">
        <ele>33.3</ele>
        <time>2012-06-24T08:32:44Z</time>
      </trkpt>
      <trkpt lat="43.7971" lon="4.07428">
        <ele>33.3</ele>
        <time>2012-06-24T08:32:45Z</time>
      </trkpt>
      <trkpt lat="43.79728" lon="4.07425">
        <ele>32.82</ele>
        <time>2012-06-24T08:32:46Z</time>
      </trkpt>
      <trkpt lat="43.79747" lon="4.07419">
        <ele>32.82</ele>
        <time>2012-06-24T08:32:47Z</time>
      </trkpt>
      <trkpt lat="43.79766" lon="4.07412">
        <ele>32.82</ele>
        <time>2012-06-24T08:32:48Z</time>
      </trkpt>
      <trkpt lat="43.79924" lon="4.07333">
        <ele>32.82</ele>
        <time>2012-06-24T08:32:55Z</time>
      </trkpt>
      <trkpt lat="43.79953" lon="4.07325">
        <ele>32.82</ele>
        <time>2012-06-24T08:32:56Z</time>
      </trkpt>
      <trkpt lat="43.79982" lon="4.07321">
        <ele>33.3</ele>
        <time>2012-06-24T08:32:57Z</time>
      </trkpt>
      <trkpt lat="43.80157" lon="4.07287">
        <ele>35.71</ele>
        <time>2012-06-24T08:33:04Z</time>
      </trkpt>
      <trkpt lat="43.80255" lon="4.07253">
        <ele>36.67</ele>
        <time>2012-06-24T08:33:10Z</time>
      </trkpt>
      <trkpt lat="43.80266" lon="4.07251">
        <ele>36.19</ele>
        <time>2012-06-24T08:33:11Z</time>
      </trkpt>
      <trkpt lat="43.80273" lon="4.07245">
        <ele>36.19</ele>
        <time>2012-06-24T08:33:12Z</time>
      </trkpt>
      <trkpt lat="43.80277" lon="4.07234">
        <ele>36.19</ele>
        <time>2012-06-24T08:33:13Z</time>
      </trkpt>
      <trkpt lat="43.80279" lon="4.07216">
        <ele>36.19</ele>
        <time>2012-06-24T08:33:14Z</time>
      </trkpt>
      <trkpt lat="43.80282" lon="4.07194">
        <ele>36.19</ele>
        <time>2012-06-24T08:33:15Z</time>
      </trkpt>
      <trkpt lat="43.80289" lon="4.07169">
        <ele>36.67</ele>
        <time>2012-06-24T08:33:16Z</time>
      </trkpt>
      <trkpt lat="43.80297" lon="4.07143">
        <ele>37.15</ele>
        <time>2012-06-24T08:33:17Z</time>
      </trkpt>
      <trkpt lat="43.80363" lon="4.06995">
        <ele>40.03</ele>
        <time>2012-06-24T08:33:22Z</time>
      </trkpt>
      <trkpt lat="43.8046" lon="4.06848">
        <ele>40.99</ele>
        <time>2012-06-24T08:33:28Z</time>
      </trkpt>
      <trkpt lat="43.8059" lon="4.06748">
        <ele>40.99</ele>
        <time>2012-06-24T08:33:35Z</time>
      </trkpt>
      <trkpt lat="43.80702" lon="4.06659">
        <ele>40.99</ele>
        <time>2012-06-24T08:33:40Z</time>
      </trkpt>
      <trkpt lat="43.80814" lon="4.06499">
        <ele>40.99</ele>
        <time>2012-06-24T08:33:46Z</time>
      </trkpt>
      <trkpt lat="43.80983" lon="4.06209">
        <ele>44.36</ele>
        <time>2012-06-24T08:33:56Z</time>
      </trkpt>
      <trkpt lat="43.81099" lon="4.06105">
        <ele>46.76</ele>
        <time>2012-06-24T08:34:01Z</time>
      </trkpt>
      <trkpt lat="43.81207" lon="4.06055">
        <ele>51.09</ele>
        <time>2012-06-24T08:34:06Z</time>
      </trkpt>
      <trkpt lat="43.81295" lon="4.06038">
        <ele>54.93</ele>
        <time>2012-06-24T08:34:11Z</time>
      </trkpt>
      <trkpt lat="43.81309" lon="4.0604">
        <ele>55.41</ele>
        <time>2012-06-24T08:34:12Z</time>
      </trkpt>
      <trkpt lat="43.81321" lon="4.06043">
        <ele>55.89</ele>
        <time>2012-06-24T08:34:13Z</time>
      </trkpt>
      <trkpt lat="43.81332" lon="4.06044">
        <ele>56.37</ele>
        <time>2012-06-24T08:34:14Z</time>
      </trkpt>
      <trkpt lat="43.81342" lon="4.06037">
        <ele>56.86</ele>
        <time>2012-06-24T08:34:15Z</time>
      </trkpt>
      <trkpt lat="43.81354" lon="4.06026">
        <ele>56.86</ele>
        <time>2012-06-24T08:34:16Z</time>
      </trkpt>
      <trkpt lat="43.81369" lon="4.06013">
        <ele>57.82</ele>
        <time>2012-06-24T08:34:17Z</time>
      </trkpt>
      <trkpt lat="43.81388" lon="4.06001">
        <ele>58.78</ele>
        <time>2012-06-24T08:34:18Z</time>
      </trkpt>
      <trkpt lat="43.81409" lon="4.05989">
        <ele>59.74</ele>
        <time>2012-06-24T08:34:19Z</time>
      </trkpt>
      <trkpt lat="43.81432" lon="4.05977">
        <ele>60.7</ele>
        <time>2012-06-24T08:34:20Z</time>
      </trkpt>
      <trkpt lat="43.81586" lon="4.0585">
        <ele>71.27</ele>
        <time>2012-06-24T08:34:27Z</time>
      </trkpt>
      <trkpt lat="43.81711" lon="4.05709">
        <ele>79.93</ele>
        <time>2012-06-24T08:34:34Z</time>
      </trkpt>
      <trkpt lat="43.81778" lon="4.05631">
        <ele>87.14</ele>
        <time>2012-06-24T08:34:41Z</time>
      </trkpt>
      <trkpt lat="43.81818" lon="4.05575">
        <ele>90.98</ele>
        <time>2012-06-24T08:34:46Z</time>
      </trkpt>
      <trkpt lat="43.81825" lon="4.05561">
        <ele>91.46</ele>
        <time>2012-06-24T08:34:47Z</time>
      </trkpt>
      <trkpt lat="43.8183" lon="4.05546">
        <ele>91.46</ele>
        <time>2012-06-24T08:34:48Z</time>
      </trkpt>
      <trkpt lat="43.81836" lon="4.05529">
        <ele>91.94</ele>
        <time>2012-06-24T08:34:49Z</time>
      </trkpt>
      <trkpt lat="43.8184" lon="4.05508">
        <ele>91.46</ele>
        <time>2012-06-24T08:34:50Z</time>
      </trkpt>
      <trkpt lat="43.81844" lon="4.05484">
        <ele>91.46</ele>
        <time>2012-06-24T08:34:51Z</time>
      </trkpt>
      <trkpt lat="43.81847" lon="4.05459">
        <ele>90.98</ele>
        <time>2012-06-24T08:34:52Z</time>
      </trkpt>
      <trkpt lat="43.81849" lon="4.05435">
        <ele>90.98</ele>
        <time>2012-06-24T08:34:53Z</time>
      </trkpt>
      <trkpt lat="43.81856" lon="4.05352">
        <ele>90.02</ele>
        <time>2012-06-24T08:34:57Z</time>
      </trkpt>
      <trkpt lat="43.81859" lon="4.05336">
        <ele>89.54</ele>
        <time>2012-06-24T08:34:58Z</time>
      </trkpt>
      <trkpt lat="43.81864" lon="4.05321">
        <ele>88.58</ele>
        <time>2012-06-24T08:34:59Z</time>
      </trkpt>
      <trkpt lat="43.8187" lon="4.05307">
        <ele>88.1</ele>
        <time>2012-06-24T08:35:00Z</time>
      </trkpt>
      <trkpt lat="43.81877" lon="4.05295">
        <ele>87.14</ele>
        <time>2012-06-24T08:35:01Z</time>
      </trkpt>
      <trkpt lat="43.81885" lon="4.05283">
        <ele>86.18</ele>
        <time>2012-06-24T08:35:02Z</time>
      </trkpt>
      <trkpt lat="43.81895" lon="4.05271">
        <ele>85.21</ele>
        <time>2012-06-24T08:35:03Z</time>
      </trkpt>
      <trkpt lat="43.81905" lon="4.05261">
        <ele>84.25</ele>
        <time>2012-06-24T08:35:04Z</time>
      </trkpt>
      <trkpt lat="43.81918" lon="4.05253">
        <ele>82.81</ele>
        <time>2012-06-24T08:35:05Z</time>
      </trkpt>
      <trkpt lat="43.81932" lon="4.05246">
        <ele>81.85</ele>
        <time>2012-06-24T08:35:06Z</time>
      </trkpt>
      <trkpt lat="43.81946" lon="4.05241">
        <ele>80.89</ele>
        <time>2012-06-24T08:35:07Z</time>
      </trkpt>
      <trkpt lat="43.8196" lon="4.05237">
        <ele>79.93</ele>
        <time>2012-06-24T08:35:08Z</time>
      </trkpt>
      <trkpt lat="43.82079" lon="4.05201">
        <ele>76.08</ele>
        <time>2012-06-24T08:35:15Z</time>
      </trkpt>
      <trkpt lat="43.82203" lon="4.05182">
        <ele>72.24</ele>
        <time>2012-06-24T08:35:23Z</time>
      </trkpt>
      <trkpt lat="43.82313" lon="4.0518">
        <ele>70.31</ele>
        <time>2012-06-24T08:35:29Z</time>
      </trkpt>
      <trkpt lat="43.82403" lon="4.05184">
        <ele>72.24</ele>
        <time>2012-06-24T08:35:35Z</time>
      </trkpt>
      <trkpt lat="43.82416" lon="4.05182">
        <ele>72.72</ele>
        <time>2012-06-24T08:35:36Z</time>
      </trkpt>
      <trkpt lat="43.82428" lon="4.05177">
        <ele>72.72</ele>
        <time>2012-06-24T08:35:37Z</time>
      </trkpt>
      <trkpt lat="43.82439" lon="4.0517">
        <ele>72.72</ele>
        <time>2012-06-24T08:35:38Z</time>
      </trkpt>
      <trkpt lat="43.82449" lon="4.05162">
        <ele>72.72</ele>
        <time>2012-06-24T08:35:39Z</time>
      </trkpt>
      <trkpt lat="43.82458" lon="4.05152">
        <ele>72.24</ele>
        <time>2012-06-24T08:35:40Z</time>
      </trkpt>
      <trkpt lat="43.82466" lon="4.05141">
        <ele>71.27</ele>
        <time>2012-06-24T08:35:41Z</time>
      </trkpt>
      <trkpt lat="43.82547" lon="4.05021">
        <ele>64.07</ele>
        <time>2012-06-24T08:35:50Z</time>
      </trkpt>
      <trkpt lat="43.82602" lon="4.04896">
        <ele>59.26</ele>
        <time>2012-06-24T08:35:56Z</time>
      </trkpt>
      <trkpt lat="43.82675" lon="4.04767">
        <ele>55.89</ele>
        <time>2012-06-24T08:36:02Z</time>
      </trkpt>
      <trkpt lat="43.82748" lon="4.04658">
        <ele>51.57</ele>
        <time>2012-06-24T08:36:08Z</time>
      </trkpt>
      <trkpt lat="43.82757" lon="4.04634">
        <ele>51.09</ele>
        <time>2012-06-24T08:36:09Z</time>
      </trkpt>
      <trkpt lat="43.82765" lon="4.04606">
        <ele>50.61</ele>
        <time>2012-06-24T08:36:10Z</time>
      </trkpt>
      <trkpt lat="43.82823" lon="4.04431">
        <ele>47.72</ele>
        <time>2012-06-24T08:36:16Z</time>
      </trkpt>
      <trkpt lat="43.82838" lon="4.04408">
        <ele>47.24</ele>
        <time>2012-06-24T08:36:17Z</time>
      </trkpt>
      <trkpt lat="43.82854" lon="4.04385">
        <ele>47.72</ele>
        <time>2012-06-24T08:36:18Z</time>
      </trkpt>
      <trkpt lat="43.82989" lon="4.04216">
        <ele>51.57</ele>
        <time>2012-06-24T08:36:25Z</time>
      </trkpt>
      <trkpt lat="43.83171" lon="4.03999">
        <ele>55.89</ele>
        <time>2012-06-24T08:36:34Z</time>
      </trkpt>
      <trkpt lat="43.83189" lon="4.03975">
        <ele>55.89</ele>
        <time>2012-06-24T08:36:35Z</time>
      </trkpt>
      <trkpt lat="43.8321" lon="4.03953">
        <ele>55.89</ele>
        <time>2012-06-24T08:36:36Z</time>
      </trkpt>
      <trkpt lat="43.83234" lon="4.03933">
        <ele>55.89</ele>
        <time>2012-06-24T08:36:37Z</time>
      </trkpt>
      <trkpt lat="43.83324" lon="4.03859">
        <ele>57.82</ele>
        <time>2012-06-24T08:36:41Z</time>
      </trkpt>
      <trkpt lat="43.83343" lon="4.03837">
        <ele>58.3</ele>
        <time>2012-06-24T08:36:42Z</time>
      </trkpt>
      <trkpt lat="43.8336" lon="4.03811">
        <ele>58.78</ele>
        <time>2012-06-24T08:36:43Z</time>
      </trkpt>
      <trkpt lat="43.83377" lon="4.03783">
        <ele>59.26</ele>
        <time>2012-06-24T08:36:44Z</time>
      </trkpt>
      <trkpt lat="43.83392" lon="4.03753">
        <ele>59.74</ele>
        <time>2012-06-24T08:36:45Z</time>
      </trkpt>
      <trkpt lat="43.83407" lon="4.03722">
        <ele>60.22</ele>
        <time>2012-06-24T08:36:46Z</time>
      </trkpt>
      <trkpt lat="43.8357" lon="4.03426">
        <ele>69.83</ele>
        <time>2012-06-24T08:36:56Z</time>
      </trkpt>
      <trkpt lat="43.83682" lon="4.03234">
        <ele>75.6</ele>
        <time>2012-06-24T08:37:03Z</time>
      </trkpt>
      <trkpt lat="43.83702" lon="4.03212">
        <ele>76.08</ele>
        <time>2012-06-24T08:37:04Z</time>
      </trkpt>
      <trkpt lat="43.83722" lon="4.03191">
        <ele>77.04</ele>
        <time>2012-06-24T08:37:05Z</time>
      </trkpt>
      <trkpt lat="43.83945" lon="4.02971">
        <ele>86.66</ele>
        <time>2012-06-24T08:37:16Z</time>
      </trkpt>
      <trkpt lat="43.84006" lon="4.02917">
        <ele>90.98</ele>
        <time>2012-06-24T08:37:20Z</time>
      </trkpt>
      <trkpt lat="43.84026" lon="4.02911">
        <ele>91.94</ele>
        <time>2012-06-24T08:37:21Z</time>
      </trkpt>
      <trkpt lat="43.84046" lon="4.02907">
        <ele>92.9</ele>
        <time>2012-06-24T08:37:22Z</time>
      </trkpt>
      <trkpt lat="43.8421" lon="4.02873">
        <ele>103</ele>
        <time>2012-06-24T08:37:30Z</time>
      </trkpt>
      <trkpt lat="43.84227" lon="4.02866">
        <ele>103.96</ele>
        <time>2012-06-24T08:37:31Z</time>
      </trkpt>
      <trkpt lat="43.84241" lon="4.02855">
        <ele>104.92</ele>
        <time>2012-06-24T08:37:32Z</time>
      </trkpt>
      <trkpt lat="43.84254" lon="4.02842">
        <ele>105.88</ele>
        <time>2012-06-24T08:37:33Z</time>
      </trkpt>
      <trkpt lat="43.84265" lon="4.02827">
        <ele>106.84</ele>
        <time>2012-06-24T08:37:34Z</time>
      </trkpt>
      <trkpt lat="43.84271" lon="4.02806">
        <ele>107.81</ele>
        <time>2012-06-24T08:37:35Z</time>
      </trkpt>
      <trkpt lat="43.84273" lon="4.02784">
        <ele>108.77</ele>
        <time>2012-06-24T08:37:36Z</time>
      </trkpt>
      <trkpt lat="43.84273" lon="4.02759">
        <ele>109.73</ele>
        <time>2012-06-24T08:37:37Z</time>
      </trkpt>
      <trkpt lat="43.84267" lon="4.02727">
        <ele>111.17</ele>
        <time>2012-06-24T08:37:38Z</time>
      </trkpt>
      <trkpt lat="43.8426" lon="4.02696">
        <ele>112.13</ele>
        <time>2012-06-24T08:37:39Z</time>
      </trkpt>
      <trkpt lat="43.84251" lon="4.02663">
        <ele>113.57</ele>
        <time>2012-06-24T08:37:40Z</time>
      </trkpt>
      <trkpt lat="43.84239" lon="4.02633">
        <ele>113.09</ele>
        <time>2012-06-24T08:37:41Z</time>
      </trkpt>
      <trkpt lat="43.84214" lon="4.02544">
        <ele>115.01</ele>
        <time>2012-06-24T08:37:44Z</time>
      </trkpt>
      <trkpt lat="43.84212" lon="4.02514">
        <ele>115.5</ele>
        <time>2012-06-24T08:37:45Z</time>
      </trkpt>
      <trkpt lat="43.84214" lon="4.02485">
        <ele>116.46</ele>
        <time>2012-06-24T08:37:46Z</time>
      </trkpt>
      <trkpt lat="43.84218" lon="4.02458">
        <ele>116.94</ele>
        <time>2012-06-24T08:37:47Z</time>
      </trkpt>
      <trkpt lat="43.84223" lon="4.02434">
        <ele>118.38</ele>
        <time>2012-06-24T08:37:48Z</time>
      </trkpt>
      <trkpt lat="43.84227" lon="4.02411">
        <ele>119.34</ele>
        <time>2012-06-24T08:37:49Z</time>
      </trkpt>
      <trkpt lat="43.84226" lon="4.02388">
        <ele>119.82</ele>
        <time>2012-06-24T08:37:50Z</time>
      </trkpt>
      <trkpt lat="43.84222" lon="4.02365">
        <ele>120.78</ele>
        <time>2012-06-24T08:37:51Z</time>
      </trkpt>
      <trkpt lat="43.84216" lon="4.02345">
        <ele>120.3</ele>
        <time>2012-06-24T08:37:52Z</time>
      </trkpt>
      <trkpt lat="43.84209" lon="4.02327">
        <ele>118.86</ele>
        <time>2012-06-24T08:37:53Z</time>
      </trkpt>
      <trkpt lat="43.84205" lon="4.02309">
        <ele>118.38</ele>
        <time>2012-06-24T08:37:54Z</time>
      </trkpt>
      <trkpt lat="43.84206" lon="4.02292">
        <ele>118.38</ele>
        <time>2012-06-24T08:37:55Z</time>
      </trkpt>
      <trkpt lat="43.84212" lon="4.02275">
        <ele>117.9</ele>
        <time>2012-06-24T08:37:56Z</time>
      </trkpt>
      <trkpt lat="43.84225" lon="4.02261">
        <ele>116.94</ele>
        <time>2012-06-24T08:37:57Z</time>
      </trkpt>
      <trkpt lat="43.84242" lon="4.0225">
        <ele>117.42</ele>
        <time>2012-06-24T08:37:58Z</time>
      </trkpt>
      <trkpt lat="43.84261" lon="4.02238">
        <ele>117.42</ele>
        <time>2012-06-24T08:37:59Z</time>
      </trkpt>
      <trkpt lat="43.8428" lon="4.02225">
        <ele>116.46</ele>
        <time>2012-06-24T08:38:00Z</time>
      </trkpt>
      <trkpt lat="43.84298" lon="4.02213">
        <ele>115.5</ele>
        <time>2012-06-24T08:38:01Z</time>
      </trkpt>
      <trkpt lat="43.84315" lon="4.02201">
        <ele>115.01</ele>
        <time>2012-06-24T08:38:02Z</time>
      </trkpt>
      <trkpt lat="43.8433" lon="4.02186">
        <ele>114.05</ele>
        <time>2012-06-24T08:38:03Z</time>
      </trkpt>
      <trkpt lat="43.84343" lon="4.02168">
        <ele>113.09</ele>
        <time>2012-06-24T08:38:04Z</time>
      </trkpt>
      <trkpt lat="43.84367" lon="4.02135">
        <ele>111.65</ele>
        <time>2012-06-24T08:38:06Z</time>
      </trkpt>
      <trkpt lat="43.84379" lon="4.02125">
        <ele>111.17</ele>
        <time>2012-06-24T08:38:07Z</time>
      </trkpt>
      <trkpt lat="43.84396" lon="4.02119">
        <ele>110.21</ele>
        <time>2012-06-24T08:38:08Z</time>
      </trkpt>
      <trkpt lat="43.84416" lon="4.02117">
        <ele>109.73</ele>
        <time>2012-06-24T08:38:09Z</time>
      </trkpt>
      <trkpt lat="43.84437" lon="4.02115">
        <ele>109.25</ele>
        <time>2012-06-24T08:38:10Z</time>
      </trkpt>
      <trkpt lat="43.84462" lon="4.02114">
        <ele>108.29</ele>
        <time>2012-06-24T08:38:11Z</time>
      </trkpt>
      <trkpt lat="43.8449" lon="4.02113">
        <ele>106.84</ele>
        <time>2012-06-24T08:38:12Z</time>
      </trkpt>
      <trkpt lat="43.84519" lon="4.02108">
        <ele>104.92</ele>
        <time>2012-06-24T08:38:13Z</time>
      </trkpt>
      <trkpt lat="43.84548" lon="4.02098">
        <ele>103.48</ele>
        <time>2012-06-24T08:38:14Z</time>
      </trkpt>
      <trkpt lat="43.84744" lon="4.01991">
        <ele>99.63</ele>
        <time>2012-06-24T08:38:21Z</time>
      </trkpt>
      <trkpt lat="43.84947" lon="4.01886">
        <ele>97.71</ele>
        <time>2012-06-24T08:38:28Z</time>
      </trkpt>
      <trkpt lat="43.85304" lon="4.01739">
        <ele>92.42</ele>
        <time>2012-06-24T08:38:40Z</time>
      </trkpt>
      <trkpt lat="43.85561" lon="4.01701">
        <ele>90.5</ele>
        <time>2012-06-24T08:38:49Z</time>
      </trkpt>
      <trkpt lat="43.85795" lon="4.01696">
        <ele>88.58</ele>
        <time>2012-06-24T08:38:58Z</time>
      </trkpt>
      <trkpt lat="43.85905" lon="4.01705">
        <ele>88.58</ele>
        <time>2012-06-24T08:39:04Z</time>
      </trkpt>
      <trkpt lat="43.86028" lon="4.017">
        <ele>87.62</ele>
        <time>2012-06-24T08:39:12Z</time>
      </trkpt>
      <trkpt lat="43.86113" lon="4.01695">
        <ele>87.62</ele>
        <time>2012-06-24T08:39:16Z</time>
      </trkpt>
      <trkpt lat="43.86274" lon="4.01713">
        <ele>85.21</ele>
        <time>2012-06-24T08:39:22Z</time>
      </trkpt>
      <trkpt lat="43.8632" lon="4.01713">
        <ele>83.29</ele>
        <time>2012-06-24T08:39:24Z</time>
      </trkpt>
      <trkpt lat="43.8634" lon="4.01708">
        <ele>82.33</ele>
        <time>2012-06-24T08:39:25Z</time>
      </trkpt>
      <trkpt lat="43.86361" lon="4.01696">
        <ele>80.89</ele>
        <time>2012-06-24T08:39:26Z</time>
      </trkpt>
      <trkpt lat="43.86383" lon="4.01681">
        <ele>79.45</ele>
        <time>2012-06-24T08:39:27Z</time>
      </trkpt>
      <trkpt lat="43.86408" lon="4.01665">
        <ele>78</ele>
        <time>2012-06-24T08:39:28Z</time>
      </trkpt>
      <trkpt lat="43.86559" lon="4.01602">
        <ele>72.24</ele>
        <time>2012-06-24T08:39:33Z</time>
      </trkpt>
      <trkpt lat="43.86771" lon="4.01554">
        <ele>71.76</ele>
        <time>2012-06-24T08:39:40Z</time>
      </trkpt>
      <trkpt lat="43.86823" lon="4.01544">
        <ele>71.27</ele>
        <time>2012-06-24T08:39:42Z</time>
      </trkpt>
      <trkpt lat="43.86849" lon="4.01546">
        <ele>71.27</ele>
        <time>2012-06-24T08:39:43Z</time>
      </trkpt>
      <trkpt lat="43.86877" lon="4.0155">
        <ele>70.31</ele>
        <time>2012-06-24T08:39:44Z</time>
      </trkpt>
      <trkpt lat="43.8707" lon="4.01585">
        <ele>69.35</ele>
        <time>2012-06-24T08:39:51Z</time>
      </trkpt>
      <trkpt lat="43.8714" lon="4.01585">
        <ele>70.31</ele>
        <time>2012-06-24T08:39:54Z</time>
      </trkpt>
      <trkpt lat="43.87164" lon="4.01578">
        <ele>70.79</ele>
        <time>2012-06-24T08:39:55Z</time>
      </trkpt>
      <trkpt lat="43.87188" lon="4.01568">
        <ele>71.27</ele>
        <time>2012-06-24T08:39:56Z</time>
      </trkpt>
      <trkpt lat="43.87211" lon="4.0155">
        <ele>71.76</ele>
        <time>2012-06-24T08:39:57Z</time>
      </trkpt>
      <trkpt lat="43.87233" lon="4.0153">
        <ele>72.72</ele>
        <time>2012-06-24T08:39:58Z</time>
      </trkpt>
      <trkpt lat="43.87255" lon="4.01507">
        <ele>74.16</ele>
        <time>2012-06-24T08:39:59Z</time>
      </trkpt>
      <trkpt lat="43.87276" lon="4.01482">
        <ele>75.6</ele>
        <time>2012-06-24T08:40:00Z</time>
      </trkpt>
      <trkpt lat="43.87421" lon="4.01339">
        <ele>83.29</ele>
        <time>2012-06-24T08:40:07Z</time>
      </trkpt>
      <trkpt lat="43.87446" lon="4.01327">
        <ele>83.77</ele>
        <time>2012-06-24T08:40:08Z</time>
      </trkpt>
      <trkpt lat="43.87641" lon="4.01255">
        <ele>87.14</ele>
        <time>2012-06-24T08:40:16Z</time>
      </trkpt>
      <trkpt lat="43.87679" lon="4.01235">
        <ele>86.66</ele>
        <time>2012-06-24T08:40:18Z</time>
      </trkpt>
      <trkpt lat="43.87697" lon="4.01218">
        <ele>86.66</ele>
        <time>2012-06-24T08:40:19Z</time>
      </trkpt>
      <trkpt lat="43.87717" lon="4.01195">
        <ele>86.18</ele>
        <time>2012-06-24T08:40:20Z</time>
      </trkpt>
      <trkpt lat="43.87861" lon="4.01028">
        <ele>83.29</ele>
        <time>2012-06-24T08:40:27Z</time>
      </trkpt>
      <trkpt lat="43.88002" lon="4.00801">
        <ele>81.85</ele>
        <time>2012-06-24T08:40:35Z</time>
      </trkpt>
      <trkpt lat="43.88075" lon="4.00723">
        <ele>81.37</ele>
        <time>2012-06-24T08:40:39Z</time>
      </trkpt>
      <trkpt lat="43.88103" lon="4.00716">
        <ele>80.89</ele>
        <time>2012-06-24T08:40:40Z</time>
      </trkpt>
      <trkpt lat="43.88134" lon="4.00714">
        <ele>80.41</ele>
        <time>2012-06-24T08:40:41Z</time>
      </trkpt>
      <trkpt lat="43.88165" lon="4.00713">
        <ele>80.41</ele>
        <time>2012-06-24T08:40:42Z</time>
      </trkpt>
      <trkpt lat="43.88197" lon="4.00717">
        <ele>79.93</ele>
        <time>2012-06-24T08:40:43Z</time>
      </trkpt>
      <trkpt lat="43.88228" lon="4.00727">
        <ele>79.93</ele>
        <time>2012-06-24T08:40:44Z</time>
      </trkpt>
      <trkpt lat="43.88256" lon="4.00739">
        <ele>80.41</ele>
        <time>2012-06-24T08:40:45Z</time>
      </trkpt>
      <trkpt lat="43.88281" lon="4.00747">
        <ele>80.89</ele>
        <time>2012-06-24T08:40:46Z</time>
      </trkpt>
      <trkpt lat="43.88304" lon="4.00751">
        <ele>81.37</ele>
        <time>2012-06-24T08:40:47Z</time>
      </trkpt>
      <trkpt lat="43.88329" lon="4.00751">
        <ele>80.41</ele>
        <time>2012-06-24T08:40:48Z</time>
      </trkpt>
      <trkpt lat="43.88355" lon="4.00744">
        <ele>78.97</ele>
        <time>2012-06-24T08:40:49Z</time>
      </trkpt>
      <trkpt lat="43.88381" lon="4.00734">
        <ele>77.52</ele>
        <time>2012-06-24T08:40:50Z</time>
      </trkpt>
      <trkpt lat="43.88407" lon="4.00717">
        <ele>77.04</ele>
        <time>2012-06-24T08:40:51Z</time>
      </trkpt>
      <trkpt lat="43.88433" lon="4.00696">
        <ele>76.08</ele>
        <time>2012-06-24T08:40:52Z</time>
      </trkpt>
      <trkpt lat="43.8846" lon="4.00674">
        <ele>75.6</ele>
        <time>2012-06-24T08:40:53Z</time>
      </trkpt>
      <trkpt lat="43.8866" lon="4.00504">
        <ele>75.12</ele>
        <time>2012-06-24T08:41:00Z</time>
      </trkpt>
      <trkpt lat="43.88801" lon="4.00388">
        <ele>76.08</ele>
        <time>2012-06-24T08:41:06Z</time>
      </trkpt>
      <trkpt lat="43.88819" lon="4.00367">
        <ele>76.08</ele>
        <time>2012-06-24T08:41:07Z</time>
      </trkpt>
      <trkpt lat="43.88837" lon="4.00343">
        <ele>76.56</ele>
        <time>2012-06-24T08:41:08Z</time>
      </trkpt>
      <trkpt lat="43.88853" lon="4.00317">
        <ele>76.56</ele>
        <time>2012-06-24T08:41:09Z</time>
      </trkpt>
      <trkpt lat="43.88867" lon="4.00291">
        <ele>77.04</ele>
        <time>2012-06-24T08:41:10Z</time>
      </trkpt>
      <trkpt lat="43.88932" lon="4.00199">
        <ele>78</ele>
        <time>2012-06-24T08:41:14Z</time>
      </trkpt>
      <trkpt lat="43.8895" lon="4.00186">
        <ele>78.48</ele>
        <time>2012-06-24T08:41:15Z</time>
      </trkpt>
      <trkpt lat="43.8897" lon="4.00178">
        <ele>78.97</ele>
        <time>2012-06-24T08:41:16Z</time>
      </trkpt>
      <trkpt lat="43.88993" lon="4.00172">
        <ele>79.45</ele>
        <time>2012-06-24T08:41:17Z</time>
      </trkpt>
      <trkpt lat="43.89017" lon="4.00168">
        <ele>80.41</ele>
        <time>2012-06-24T08:41:18Z</time>
      </trkpt>
      <trkpt lat="43.89042" lon="4.00163">
        <ele>81.37</ele>
        <time>2012-06-24T08:41:19Z</time>
      </trkpt>
      <trkpt lat="43.89218" lon="4.00157">
        <ele>81.85</ele>
        <time>2012-06-24T08:41:26Z</time>
      </trkpt>
      <trkpt lat="43.89236" lon="4.00161">
        <ele>80.89</ele>
        <time>2012-06-24T08:41:27Z</time>
      </trkpt>
      <trkpt lat="43.89254" lon="4.00171">
        <ele>80.41</ele>
        <time>2012-06-24T08:41:28Z</time>
      </trkpt>
      <trkpt lat="43.89271" lon="4.00187">
        <ele>79.93</ele>
        <time>2012-06-24T08:41:29Z</time>
      </trkpt>
      <trkpt lat="43.89287" lon="4.00205">
        <ele>78.97</ele>
        <time>2012-06-24T08:41:30Z</time>
      </trkpt>
      <trkpt lat="43.893" lon="4.00224">
        <ele>78.97</ele>
        <time>2012-06-24T08:41:31Z</time>
      </trkpt>
      <trkpt lat="43.89313" lon="4.00242">
        <ele>78.48</ele>
        <time>2012-06-24T08:41:32Z</time>
      </trkpt>
      <trkpt lat="43.89328" lon="4.00256">
        <ele>78</ele>
        <time>2012-06-24T08:41:33Z</time>
      </trkpt>
      <trkpt lat="43.89345" lon="4.00266">
        <ele>77.04</ele>
        <time>2012-06-24T08:41:34Z</time>
      </trkpt>
      <trkpt lat="43.89364" lon="4.00273">
        <ele>77.04</ele>
        <time>2012-06-24T08:41:35Z</time>
      </trkpt>
      <trkpt lat="43.89385" lon="4.00277">
        <ele>76.56</ele>
        <time>2012-06-24T08:41:36Z</time>
      </trkpt>
      <trkpt lat="43.89409" lon="4.00278">
        <ele>76.08</ele>
        <time>2012-06-24T08:41:37Z</time>
      </trkpt>
      <trkpt lat="43.89434" lon="4.00275">
        <ele>75.6</ele>
        <time>2012-06-24T08:41:38Z</time>
      </trkpt>
      <trkpt lat="43.89461" lon="4.0027">
        <ele>75.6</ele>
        <time>2012-06-24T08:41:39Z</time>
      </trkpt>
      <trkpt lat="43.89681" lon="4.00225">
        <ele>74.64</ele>
        <time>2012-06-24T08:41:47Z</time>
      </trkpt>
      <trkpt lat="43.89947" lon="4.00137">
        <ele>74.64</ele>
        <time>2012-06-24T08:41:57Z</time>
      </trkpt>
      <trkpt lat="43.90062" lon="4.00115">
        <ele>75.12</ele>
        <time>2012-06-24T08:42:03Z</time>
      </trkpt>
      <trkpt lat="43.90202" lon="4.00114">
        <ele>78.48</ele>
        <time>2012-06-24T08:42:12Z</time>
      </trkpt>
      <trkpt lat="43.90243" lon="4.00121">
        <ele>79.45</ele>
        <time>2012-06-24T08:42:16Z</time>
      </trkpt>
      <trkpt lat="43.90251" lon="4.00124">
        <ele>79.45</ele>
        <time>2012-06-24T08:42:17Z</time>
      </trkpt>
      <trkpt lat="43.90259" lon="4.00128">
        <ele>79.93</ele>
        <time>2012-06-24T08:42:18Z</time>
      </trkpt>
      <trkpt lat="43.90272" lon="4.00136">
        <ele>80.41</ele>
        <time>2012-06-24T08:42:20Z</time>
      </trkpt>
      <trkpt lat="43.90279" lon="4.00138">
        <ele>80.41</ele>
        <time>2012-06-24T08:42:21Z</time>
      </trkpt>
      <trkpt lat="43.90285" lon="4.00139">
        <ele>80.41</ele>
        <time>2012-06-24T08:42:22Z</time>
      </trkpt>
      <trkpt lat="43.90333" lon="4.00152">
        <ele>80.89</ele>
        <time>2012-06-24T08:42:29Z</time>
      </trkpt>
      <trkpt lat="43.90343" lon="4.00158">
        <ele>80.89</ele>
        <time>2012-06-24T08:42:30Z</time>
      </trkpt>
      <trkpt lat="43.90353" lon="4.00167">
        <ele>80.41</ele>
        <time>2012-06-24T08:42:31Z</time>
      </trkpt>
      <trkpt lat="43.90363" lon="4.00177">
        <ele>80.89</ele>
        <time>2012-06-24T08:42:32Z</time>
      </trkpt>
      <trkpt lat="43.90372" lon="4.00187">
        <ele>80.41</ele>
        <time>2012-06-24T08:42:33Z</time>
      </trkpt>
      <trkpt lat="43.90461" lon="4.00302">
        <ele>80.89</ele>
        <time>2012-06-24T08:42:41Z</time>
      </trkpt>
      <trkpt lat="43.90548" lon="4.00424">
        <ele>80.41</ele>
        <time>2012-06-24T08:42:50Z</time>
      </trkpt>
      <trkpt lat="43.9056" lon="4.00447">
        <ele>80.41</ele>
        <time>2012-06-24T08:42:52Z</time>
      </trkpt>
      <trkpt lat="43.90563" lon="4.00458">
        <ele>80.41</ele>
        <time>2012-06-24T08:42:53Z</time>
      </trkpt>
      <trkpt lat="43.90565" lon="4.00468">
        <ele>80.41</ele>
        <time>2012-06-24T08:42:54Z</time>
      </trkpt>
      <trkpt lat="43.90567" lon="4.00487">
        <ele>80.41</ele>
        <time>2012-06-24T08:42:56Z</time>
      </trkpt>
      <trkpt lat="43.9057" lon="4.00497">
        <ele>80.41</ele>
        <time>2012-06-24T08:42:57Z</time>
      </trkpt>
      <trkpt lat="43.90575" lon="4.00505">
        <ele>80.41</ele>
        <time>2012-06-24T08:42:58Z</time>
      </trkpt>
      <trkpt lat="43.90581" lon="4.0051">
        <ele>80.41</ele>
        <time>2012-06-24T08:42:59Z</time>
      </trkpt>
      <trkpt lat="43.90588" lon="4.00512">
        <ele>79.93</ele>
        <time>2012-06-24T08:43:00Z</time>
      </trkpt>
      <trkpt lat="43.90596" lon="4.00511">
        <ele>79.93</ele>
        <time>2012-06-24T08:43:01Z</time>
      </trkpt>
      <trkpt lat="43.90603" lon="4.00508">
        <ele>79.45</ele>
        <time>2012-06-24T08:43:02Z</time>
      </trkpt>
      <trkpt lat="43.9061" lon="4.00504">
        <ele>79.45</ele>
        <time>2012-06-24T08:43:03Z</time>
      </trkpt>
      <trkpt lat="43.90618" lon="4.005">
        <ele>79.45</ele>
        <time>2012-06-24T08:43:04Z</time>
      </trkpt>
      <trkpt lat="43.90626" lon="4.00499">
        <ele>79.45</ele>
        <time>2012-06-24T08:43:05Z</time>
      </trkpt>
      <trkpt lat="43.90635" lon="4.00498">
        <ele>79.45</ele>
        <time>2012-06-24T08:43:06Z</time>
      </trkpt>
      <trkpt lat="43.90643" lon="4.00497">
        <ele>78.97</ele>
        <time>2012-06-24T08:43:07Z</time>
      </trkpt>
      <trkpt lat="43.90652" lon="4.00495">
        <ele>78.97</ele>
        <time>2012-06-24T08:43:08Z</time>
      </trkpt>
      <trkpt lat="43.90662" lon="4.00491">
        <ele>78.48</ele>
        <time>2012-06-24T08:43:09Z</time>
      </trkpt>
      <trkpt lat="43.90672" lon="4.00485">
        <ele>78.48</ele>
        <time>2012-06-24T08:43:10Z</time>
      </trkpt>
      <trkpt lat="43.90682" lon="4.00478">
        <ele>78.48</ele>
        <time>2012-06-24T08:43:11Z</time>
      </trkpt>
      <trkpt lat="43.9069" lon="4.0047">
        <ele>78.48</ele>
        <time>2012-06-24T08:43:12Z</time>
      </trkpt>
      <trkpt lat="43.90761" lon="4.00374">
        <ele>80.41</ele>
        <time>2012-06-24T08:43:22Z</time>
      </trkpt>
      <trkpt lat="43.90841" lon="4.00311">
        <ele>82.81</ele>
        <time>2012-06-24T08:43:32Z</time>
      </trkpt>
      <trkpt lat="43.90941" lon="4.00275">
        <ele>84.73</ele>
        <time>2012-06-24T08:43:40Z</time>
      </trkpt>
      <trkpt lat="43.91007" lon="4.00237">
        <ele>86.18</ele>
        <time>2012-06-24T08:43:48Z</time>
      </trkpt>
      <trkpt lat="43.91026" lon="4.00217">
        <ele>86.66</ele>
        <time>2012-06-24T08:43:56Z</time>
      </trkpt>
      <trkpt lat="43.91062" lon="4.00163">
        <ele>87.62</ele>
        <time>2012-06-24T08:44:03Z</time>
      </trkpt>
      <trkpt lat="43.91118" lon="4.00017">
        <ele>90.98</ele>
        <time>2012-06-24T08:44:11Z</time>
      </trkpt>
      <trkpt lat="43.91199" lon="3.99777">
        <ele>90.5</ele>
        <time>2012-06-24T08:44:26Z</time>
      </trkpt>
      <trkpt lat="43.91276" lon="3.99666">
        <ele>90.98</ele>
        <time>2012-06-24T08:44:35Z</time>
      </trkpt>
      <trkpt lat="43.91473" lon="3.9949">
        <ele>91.46</ele>
        <time>2012-06-24T08:44:53Z</time>
      </trkpt>
      <trkpt lat="43.9165" lon="3.99379">
        <ele>97.71</ele>
        <time>2012-06-24T08:45:08Z</time>
      </trkpt>
      <trkpt lat="43.91677" lon="3.99371">
        <ele>98.19</ele>
        <time>2012-06-24T08:45:11Z</time>
      </trkpt>
      <trkpt lat="43.91686" lon="3.99372">
        <ele>98.19</ele>
        <time>2012-06-24T08:45:12Z</time>
      </trkpt>
      <trkpt lat="43.91695" lon="3.99374">
        <ele>98.19</ele>
        <time>2012-06-24T08:45:13Z</time>
      </trkpt>
      <trkpt lat="43.91703" lon="3.99377">
        <ele>98.19</ele>
        <time>2012-06-24T08:45:14Z</time>
      </trkpt>
      <trkpt lat="43.91711" lon="3.99376">
        <ele>98.19</ele>
        <time>2012-06-24T08:45:15Z</time>
      </trkpt>
      <trkpt lat="43.91717" lon="3.99369">
        <ele>98.19</ele>
        <time>2012-06-24T08:45:16Z</time>
      </trkpt>
      <trkpt lat="43.91719" lon="3.99357">
        <ele>97.71</ele>
        <time>2012-06-24T08:45:17Z</time>
      </trkpt>
      <trkpt lat="43.91723" lon="3.99346">
        <ele>98.19</ele>
        <time>2012-06-24T08:45:18Z</time>
      </trkpt>
      <trkpt lat="43.91728" lon="3.99335">
        <ele>98.19</ele>
        <time>2012-06-24T08:45:19Z</time>
      </trkpt>
      <trkpt lat="43.91735" lon="3.99325">
        <ele>98.19</ele>
        <time>2012-06-24T08:45:20Z</time>
      </trkpt>
      <trkpt lat="43.91743" lon="3.99315">
        <ele>98.19</ele>
        <time>2012-06-24T08:45:21Z</time>
      </trkpt>
      <trkpt lat="43.91753" lon="3.99305">
        <ele>98.19</ele>
        <time>2012-06-24T08:45:22Z</time>
      </trkpt>
      <trkpt lat="43.91866" lon="3.99189">
        <ele>100.6</ele>
        <time>2012-06-24T08:45:32Z</time>
      </trkpt>
      <trkpt lat="43.92041" lon="3.99007">
        <ele>104.44</ele>
        <time>2012-06-24T08:45:45Z</time>
      </trkpt>
      <trkpt lat="43.92165" lon="3.98875">
        <ele>101.56</ele>
        <time>2012-06-24T08:45:52Z</time>
      </trkpt>
      <trkpt lat="43.92308" lon="3.98681">
        <ele>102.04</ele>
        <time>2012-06-24T08:46:01Z</time>
      </trkpt>
      <trkpt lat="43.92454" lon="3.98517">
        <ele>103</ele>
        <time>2012-06-24T08:46:10Z</time>
      </trkpt>
      <trkpt lat="43.92663" lon="3.98334">
        <ele>94.35</ele>
        <time>2012-06-24T08:46:24Z</time>
      </trkpt>
      <trkpt lat="43.92701" lon="3.98286">
        <ele>93.87</ele>
        <time>2012-06-24T08:46:27Z</time>
      </trkpt>
      <trkpt lat="43.92712" lon="3.98267">
        <ele>93.87</ele>
        <time>2012-06-24T08:46:28Z</time>
      </trkpt>
      <trkpt lat="43.92804" lon="3.98076">
        <ele>96.75</ele>
        <time>2012-06-24T08:46:38Z</time>
      </trkpt>
      <trkpt lat="43.92901" lon="3.97982">
        <ele>99.15</ele>
        <time>2012-06-24T08:46:45Z</time>
      </trkpt>
      <trkpt lat="43.93069" lon="3.97917">
        <ele>96.75</ele>
        <time>2012-06-24T08:46:55Z</time>
      </trkpt>
      <trkpt lat="43.932" lon="3.97855">
        <ele>95.31</ele>
        <time>2012-06-24T08:47:03Z</time>
      </trkpt>
      <trkpt lat="43.93288" lon="3.97743">
        <ele>96.27</ele>
        <time>2012-06-24T08:47:10Z</time>
      </trkpt>
      <trkpt lat="43.93401" lon="3.97511">
        <ele>96.75</ele>
        <time>2012-06-24T08:47:22Z</time>
      </trkpt>
      <trkpt lat="43.93527" lon="3.9724">
        <ele>101.08</ele>
        <time>2012-06-24T08:47:36Z</time>
      </trkpt>
      <trkpt lat="43.93679" lon="3.9692">
        <ele>103.96</ele>
        <time>2012-06-24T08:47:53Z</time>
      </trkpt>
      <trkpt lat="43.93705" lon="3.96757">
        <ele>105.4</ele>
        <time>2012-06-24T08:48:01Z</time>
      </trkpt>
      <trkpt lat="43.93688" lon="3.96529">
        <ele>106.84</ele>
        <time>2012-06-24T08:48:12Z</time>
      </trkpt>
      <trkpt lat="43.93675" lon="3.96365">
        <ele>105.88</ele>
        <time>2012-06-24T08:48:19Z</time>
      </trkpt>
      <trkpt lat="43.93661" lon="3.96088">
        <ele>105.4</ele>
        <time>2012-06-24T08:48:30Z</time>
      </trkpt>
      <trkpt lat="43.93694" lon="3.95934">
        <ele>103.48</ele>
        <time>2012-06-24T08:48:37Z</time>
      </trkpt>
      <trkpt lat="43.93838" lon="3.95574">
        <ele>102.52</ele>
        <time>2012-06-24T08:48:55Z</time>
      </trkpt>
      <trkpt lat="43.93953" lon="3.9531">
        <ele>101.56</ele>
        <time>2012-06-24T08:49:09Z</time>
      </trkpt>
      <trkpt lat="43.94025" lon="3.95234">
        <ele>101.08</ele>
        <time>2012-06-24T08:49:16Z</time>
      </trkpt>
      <trkpt lat="43.9411" lon="3.95166">
        <ele>102.04</ele>
        <time>2012-06-24T08:49:25Z</time>
      </trkpt>
      <trkpt lat="43.94207" lon="3.95148">
        <ele>102.52</ele>
        <time>2012-06-24T08:49:33Z</time>
      </trkpt>
      <trkpt lat="43.94343" lon="3.95152">
        <ele>101.56</ele>
        <time>2012-06-24T08:49:43Z</time>
      </trkpt>
      <trkpt lat="43.94357" lon="3.95147">
        <ele>101.56</ele>
        <time>2012-06-24T08:49:44Z</time>
      </trkpt>
      <trkpt lat="43.9437" lon="3.9514">
        <ele>101.56</ele>
        <time>2012-06-24T08:49:45Z</time>
      </trkpt>
      <trkpt lat="43.94384" lon="3.95133">
        <ele>101.56</ele>
        <time>2012-06-24T08:49:46Z</time>
      </trkpt>
      <trkpt lat="43.94396" lon="3.95124">
        <ele>101.56</ele>
        <time>2012-06-24T08:49:47Z</time>
      </trkpt>
      <trkpt lat="43.94408" lon="3.95114">
        <ele>101.56</ele>
        <time>2012-06-24T08:49:48Z</time>
      </trkpt>
      <trkpt lat="43.9442" lon="3.95102">
        <ele>101.56</ele>
        <time>2012-06-24T08:49:49Z</time>
      </trkpt>
      <trkpt lat="43.94431" lon="3.95089">
        <ele>101.56</ele>
        <time>2012-06-24T08:49:50Z</time>
      </trkpt>
      <trkpt lat="43.94441" lon="3.95075">
        <ele>101.56</ele>
        <time>2012-06-24T08:49:51Z</time>
      </trkpt>
      <trkpt lat="43.9445" lon="3.95059">
        <ele>102.04</ele>
        <time>2012-06-24T08:49:52Z</time>
      </trkpt>
      <trkpt lat="43.94459" lon="3.95043">
        <ele>102.04</ele>
        <time>2012-06-24T08:49:53Z</time>
      </trkpt>
      <trkpt lat="43.94466" lon="3.95025">
        <ele>102.04</ele>
        <time>2012-06-24T08:49:54Z</time>
      </trkpt>
      <trkpt lat="43.94473" lon="3.95007">
        <ele>102.52</ele>
        <time>2012-06-24T08:49:55Z</time>
      </trkpt>
      <trkpt lat="43.94479" lon="3.94988">
        <ele>103</ele>
        <time>2012-06-24T08:49:56Z</time>
      </trkpt>
      <trkpt lat="43.94484" lon="3.94968">
        <ele>103.48</ele>
        <time>2012-06-24T08:49:57Z</time>
      </trkpt>
      <trkpt lat="43.94518" lon="3.9473">
        <ele>111.65</ele>
        <time>2012-06-24T08:50:08Z</time>
      </trkpt>
      <trkpt lat="43.94498" lon="3.94446">
        <ele>117.42</ele>
        <time>2012-06-24T08:50:21Z</time>
      </trkpt>
      <trkpt lat="43.94468" lon="3.94059">
        <ele>122.22</ele>
        <time>2012-06-24T08:50:38Z</time>
      </trkpt>
      <trkpt lat="43.94433" lon="3.93609">
        <ele>123.19</ele>
        <time>2012-06-24T08:50:57Z</time>
      </trkpt>
      <trkpt lat="43.94416" lon="3.93379">
        <ele>123.19</ele>
        <time>2012-06-24T08:51:05Z</time>
      </trkpt>
      <trkpt lat="43.94384" lon="3.92962">
        <ele>133.28</ele>
        <time>2012-06-24T08:51:17Z</time>
      </trkpt>
      <trkpt lat="43.94353" lon="3.92555">
        <ele>138.57</ele>
        <time>2012-06-24T08:51:28Z</time>
      </trkpt>
      <trkpt lat="43.94342" lon="3.92371">
        <ele>139.53</ele>
        <time>2012-06-24T08:51:33Z</time>
      </trkpt>
      <trkpt lat="43.94347" lon="3.92332">
        <ele>139.53</ele>
        <time>2012-06-24T08:51:34Z</time>
      </trkpt>
      <trkpt lat="43.94353" lon="3.92293">
        <ele>140.01</ele>
        <time>2012-06-24T08:51:35Z</time>
      </trkpt>
      <trkpt lat="43.94455" lon="3.91781">
        <ele>129.43</ele>
        <time>2012-06-24T08:51:48Z</time>
      </trkpt>
      <trkpt lat="43.94567" lon="3.91205">
        <ele>128.47</ele>
        <time>2012-06-24T08:52:03Z</time>
      </trkpt>
      <trkpt lat="43.94604" lon="3.91014">
        <ele>128.47</ele>
        <time>2012-06-24T08:52:09Z</time>
      </trkpt>
      <trkpt lat="43.94651" lon="3.9077">
        <ele>130.88</ele>
        <time>2012-06-24T08:52:19Z</time>
      </trkpt>
      <trkpt lat="43.9471" lon="3.90469">
        <ele>134.72</ele>
        <time>2012-06-24T08:52:32Z</time>
      </trkpt>
      <trkpt lat="43.94752" lon="3.90251">
        <ele>134.24</ele>
        <time>2012-06-24T08:52:40Z</time>
      </trkpt>
      <trkpt lat="43.94789" lon="3.90041">
        <ele>133.28</ele>
        <time>2012-06-24T08:52:48Z</time>
      </trkpt>
      <trkpt lat="43.94827" lon="3.89831">
        <ele>134.72</ele>
        <time>2012-06-24T08:52:54Z</time>
      </trkpt>
      <trkpt lat="43.94883" lon="3.89496">
        <ele>143.85</ele>
        <time>2012-06-24T08:53:03Z</time>
      </trkpt>
      <trkpt lat="43.94905" lon="3.89337">
        <ele>149.62</ele>
        <time>2012-06-24T08:53:08Z</time>
      </trkpt>
      <trkpt lat="43.94903" lon="3.89305">
        <ele>150.58</ele>
        <time>2012-06-24T08:53:09Z</time>
      </trkpt>
      <trkpt lat="43.94899" lon="3.89273">
        <ele>151.54</ele>
        <time>2012-06-24T08:53:10Z</time>
      </trkpt>
      <trkpt lat="43.94892" lon="3.89241">
        <ele>152.51</ele>
        <time>2012-06-24T08:53:11Z</time>
      </trkpt>
      <trkpt lat="43.94884" lon="3.8921">
        <ele>153.47</ele>
        <time>2012-06-24T08:53:12Z</time>
      </trkpt>
      <trkpt lat="43.94849" lon="3.89064">
        <ele>159.24</ele>
        <time>2012-06-24T08:53:17Z</time>
      </trkpt>
      <trkpt lat="43.94848" lon="3.89031">
        <ele>160.68</ele>
        <time>2012-06-24T08:53:18Z</time>
      </trkpt>
      <trkpt lat="43.9485" lon="3.88997">
        <ele>162.6</ele>
        <time>2012-06-24T08:53:19Z</time>
      </trkpt>
      <trkpt lat="43.94858" lon="3.88767">
        <ele>167.89</ele>
        <time>2012-06-24T08:53:26Z</time>
      </trkpt>
      <trkpt lat="43.94865" lon="3.88735">
        <ele>168.37</ele>
        <time>2012-06-24T08:53:27Z</time>
      </trkpt>
      <trkpt lat="43.94876" lon="3.88704">
        <ele>168.37</ele>
        <time>2012-06-24T08:53:28Z</time>
      </trkpt>
      <trkpt lat="43.94889" lon="3.88672">
        <ele>168.37</ele>
        <time>2012-06-24T08:53:29Z</time>
      </trkpt>
      <trkpt lat="43.94903" lon="3.88639">
        <ele>167.41</ele>
        <time>2012-06-24T08:53:30Z</time>
      </trkpt>
      <trkpt lat="43.95071" lon="3.88249">
        <ele>160.2</ele>
        <time>2012-06-24T08:53:41Z</time>
      </trkpt>
      <trkpt lat="43.95163" lon="3.88035">
        <ele>156.83</ele>
        <time>2012-06-24T08:53:48Z</time>
      </trkpt>
      <trkpt lat="43.95337" lon="3.87635">
        <ele>156.83</ele>
        <time>2012-06-24T08:54:04Z</time>
      </trkpt>
      <trkpt lat="43.95387" lon="3.87531">
        <ele>157.31</ele>
        <time>2012-06-24T08:54:10Z</time>
      </trkpt>
      <trkpt lat="43.95395" lon="3.8752">
        <ele>157.31</ele>
        <time>2012-06-24T08:54:11Z</time>
      </trkpt>
      <trkpt lat="43.95404" lon="3.8751">
        <ele>157.31</ele>
        <time>2012-06-24T08:54:12Z</time>
      </trkpt>
      <trkpt lat="43.95412" lon="3.875">
        <ele>157.31</ele>
        <time>2012-06-24T08:54:13Z</time>
      </trkpt>
      <trkpt lat="43.95417" lon="3.87488">
        <ele>157.31</ele>
        <time>2012-06-24T08:54:14Z</time>
      </trkpt>
      <trkpt lat="43.9542" lon="3.87473">
        <ele>156.83</ele>
        <time>2012-06-24T08:54:15Z</time>
      </trkpt>
      <trkpt lat="43.95422" lon="3.87456">
        <ele>156.83</ele>
        <time>2012-06-24T08:54:16Z</time>
      </trkpt>
      <trkpt lat="43.95427" lon="3.87438">
        <ele>156.83</ele>
        <time>2012-06-24T08:54:17Z</time>
      </trkpt>
      <trkpt lat="43.95435" lon="3.87417">
        <ele>156.35</ele>
        <time>2012-06-24T08:54:18Z</time>
      </trkpt>
      <trkpt lat="43.95445" lon="3.87394">
        <ele>156.35</ele>
        <time>2012-06-24T08:54:19Z</time>
      </trkpt>
      <trkpt lat="43.95528" lon="3.87182">
        <ele>157.31</ele>
        <time>2012-06-24T08:54:27Z</time>
      </trkpt>
      <trkpt lat="43.95576" lon="3.87054">
        <ele>156.83</ele>
        <time>2012-06-24T08:54:32Z</time>
      </trkpt>
      <trkpt lat="43.95582" lon="3.87026">
        <ele>156.83</ele>
        <time>2012-06-24T08:54:33Z</time>
      </trkpt>
      <trkpt lat="43.95632" lon="3.8678">
        <ele>157.79</ele>
        <time>2012-06-24T08:54:42Z</time>
      </trkpt>
      <trkpt lat="43.95702" lon="3.86527">
        <ele>161.16</ele>
        <time>2012-06-24T08:54:52Z</time>
      </trkpt>
      <trkpt lat="43.95734" lon="3.86364">
        <ele>163.08</ele>
        <time>2012-06-24T08:55:00Z</time>
      </trkpt>
      <trkpt lat="43.95771" lon="3.8618">
        <ele>165</ele>
        <time>2012-06-24T08:55:10Z</time>
      </trkpt>
      <trkpt lat="43.95782" lon="3.86136">
        <ele>165</ele>
        <time>2012-06-24T08:55:13Z</time>
      </trkpt>
      <trkpt lat="43.95788" lon="3.86124">
        <ele>165</ele>
        <time>2012-06-24T08:55:14Z</time>
      </trkpt>
      <trkpt lat="43.95794" lon="3.86114">
        <ele>165</ele>
        <time>2012-06-24T08:55:15Z</time>
      </trkpt>
      <trkpt lat="43.95803" lon="3.86111">
        <ele>165</ele>
        <time>2012-06-24T08:55:16Z</time>
      </trkpt>
      <trkpt lat="43.95813" lon="3.86113">
        <ele>165.48</ele>
        <time>2012-06-24T08:55:17Z</time>
      </trkpt>
      <trkpt lat="43.95823" lon="3.86114">
        <ele>165.48</ele>
        <time>2012-06-24T08:55:18Z</time>
      </trkpt>
      <trkpt lat="43.95831" lon="3.86111">
        <ele>165</ele>
        <time>2012-06-24T08:55:19Z</time>
      </trkpt>
      <trkpt lat="43.95837" lon="3.86105">
        <ele>165</ele>
        <time>2012-06-24T08:55:20Z</time>
      </trkpt>
      <trkpt lat="43.95839" lon="3.86093">
        <ele>165</ele>
        <time>2012-06-24T08:55:21Z</time>
      </trkpt>
      <trkpt lat="43.95836" lon="3.86083">
        <ele>164.04</ele>
        <time>2012-06-24T08:55:22Z</time>
      </trkpt>
      <trkpt lat="43.95831" lon="3.86074">
        <ele>163.56</ele>
        <time>2012-06-24T08:55:23Z</time>
      </trkpt>
      <trkpt lat="43.95823" lon="3.86068">
        <ele>163.56</ele>
        <time>2012-06-24T08:55:24Z</time>
      </trkpt>
      <trkpt lat="43.95814" lon="3.86062">
        <ele>163.56</ele>
        <time>2012-06-24T08:55:25Z</time>
      </trkpt>
      <trkpt lat="43.95806" lon="3.86053">
        <ele>163.08</ele>
        <time>2012-06-24T08:55:26Z</time>
      </trkpt>
      <trkpt lat="43.95802" lon="3.86042">
        <ele>163.08</ele>
        <time>2012-06-24T08:55:27Z</time>
      </trkpt>
      <trkpt lat="43.95801" lon="3.86031">
        <ele>163.56</ele>
        <time>2012-06-24T08:55:28Z</time>
      </trkpt>
      <trkpt lat="43.95802" lon="3.86022">
        <ele>163.56</ele>
        <time>2012-06-24T08:55:29Z</time>
      </trkpt>
      <trkpt lat="43.95804" lon="3.86012">
        <ele>163.08</ele>
        <time>2012-06-24T08:55:30Z</time>
      </trkpt>
      <trkpt lat="43.95806" lon="3.86003">
        <ele>163.08</ele>
        <time>2012-06-24T08:55:31Z</time>
      </trkpt>
      <trkpt lat="43.95823" lon="3.8592">
        <ele>162.6</ele>
        <time>2012-06-24T08:55:41Z</time>
      </trkpt>
      <trkpt lat="43.95862" lon="3.85819">
        <ele>167.41</ele>
        <time>2012-06-24T08:55:52Z</time>
      </trkpt>
      <trkpt lat="43.95878" lon="3.85778">
        <ele>166.45</ele>
        <time>2012-06-24T08:56:00Z</time>
      </trkpt>
      <trkpt lat="43.95877" lon="3.85778">
        <ele>166.45</ele>
        <time>2012-06-24T08:56:01Z</time>
      </trkpt>
      <trkpt lat="43.95873" lon="3.85777">
        <ele>165.96</ele>
        <time>2012-06-24T08:56:02Z</time>
      </trkpt>
      <trkpt lat="43.95861" lon="3.85779">
        <ele>164.52</ele>
        <time>2012-06-24T08:56:05Z</time>
      </trkpt>
      <trkpt lat="43.95857" lon="3.85781">
        <ele>164.52</ele>
        <time>2012-06-24T08:56:06Z</time>
      </trkpt>
      <trkpt lat="43.95846" lon="3.8579">
        <ele>164.04</ele>
        <time>2012-06-24T08:56:10Z</time>
      </trkpt>
      <trkpt lat="43.95845" lon="3.85794">
        <ele>165.48</ele>
        <time>2012-06-24T08:56:11Z</time>
      </trkpt>
      <trkpt lat="43.95846" lon="3.85799">
        <ele>165.96</ele>
        <time>2012-06-24T08:56:12Z</time>
      </trkpt>
      <trkpt lat="43.95847" lon="3.85805">
        <ele>166.93</ele>
        <time>2012-06-24T08:56:13Z</time>
      </trkpt>
      <trkpt lat="43.95849" lon="3.85812">
        <ele>167.41</ele>
        <time>2012-06-24T08:56:14Z</time>
      </trkpt>
      <trkpt lat="43.95849" lon="3.85818">
        <ele>167.89</ele>
        <time>2012-06-24T08:56:15Z</time>
      </trkpt>
      <trkpt lat="43.9585" lon="3.85824">
        <ele>167.89</ele>
        <time>2012-06-24T08:56:16Z</time>
      </trkpt>
      <trkpt lat="43.95851" lon="3.85829">
        <ele>167.89</ele>
        <time>2012-06-24T08:56:17Z</time>
      </trkpt>
      <trkpt lat="43.95852" lon="3.85833">
        <ele>167.41</ele>
        <time>2012-06-24T08:56:18Z</time>
      </trkpt>
      <trkpt lat="43.95853" lon="3.85837">
        <ele>168.37</ele>
        <time>2012-06-24T08:56:19Z</time>
      </trkpt>
      <trkpt lat="43.95852" lon="3.85843">
        <ele>168.85</ele>
        <time>2012-06-24T08:56:20Z</time>
      </trkpt>
      <trkpt lat="43.9585" lon="3.85849">
        <ele>169.33</ele>
        <time>2012-06-24T08:56:21Z</time>
      </trkpt>
      <trkpt lat="43.95847" lon="3.85856">
        <ele>169.81</ele>
        <time>2012-06-24T08:56:22Z</time>
      </trkpt>
      <trkpt lat="43.95844" lon="3.85863">
        <ele>170.29</ele>
        <time>2012-06-24T08:56:23Z</time>
      </trkpt>
      <trkpt lat="43.95824" lon="3.85925">
        <ele>170.77</ele>
        <time>2012-06-24T08:56:30Z</time>
      </trkpt>
      <trkpt lat="43.95812" lon="3.8597">
        <ele>171.25</ele>
        <time>2012-06-24T08:56:35Z</time>
      </trkpt>
      <trkpt lat="43.9581" lon="3.85974">
        <ele>170.77</ele>
        <time>2012-06-24T08:56:36Z</time>
      </trkpt>
      <trkpt lat="43.95808" lon="3.85976">
        <ele>170.29</ele>
        <time>2012-06-24T08:56:37Z</time>
      </trkpt>
      <trkpt lat="43.95806" lon="3.85976">
        <ele>170.29</ele>
        <time>2012-06-24T08:56:38Z</time>
      </trkpt>
      <trkpt lat="43.95803" lon="3.85976">
        <ele>169.81</ele>
        <time>2012-06-24T08:56:39Z</time>
      </trkpt>
      <trkpt lat="43.95799" lon="3.85973">
        <ele>169.33</ele>
        <time>2012-06-24T08:56:40Z</time>
      </trkpt>
      <trkpt lat="43.95794" lon="3.85968">
        <ele>168.37</ele>
        <time>2012-06-24T08:56:41Z</time>
      </trkpt>
      <trkpt lat="43.95787" lon="3.8596">
        <ele>167.89</ele>
        <time>2012-06-24T08:56:42Z</time>
      </trkpt>
      <trkpt lat="43.95725" lon="3.85889">
        <ele>169.33</ele>
        <time>2012-06-24T08:56:49Z</time>
      </trkpt>
      <trkpt lat="43.95717" lon="3.85881">
        <ele>169.81</ele>
        <time>2012-06-24T08:56:50Z</time>
      </trkpt>
      <trkpt lat="43.95709" lon="3.85875">
        <ele>170.29</ele>
        <time>2012-06-24T08:56:51Z</time>
      </trkpt>
      <trkpt lat="43.95699" lon="3.85876">
        <ele>170.77</ele>
        <time>2012-06-24T08:56:52Z</time>
      </trkpt>
      <trkpt lat="43.95689" lon="3.85879">
        <ele>171.25</ele>
        <time>2012-06-24T08:56:53Z</time>
      </trkpt>
      <trkpt lat="43.95679" lon="3.85884">
        <ele>171.73</ele>
        <time>2012-06-24T08:56:54Z</time>
      </trkpt>
      <trkpt lat="43.95667" lon="3.85895">
        <ele>172.21</ele>
        <time>2012-06-24T08:56:55Z</time>
      </trkpt>
      <trkpt lat="43.95654" lon="3.85906">
        <ele>172.21</ele>
        <time>2012-06-24T08:56:56Z</time>
      </trkpt>
      <trkpt lat="43.95511" lon="3.86023">
        <ele>174.62</ele>
        <time>2012-06-24T08:57:09Z</time>
      </trkpt>
      <trkpt lat="43.95438" lon="3.8609">
        <ele>175.58</ele>
        <time>2012-06-24T08:57:17Z</time>
      </trkpt>
      <trkpt lat="43.95428" lon="3.86094">
        <ele>175.58</ele>
        <time>2012-06-24T08:57:18Z</time>
      </trkpt>
      <trkpt lat="43.95418" lon="3.86095">
        <ele>175.58</ele>
        <time>2012-06-24T08:57:19Z</time>
      </trkpt>
      <trkpt lat="43.95408" lon="3.86092">
        <ele>174.62</ele>
        <time>2012-06-24T08:57:20Z</time>
      </trkpt>
      <trkpt lat="43.95399" lon="3.86088">
        <ele>174.14</ele>
        <time>2012-06-24T08:57:21Z</time>
      </trkpt>
      <trkpt lat="43.9539" lon="3.86087">
        <ele>174.14</ele>
        <time>2012-06-24T08:57:22Z</time>
      </trkpt>
      <trkpt lat="43.95381" lon="3.86086">
        <ele>173.66</ele>
        <time>2012-06-24T08:57:23Z</time>
      </trkpt>
      <trkpt lat="43.95299" lon="3.86095">
        <ele>173.17</ele>
        <time>2012-06-24T08:57:29Z</time>
      </trkpt>
      <trkpt lat="43.95124" lon="3.86118">
        <ele>173.66</ele>
        <time>2012-06-24T08:57:38Z</time>
      </trkpt>
      <trkpt lat="43.95067" lon="3.86121">
        <ele>173.66</ele>
        <time>2012-06-24T08:57:41Z</time>
      </trkpt>
      <trkpt lat="43.95049" lon="3.86118">
        <ele>173.66</ele>
        <time>2012-06-24T08:57:42Z</time>
      </trkpt>
      <trkpt lat="43.95029" lon="3.8611">
        <ele>174.14</ele>
        <time>2012-06-24T08:57:43Z</time>
      </trkpt>
      <trkpt lat="43.95009" lon="3.861">
        <ele>173.66</ele>
        <time>2012-06-24T08:57:44Z</time>
      </trkpt>
      <trkpt lat="43.94989" lon="3.86089">
        <ele>173.66</ele>
        <time>2012-06-24T08:57:45Z</time>
      </trkpt>
      <trkpt lat="43.94844" lon="3.85977">
        <ele>173.17</ele>
        <time>2012-06-24T08:57:52Z</time>
      </trkpt>
      <trkpt lat="43.94485" lon="3.85638">
        <ele>175.1</ele>
        <time>2012-06-24T08:58:09Z</time>
      </trkpt>
      <trkpt lat="43.9424" lon="3.85429">
        <ele>177.5</ele>
        <time>2012-06-24T08:58:21Z</time>
      </trkpt>
      <trkpt lat="43.94106" lon="3.85353">
        <ele>178.94</ele>
        <time>2012-06-24T08:58:27Z</time>
      </trkpt>
      <trkpt lat="43.94084" lon="3.85348">
        <ele>178.94</ele>
        <time>2012-06-24T08:58:28Z</time>
      </trkpt>
      <trkpt lat="43.94062" lon="3.85345">
        <ele>179.42</ele>
        <time>2012-06-24T08:58:29Z</time>
      </trkpt>
      <trkpt lat="43.93994" lon="3.85329">
        <ele>180.38</ele>
        <time>2012-06-24T08:58:32Z</time>
      </trkpt>
      <trkpt lat="43.93972" lon="3.85316">
        <ele>180.38</ele>
        <time>2012-06-24T08:58:33Z</time>
      </trkpt>
      <trkpt lat="43.93951" lon="3.853">
        <ele>180.87</ele>
        <time>2012-06-24T08:58:34Z</time>
      </trkpt>
      <trkpt lat="43.93929" lon="3.85281">
        <ele>181.35</ele>
        <time>2012-06-24T08:58:35Z</time>
      </trkpt>
      <trkpt lat="43.93908" lon="3.85259">
        <ele>182.31</ele>
        <time>2012-06-24T08:58:36Z</time>
      </trkpt>
      <trkpt lat="43.93888" lon="3.85237">
        <ele>183.27</ele>
        <time>2012-06-24T08:58:37Z</time>
      </trkpt>
      <trkpt lat="43.93791" lon="3.85133">
        <ele>186.63</ele>
        <time>2012-06-24T08:58:42Z</time>
      </trkpt>
      <trkpt lat="43.93769" lon="3.85118">
        <ele>187.11</ele>
        <time>2012-06-24T08:58:43Z</time>
      </trkpt>
      <trkpt lat="43.93678" lon="3.8507">
        <ele>190.48</ele>
        <time>2012-06-24T08:58:47Z</time>
      </trkpt>
      <trkpt lat="43.93653" lon="3.85065">
        <ele>191.44</ele>
        <time>2012-06-24T08:58:48Z</time>
      </trkpt>
      <trkpt lat="43.9343" lon="3.85037">
        <ele>197.21</ele>
        <time>2012-06-24T08:58:57Z</time>
      </trkpt>
      <trkpt lat="43.93385" lon="3.85036">
        <ele>196.73</ele>
        <time>2012-06-24T08:58:59Z</time>
      </trkpt>
      <trkpt lat="43.93362" lon="3.85041">
        <ele>195.77</ele>
        <time>2012-06-24T08:59:00Z</time>
      </trkpt>
      <trkpt lat="43.93338" lon="3.85048">
        <ele>195.28</ele>
        <time>2012-06-24T08:59:01Z</time>
      </trkpt>
      <trkpt lat="43.93314" lon="3.85059">
        <ele>194.8</ele>
        <time>2012-06-24T08:59:02Z</time>
      </trkpt>
      <trkpt lat="43.9329" lon="3.85073">
        <ele>194.8</ele>
        <time>2012-06-24T08:59:03Z</time>
      </trkpt>
      <trkpt lat="43.93267" lon="3.85089">
        <ele>195.28</ele>
        <time>2012-06-24T08:59:04Z</time>
      </trkpt>
      <trkpt lat="43.93245" lon="3.85107">
        <ele>196.25</ele>
        <time>2012-06-24T08:59:05Z</time>
      </trkpt>
      <trkpt lat="43.93175" lon="3.85156">
        <ele>199.13</ele>
        <time>2012-06-24T08:59:09Z</time>
      </trkpt>
      <trkpt lat="43.93159" lon="3.85156">
        <ele>200.09</ele>
        <time>2012-06-24T08:59:10Z</time>
      </trkpt>
      <trkpt lat="43.93141" lon="3.85151">
        <ele>201.53</ele>
        <time>2012-06-24T08:59:11Z</time>
      </trkpt>
      <trkpt lat="43.93122" lon="3.85144">
        <ele>202.49</ele>
        <time>2012-06-24T08:59:12Z</time>
      </trkpt>
      <trkpt lat="43.93105" lon="3.85135">
        <ele>202.98</ele>
        <time>2012-06-24T08:59:13Z</time>
      </trkpt>
      <trkpt lat="43.93054" lon="3.85115">
        <ele>205.38</ele>
        <time>2012-06-24T08:59:16Z</time>
      </trkpt>
      <trkpt lat="43.93039" lon="3.85116">
        <ele>206.34</ele>
        <time>2012-06-24T08:59:17Z</time>
      </trkpt>
      <trkpt lat="43.93025" lon="3.85122">
        <ele>207.3</ele>
        <time>2012-06-24T08:59:18Z</time>
      </trkpt>
      <trkpt lat="43.93012" lon="3.85134">
        <ele>207.78</ele>
        <time>2012-06-24T08:59:19Z</time>
      </trkpt>
      <trkpt lat="43.92998" lon="3.8515">
        <ele>209.22</ele>
        <time>2012-06-24T08:59:20Z</time>
      </trkpt>
      <trkpt lat="43.92984" lon="3.8517">
        <ele>210.19</ele>
        <time>2012-06-24T08:59:21Z</time>
      </trkpt>
      <trkpt lat="43.9297" lon="3.8519">
        <ele>211.63</ele>
        <time>2012-06-24T08:59:22Z</time>
      </trkpt>
      <trkpt lat="43.92919" lon="3.85265">
        <ele>215.95</ele>
        <time>2012-06-24T08:59:27Z</time>
      </trkpt>
      <trkpt lat="43.9291" lon="3.8527">
        <ele>216.43</ele>
        <time>2012-06-24T08:59:28Z</time>
      </trkpt>
      <trkpt lat="43.92899" lon="3.85268">
        <ele>217.4</ele>
        <time>2012-06-24T08:59:29Z</time>
      </trkpt>
      <trkpt lat="43.9289" lon="3.8526">
        <ele>218.36</ele>
        <time>2012-06-24T08:59:30Z</time>
      </trkpt>
      <trkpt lat="43.92884" lon="3.85242">
        <ele>218.84</ele>
        <time>2012-06-24T08:59:31Z</time>
      </trkpt>
      <trkpt lat="43.92879" lon="3.85221">
        <ele>219.32</ele>
        <time>2012-06-24T08:59:32Z</time>
      </trkpt>
      <trkpt lat="43.92873" lon="3.85197">
        <ele>220.28</ele>
        <time>2012-06-24T08:59:33Z</time>
      </trkpt>
      <trkpt lat="43.92866" lon="3.8517">
        <ele>221.72</ele>
        <time>2012-06-24T08:59:34Z</time>
      </trkpt>
      <trkpt lat="43.92826" lon="3.85075">
        <ele>227.49</ele>
        <time>2012-06-24T08:59:38Z</time>
      </trkpt>
      <trkpt lat="43.92813" lon="3.85059">
        <ele>228.45</ele>
        <time>2012-06-24T08:59:39Z</time>
      </trkpt>
      <trkpt lat="43.92797" lon="3.85046">
        <ele>229.41</ele>
        <time>2012-06-24T08:59:40Z</time>
      </trkpt>
      <trkpt lat="43.92778" lon="3.85038">
        <ele>230.85</ele>
        <time>2012-06-24T08:59:41Z</time>
      </trkpt>
      <trkpt lat="43.92761" lon="3.8503">
        <ele>231.81</ele>
        <time>2012-06-24T08:59:42Z</time>
      </trkpt>
      <trkpt lat="43.92744" lon="3.85028">
        <ele>232.78</ele>
        <time>2012-06-24T08:59:43Z</time>
      </trkpt>
      <trkpt lat="43.92726" lon="3.85031">
        <ele>234.22</ele>
        <time>2012-06-24T08:59:44Z</time>
      </trkpt>
      <trkpt lat="43.92709" lon="3.85036">
        <ele>235.18</ele>
        <time>2012-06-24T08:59:45Z</time>
      </trkpt>
      <trkpt lat="43.92691" lon="3.85039">
        <ele>236.14</ele>
        <time>2012-06-24T08:59:46Z</time>
      </trkpt>
      <trkpt lat="43.92674" lon="3.85039">
        <ele>237.58</ele>
        <time>2012-06-24T08:59:47Z</time>
      </trkpt>
      <trkpt lat="43.92655" lon="3.85032">
        <ele>238.06</ele>
        <time>2012-06-24T08:59:48Z</time>
      </trkpt>
      <trkpt lat="43.92634" lon="3.85024">
        <ele>238.06</ele>
        <time>2012-06-24T08:59:49Z</time>
      </trkpt>
      <trkpt lat="43.92611" lon="3.85016">
        <ele>238.06</ele>
        <time>2012-06-24T08:59:50Z</time>
      </trkpt>
      <trkpt lat="43.92395" lon="3.84946">
        <ele>235.18</ele>
        <time>2012-06-24T08:59:58Z</time>
      </trkpt>
      <trkpt lat="43.92236" lon="3.849">
        <ele>231.81</ele>
        <time>2012-06-24T09:00:04Z</time>
      </trkpt>
      <trkpt lat="43.9221" lon="3.84901">
        <ele>230.85</ele>
        <time>2012-06-24T09:00:05Z</time>
      </trkpt>
      <trkpt lat="43.91989" lon="3.8493">
        <ele>221.72</ele>
        <time>2012-06-24T09:00:13Z</time>
      </trkpt>
      <trkpt lat="43.91916" lon="3.84954">
        <ele>218.84</ele>
        <time>2012-06-24T09:00:16Z</time>
      </trkpt>
      <trkpt lat="43.91893" lon="3.84968">
        <ele>217.88</ele>
        <time>2012-06-24T09:00:17Z</time>
      </trkpt>
      <trkpt lat="43.91683" lon="3.85123">
        <ele>209.7</ele>
        <time>2012-06-24T09:00:26Z</time>
      </trkpt>
      <trkpt lat="43.91626" lon="3.85177">
        <ele>207.3</ele>
        <time>2012-06-24T09:00:29Z</time>
      </trkpt>
      <trkpt lat="43.91609" lon="3.85201">
        <ele>206.34</ele>
        <time>2012-06-24T09:00:30Z</time>
      </trkpt>
      <trkpt lat="43.91492" lon="3.85379">
        <ele>202.98</ele>
        <time>2012-06-24T09:00:37Z</time>
      </trkpt>
      <trkpt lat="43.9137" lon="3.855">
        <ele>196.73</ele>
        <time>2012-06-24T09:00:43Z</time>
      </trkpt>
      <trkpt lat="43.91191" lon="3.8566">
        <ele>187.11</ele>
        <time>2012-06-24T09:00:52Z</time>
      </trkpt>
      <trkpt lat="43.90995" lon="3.85762">
        <ele>177.5</ele>
        <time>2012-06-24T09:01:01Z</time>
      </trkpt>
      <trkpt lat="43.90976" lon="3.85769">
        <ele>176.54</ele>
        <time>2012-06-24T09:01:02Z</time>
      </trkpt>
      <trkpt lat="43.90959" lon="3.85768">
        <ele>175.58</ele>
        <time>2012-06-24T09:01:03Z</time>
      </trkpt>
      <trkpt lat="43.90942" lon="3.85762">
        <ele>174.62</ele>
        <time>2012-06-24T09:01:04Z</time>
      </trkpt>
      <trkpt lat="43.90923" lon="3.85752">
        <ele>173.66</ele>
        <time>2012-06-24T09:01:05Z</time>
      </trkpt>
      <trkpt lat="43.90904" lon="3.85741">
        <ele>173.17</ele>
        <time>2012-06-24T09:01:06Z</time>
      </trkpt>
      <trkpt lat="43.90885" lon="3.8573">
        <ele>173.17</ele>
        <time>2012-06-24T09:01:07Z</time>
      </trkpt>
      <trkpt lat="43.90816" lon="3.85709">
        <ele>173.17</ele>
        <time>2012-06-24T09:01:10Z</time>
      </trkpt>
      <trkpt lat="43.90791" lon="3.85708">
        <ele>173.66</ele>
        <time>2012-06-24T09:01:11Z</time>
      </trkpt>
      <trkpt lat="43.90606" lon="3.85734">
        <ele>173.66</ele>
        <time>2012-06-24T09:01:18Z</time>
      </trkpt>
      <trkpt lat="43.90523" lon="3.85746">
        <ele>174.14</ele>
        <time>2012-06-24T09:01:22Z</time>
      </trkpt>
      <trkpt lat="43.90506" lon="3.85738">
        <ele>174.14</ele>
        <time>2012-06-24T09:01:23Z</time>
      </trkpt>
      <trkpt lat="43.90489" lon="3.85725">
        <ele>174.62</ele>
        <time>2012-06-24T09:01:24Z</time>
      </trkpt>
      <trkpt lat="43.9047" lon="3.85709">
        <ele>174.62</ele>
        <time>2012-06-24T09:01:25Z</time>
      </trkpt>
      <trkpt lat="43.90451" lon="3.8569">
        <ele>175.1</ele>
        <time>2012-06-24T09:01:26Z</time>
      </trkpt>
      <trkpt lat="43.90286" lon="3.85573">
        <ele>179.42</ele>
        <time>2012-06-24T09:01:33Z</time>
      </trkpt>
      <trkpt lat="43.90081" lon="3.85434">
        <ele>187.11</ele>
        <time>2012-06-24T09:01:42Z</time>
      </trkpt>
      <trkpt lat="43.90043" lon="3.8542">
        <ele>187.59</ele>
        <time>2012-06-24T09:01:44Z</time>
      </trkpt>
      <trkpt lat="43.90024" lon="3.85418">
        <ele>187.59</ele>
        <time>2012-06-24T09:01:45Z</time>
      </trkpt>
      <trkpt lat="43.90007" lon="3.85424">
        <ele>188.08</ele>
        <time>2012-06-24T09:01:46Z</time>
      </trkpt>
      <trkpt lat="43.89989" lon="3.85433">
        <ele>188.08</ele>
        <time>2012-06-24T09:01:47Z</time>
      </trkpt>
      <trkpt lat="43.8997" lon="3.85444">
        <ele>188.56</ele>
        <time>2012-06-24T09:01:48Z</time>
      </trkpt>
      <trkpt lat="43.8995" lon="3.85456">
        <ele>188.56</ele>
        <time>2012-06-24T09:01:49Z</time>
      </trkpt>
      <trkpt lat="43.89826" lon="3.85519">
        <ele>188.56</ele>
        <time>2012-06-24T09:01:56Z</time>
      </trkpt>
      <trkpt lat="43.89736" lon="3.85568">
        <ele>189.04</ele>
        <time>2012-06-24T09:02:04Z</time>
      </trkpt>
      <trkpt lat="43.89633" lon="3.85624">
        <ele>189.52</ele>
        <time>2012-06-24T09:02:15Z</time>
      </trkpt>
      <trkpt lat="43.89517" lon="3.85667">
        <ele>191.92</ele>
        <time>2012-06-24T09:02:28Z</time>
      </trkpt>
      <trkpt lat="43.89509" lon="3.85668">
        <ele>192.4</ele>
        <time>2012-06-24T09:02:29Z</time>
      </trkpt>
      <trkpt lat="43.89501" lon="3.85667">
        <ele>192.4</ele>
        <time>2012-06-24T09:02:30Z</time>
      </trkpt>
      <trkpt lat="43.89406" lon="3.8564">
        <ele>195.77</ele>
        <time>2012-06-24T09:02:44Z</time>
      </trkpt>
      <trkpt lat="43.89376" lon="3.85637">
        <ele>195.28</ele>
        <time>2012-06-24T09:02:50Z</time>
      </trkpt>
      <trkpt lat="43.89362" lon="3.85636">
        <ele>194.8</ele>
        <time>2012-06-24T09:02:53Z</time>
      </trkpt>
      <trkpt lat="43.89357" lon="3.85636">
        <ele>195.28</ele>
        <time>2012-06-24T09:02:54Z</time>
      </trkpt>
      <trkpt lat="43.89351" lon="3.85636">
        <ele>194.8</ele>
        <time>2012-06-24T09:02:55Z</time>
      </trkpt>
      <trkpt lat="43.89339" lon="3.85636">
        <ele>194.32</ele>
        <time>2012-06-24T09:02:57Z</time>
      </trkpt>
      <trkpt lat="43.89332" lon="3.85636">
        <ele>194.32</ele>
        <time>2012-06-24T09:02:58Z</time>
      </trkpt>
      <trkpt lat="43.89254" lon="3.85636">
        <ele>197.69</ele>
        <time>2012-06-24T09:03:06Z</time>
      </trkpt>
      <trkpt lat="43.89105" lon="3.85629">
        <ele>196.25</ele>
        <time>2012-06-24T09:03:18Z</time>
      </trkpt>
      <trkpt lat="43.88943" lon="3.85623">
        <ele>196.73</ele>
        <time>2012-06-24T09:03:30Z</time>
      </trkpt>
      <trkpt lat="43.8872" lon="3.85617">
        <ele>200.09</ele>
        <time>2012-06-24T09:03:44Z</time>
      </trkpt>
      <trkpt lat="43.88521" lon="3.85612">
        <ele>202.49</ele>
        <time>2012-06-24T09:03:55Z</time>
      </trkpt>
      <trkpt lat="43.88263" lon="3.85605">
        <ele>203.94</ele>
        <time>2012-06-24T09:04:06Z</time>
      </trkpt>
      <trkpt lat="43.88126" lon="3.85599">
        <ele>209.7</ele>
        <time>2012-06-24T09:04:13Z</time>
      </trkpt>
      <trkpt lat="43.88099" lon="3.85604">
        <ele>211.63</ele>
        <time>2012-06-24T09:04:15Z</time>
      </trkpt>
      <trkpt lat="43.88089" lon="3.85614">
        <ele>212.59</ele>
        <time>2012-06-24T09:04:16Z</time>
      </trkpt>
      <trkpt lat="43.88082" lon="3.8563">
        <ele>213.55</ele>
        <time>2012-06-24T09:04:17Z</time>
      </trkpt>
      <trkpt lat="43.88077" lon="3.85651">
        <ele>214.51</ele>
        <time>2012-06-24T09:04:18Z</time>
      </trkpt>
      <trkpt lat="43.88075" lon="3.85677">
        <ele>215.95</ele>
        <time>2012-06-24T09:04:19Z</time>
      </trkpt>
      <trkpt lat="43.88072" lon="3.85706">
        <ele>217.4</ele>
        <time>2012-06-24T09:04:20Z</time>
      </trkpt>
      <trkpt lat="43.88069" lon="3.85737">
        <ele>218.84</ele>
        <time>2012-06-24T09:04:21Z</time>
      </trkpt>
      <trkpt lat="43.88037" lon="3.85931">
        <ele>228.45</ele>
        <time>2012-06-24T09:04:28Z</time>
      </trkpt>
      <trkpt lat="43.88021" lon="3.85997">
        <ele>231.81</ele>
        <time>2012-06-24T09:04:33Z</time>
      </trkpt>
      <trkpt lat="43.88011" lon="3.86021">
        <ele>233.26</ele>
        <time>2012-06-24T09:04:38Z</time>
      </trkpt>
      <trkpt lat="43.88007" lon="3.86023">
        <ele>233.74</ele>
        <time>2012-06-24T09:04:39Z</time>
      </trkpt>
      <trkpt lat="43.88002" lon="3.86023">
        <ele>234.22</ele>
        <time>2012-06-24T09:04:40Z</time>
      </trkpt>
      <trkpt lat="43.87997" lon="3.8602">
        <ele>234.7</ele>
        <time>2012-06-24T09:04:41Z</time>
      </trkpt>
      <trkpt lat="43.87992" lon="3.86014">
        <ele>235.18</ele>
        <time>2012-06-24T09:04:42Z</time>
      </trkpt>
      <trkpt lat="43.87987" lon="3.85999">
        <ele>235.66</ele>
        <time>2012-06-24T09:04:43Z</time>
      </trkpt>
      <trkpt lat="43.87981" lon="3.8598">
        <ele>236.14</ele>
        <time>2012-06-24T09:04:44Z</time>
      </trkpt>
      <trkpt lat="43.87976" lon="3.85962">
        <ele>237.1</ele>
        <time>2012-06-24T09:04:45Z</time>
      </trkpt>
      <trkpt lat="43.87947" lon="3.85815">
        <ele>243.35</ele>
        <time>2012-06-24T09:04:51Z</time>
      </trkpt>
      <trkpt lat="43.87938" lon="3.85766">
        <ele>245.27</ele>
        <time>2012-06-24T09:04:53Z</time>
      </trkpt>
      <trkpt lat="43.8793" lon="3.85744">
        <ele>246.72</ele>
        <time>2012-06-24T09:04:54Z</time>
      </trkpt>
      <trkpt lat="43.87919" lon="3.85722">
        <ele>247.68</ele>
        <time>2012-06-24T09:04:55Z</time>
      </trkpt>
      <trkpt lat="43.87836" lon="3.85581">
        <ele>255.85</ele>
        <time>2012-06-24T09:05:02Z</time>
      </trkpt>
      <trkpt lat="43.8782" lon="3.85557">
        <ele>257.77</ele>
        <time>2012-06-24T09:05:04Z</time>
      </trkpt>
      <trkpt lat="43.87811" lon="3.85548">
        <ele>258.73</ele>
        <time>2012-06-24T09:05:05Z</time>
      </trkpt>
      <trkpt lat="43.87778" lon="3.85521">
        <ele>261.14</ele>
        <time>2012-06-24T09:05:08Z</time>
      </trkpt>
      <trkpt lat="43.87765" lon="3.85515">
        <ele>261.62</ele>
        <time>2012-06-24T09:05:09Z</time>
      </trkpt>
      <trkpt lat="43.8775" lon="3.85511">
        <ele>262.1</ele>
        <time>2012-06-24T09:05:10Z</time>
      </trkpt>
      <trkpt lat="43.87687" lon="3.85496">
        <ele>265.46</ele>
        <time>2012-06-24T09:05:15Z</time>
      </trkpt>
      <trkpt lat="43.87696" lon="3.85526">
        <ele>268.83</ele>
        <time>2012-06-24T09:05:21Z</time>
      </trkpt>
      <trkpt lat="43.87711" lon="3.85529">
        <ele>268.83</ele>
        <time>2012-06-24T09:05:22Z</time>
      </trkpt>
      <trkpt lat="43.87727" lon="3.85534">
        <ele>269.79</ele>
        <time>2012-06-24T09:05:23Z</time>
      </trkpt>
      <trkpt lat="43.87743" lon="3.85541">
        <ele>270.75</ele>
        <time>2012-06-24T09:05:24Z</time>
      </trkpt>
      <trkpt lat="43.87758" lon="3.85549">
        <ele>271.23</ele>
        <time>2012-06-24T09:05:25Z</time>
      </trkpt>
      <trkpt lat="43.87772" lon="3.8556">
        <ele>272.19</ele>
        <time>2012-06-24T09:05:26Z</time>
      </trkpt>
      <trkpt lat="43.87785" lon="3.85574">
        <ele>273.15</ele>
        <time>2012-06-24T09:05:27Z</time>
      </trkpt>
      <trkpt lat="43.87796" lon="3.8559">
        <ele>274.11</ele>
        <time>2012-06-24T09:05:28Z</time>
      </trkpt>
      <trkpt lat="43.87806" lon="3.85608">
        <ele>275.07</ele>
        <time>2012-06-24T09:05:29Z</time>
      </trkpt>
      <trkpt lat="43.87814" lon="3.85628">
        <ele>276.04</ele>
        <time>2012-06-24T09:05:30Z</time>
      </trkpt>
      <trkpt lat="43.8782" lon="3.85651">
        <ele>277</ele>
        <time>2012-06-24T09:05:31Z</time>
      </trkpt>
      <trkpt lat="43.87825" lon="3.85674">
        <ele>277.48</ele>
        <time>2012-06-24T09:05:32Z</time>
      </trkpt>
      <trkpt lat="43.87828" lon="3.85699">
        <ele>278.44</ele>
        <time>2012-06-24T09:05:33Z</time>
      </trkpt>
      <trkpt lat="43.8783" lon="3.85725">
        <ele>278.92</ele>
        <time>2012-06-24T09:05:34Z</time>
      </trkpt>
      <trkpt lat="43.8783" lon="3.85752">
        <ele>279.88</ele>
        <time>2012-06-24T09:05:35Z</time>
      </trkpt>
      <trkpt lat="43.87828" lon="3.85777">
        <ele>280.84</ele>
        <time>2012-06-24T09:05:36Z</time>
      </trkpt>
      <trkpt lat="43.87825" lon="3.85802">
        <ele>281.32</ele>
        <time>2012-06-24T09:05:37Z</time>
      </trkpt>
      <trkpt lat="43.87798" lon="3.85912">
        <ele>285.65</ele>
        <time>2012-06-24T09:05:42Z</time>
      </trkpt>
      <trkpt lat="43.87782" lon="3.85956">
        <ele>287.09</ele>
        <time>2012-06-24T09:05:44Z</time>
      </trkpt>
      <trkpt lat="43.87777" lon="3.85981">
        <ele>287.57</ele>
        <time>2012-06-24T09:05:45Z</time>
      </trkpt>
      <trkpt lat="43.87775" lon="3.86009">
        <ele>288.53</ele>
        <time>2012-06-24T09:05:46Z</time>
      </trkpt>
      <trkpt lat="43.87766" lon="3.86181">
        <ele>293.82</ele>
        <time>2012-06-24T09:05:53Z</time>
      </trkpt>
      <trkpt lat="43.87767" lon="3.86195">
        <ele>294.3</ele>
        <time>2012-06-24T09:05:54Z</time>
      </trkpt>
      <trkpt lat="43.87768" lon="3.86206">
        <ele>294.78</ele>
        <time>2012-06-24T09:05:55Z</time>
      </trkpt>
      <trkpt lat="43.87767" lon="3.86211">
        <ele>294.78</ele>
        <time>2012-06-24T09:05:56Z</time>
      </trkpt>
      <trkpt lat="43.87763" lon="3.86211">
        <ele>294.78</ele>
        <time>2012-06-24T09:05:57Z</time>
      </trkpt>
      <trkpt lat="43.87758" lon="3.86208">
        <ele>295.26</ele>
        <time>2012-06-24T09:05:58Z</time>
      </trkpt>
      <trkpt lat="43.87756" lon="3.862">
        <ele>295.26</ele>
        <time>2012-06-24T09:05:59Z</time>
      </trkpt>
      <trkpt lat="43.87754" lon="3.86188">
        <ele>295.74</ele>
        <time>2012-06-24T09:06:00Z</time>
      </trkpt>
      <trkpt lat="43.87753" lon="3.86168">
        <ele>295.74</ele>
        <time>2012-06-24T09:06:01Z</time>
      </trkpt>
      <trkpt lat="43.87752" lon="3.86145">
        <ele>296.7</ele>
        <time>2012-06-24T09:06:02Z</time>
      </trkpt>
      <trkpt lat="43.87748" lon="3.85998">
        <ele>301.51</ele>
        <time>2012-06-24T09:06:07Z</time>
      </trkpt>
      <trkpt lat="43.87747" lon="3.85945">
        <ele>303.91</ele>
        <time>2012-06-24T09:06:09Z</time>
      </trkpt>
      <trkpt lat="43.87751" lon="3.85919">
        <ele>304.88</ele>
        <time>2012-06-24T09:06:10Z</time>
      </trkpt>
      <trkpt lat="43.87757" lon="3.85891">
        <ele>305.84</ele>
        <time>2012-06-24T09:06:11Z</time>
      </trkpt>
      <trkpt lat="43.87774" lon="3.85791">
        <ele>309.2</ele>
        <time>2012-06-24T09:06:15Z</time>
      </trkpt>
      <trkpt lat="43.87775" lon="3.85765">
        <ele>310.16</ele>
        <time>2012-06-24T09:06:16Z</time>
      </trkpt>
      <trkpt lat="43.87766" lon="3.85677">
        <ele>313.05</ele>
        <time>2012-06-24T09:06:20Z</time>
      </trkpt>
      <trkpt lat="43.87761" lon="3.85659">
        <ele>314.01</ele>
        <time>2012-06-24T09:06:21Z</time>
      </trkpt>
      <trkpt lat="43.87753" lon="3.85644">
        <ele>314.49</ele>
        <time>2012-06-24T09:06:22Z</time>
      </trkpt>
      <trkpt lat="43.87743" lon="3.85631">
        <ele>315.45</ele>
        <time>2012-06-24T09:06:23Z</time>
      </trkpt>
      <trkpt lat="43.87731" lon="3.85622">
        <ele>316.41</ele>
        <time>2012-06-24T09:06:24Z</time>
      </trkpt>
      <trkpt lat="43.87714" lon="3.85616">
        <ele>316.89</ele>
        <time>2012-06-24T09:06:25Z</time>
      </trkpt>
      <trkpt lat="43.87695" lon="3.8561">
        <ele>317.37</ele>
        <time>2012-06-24T09:06:26Z</time>
      </trkpt>
      <trkpt lat="43.87584" lon="3.85539">
        <ele>323.14</ele>
        <time>2012-06-24T09:06:31Z</time>
      </trkpt>
      <trkpt lat="43.87507" lon="3.85465">
        <ele>329.39</ele>
        <time>2012-06-24T09:06:36Z</time>
      </trkpt>
      <trkpt lat="43.87502" lon="3.85449">
        <ele>330.83</ele>
        <time>2012-06-24T09:06:37Z</time>
      </trkpt>
      <trkpt lat="43.87499" lon="3.85431">
        <ele>331.79</ele>
        <time>2012-06-24T09:06:38Z</time>
      </trkpt>
      <trkpt lat="43.87494" lon="3.85393">
        <ele>333.71</ele>
        <time>2012-06-24T09:06:40Z</time>
      </trkpt>
      <trkpt lat="43.87489" lon="3.85376">
        <ele>334.68</ele>
        <time>2012-06-24T09:06:41Z</time>
      </trkpt>
      <trkpt lat="43.87482" lon="3.8536">
        <ele>335.16</ele>
        <time>2012-06-24T09:06:42Z</time>
      </trkpt>
      <trkpt lat="43.87472" lon="3.85347">
        <ele>336.12</ele>
        <time>2012-06-24T09:06:43Z</time>
      </trkpt>
      <trkpt lat="43.87461" lon="3.85335">
        <ele>336.6</ele>
        <time>2012-06-24T09:06:44Z</time>
      </trkpt>
      <trkpt lat="43.87447" lon="3.85324">
        <ele>337.08</ele>
        <time>2012-06-24T09:06:45Z</time>
      </trkpt>
      <trkpt lat="43.87433" lon="3.85312">
        <ele>337.08</ele>
        <time>2012-06-24T09:06:46Z</time>
      </trkpt>
      <trkpt lat="43.87318" lon="3.85224">
        <ele>334.2</ele>
        <time>2012-06-24T09:06:54Z</time>
      </trkpt>
      <trkpt lat="43.87301" lon="3.85217">
        <ele>333.71</ele>
        <time>2012-06-24T09:06:55Z</time>
      </trkpt>
      <trkpt lat="43.87166" lon="3.85184">
        <ele>330.35</ele>
        <time>2012-06-24T09:07:01Z</time>
      </trkpt>
      <trkpt lat="43.86973" lon="3.85141">
        <ele>326.99</ele>
        <time>2012-06-24T09:07:09Z</time>
      </trkpt>
      <trkpt lat="43.8695" lon="3.85141">
        <ele>326.99</ele>
        <time>2012-06-24T09:07:10Z</time>
      </trkpt>
      <trkpt lat="43.86926" lon="3.85145">
        <ele>326.99</ele>
        <time>2012-06-24T09:07:11Z</time>
      </trkpt>
      <trkpt lat="43.8664" lon="3.8521">
        <ele>327.95</ele>
        <time>2012-06-24T09:07:22Z</time>
      </trkpt>
      <trkpt lat="43.86286" lon="3.85281">
        <ele>324.58</ele>
        <time>2012-06-24T09:07:34Z</time>
      </trkpt>
      <trkpt lat="43.85851" lon="3.85316">
        <ele>321.7</ele>
        <time>2012-06-24T09:07:47Z</time>
      </trkpt>
      <trkpt lat="43.85279" lon="3.85364">
        <ele>319.3</ele>
        <time>2012-06-24T09:08:04Z</time>
      </trkpt>
      <trkpt lat="43.85123" lon="3.85378">
        <ele>322.66</ele>
        <time>2012-06-24T09:08:10Z</time>
      </trkpt>
      <trkpt lat="43.84972" lon="3.85417">
        <ele>322.18</ele>
        <time>2012-06-24T09:08:16Z</time>
      </trkpt>
      <trkpt lat="43.84699" lon="3.85503">
        <ele>317.37</ele>
        <time>2012-06-24T09:08:25Z</time>
      </trkpt>
      <trkpt lat="43.84363" lon="3.85608">
        <ele>318.33</ele>
        <time>2012-06-24T09:08:37Z</time>
      </trkpt>
      <trkpt lat="43.8399" lon="3.85726">
        <ele>324.1</ele>
        <time>2012-06-24T09:08:53Z</time>
      </trkpt>
      <trkpt lat="43.83804" lon="3.85759">
        <ele>322.66</ele>
        <time>2012-06-24T09:09:00Z</time>
      </trkpt>
      <trkpt lat="43.835" lon="3.85786">
        <ele>322.18</ele>
        <time>2012-06-24T09:09:10Z</time>
      </trkpt>
      <trkpt lat="43.83363" lon="3.85796">
        <ele>322.66</ele>
        <time>2012-06-24T09:09:16Z</time>
      </trkpt>
      <trkpt lat="43.83108" lon="3.85819">
        <ele>324.58</ele>
        <time>2012-06-24T09:09:27Z</time>
      </trkpt>
      <trkpt lat="43.82785" lon="3.85844">
        <ele>332.75</ele>
        <time>2012-06-24T09:09:41Z</time>
      </trkpt>
      <trkpt lat="43.82766" lon="3.8584">
        <ele>332.75</ele>
        <time>2012-06-24T09:09:42Z</time>
      </trkpt>
      <trkpt lat="43.82748" lon="3.85832">
        <ele>332.75</ele>
        <time>2012-06-24T09:09:43Z</time>
      </trkpt>
      <trkpt lat="43.8273" lon="3.8582">
        <ele>332.75</ele>
        <time>2012-06-24T09:09:44Z</time>
      </trkpt>
      <trkpt lat="43.82713" lon="3.85804">
        <ele>332.75</ele>
        <time>2012-06-24T09:09:45Z</time>
      </trkpt>
      <trkpt lat="43.82698" lon="3.85786">
        <ele>332.75</ele>
        <time>2012-06-24T09:09:46Z</time>
      </trkpt>
      <trkpt lat="43.82683" lon="3.85768">
        <ele>332.75</ele>
        <time>2012-06-24T09:09:47Z</time>
      </trkpt>
      <trkpt lat="43.82669" lon="3.85753">
        <ele>332.75</ele>
        <time>2012-06-24T09:09:48Z</time>
      </trkpt>
      <trkpt lat="43.82654" lon="3.85739">
        <ele>332.75</ele>
        <time>2012-06-24T09:09:49Z</time>
      </trkpt>
      <trkpt lat="43.82637" lon="3.8573">
        <ele>332.75</ele>
        <time>2012-06-24T09:09:50Z</time>
      </trkpt>
      <trkpt lat="43.82616" lon="3.85725">
        <ele>332.75</ele>
        <time>2012-06-24T09:09:51Z</time>
      </trkpt>
      <trkpt lat="43.82594" lon="3.85723">
        <ele>333.23</ele>
        <time>2012-06-24T09:09:52Z</time>
      </trkpt>
      <trkpt lat="43.8257" lon="3.85721">
        <ele>333.23</ele>
        <time>2012-06-24T09:09:53Z</time>
      </trkpt>
      <trkpt lat="43.82426" lon="3.85706">
        <ele>335.16</ele>
        <time>2012-06-24T09:10:00Z</time>
      </trkpt>
      <trkpt lat="43.82407" lon="3.857">
        <ele>334.68</ele>
        <time>2012-06-24T09:10:01Z</time>
      </trkpt>
      <trkpt lat="43.82387" lon="3.8569">
        <ele>335.16</ele>
        <time>2012-06-24T09:10:02Z</time>
      </trkpt>
      <trkpt lat="43.82367" lon="3.85677">
        <ele>334.68</ele>
        <time>2012-06-24T09:10:03Z</time>
      </trkpt>
      <trkpt lat="43.82173" lon="3.85531">
        <ele>334.68</ele>
        <time>2012-06-24T09:10:12Z</time>
      </trkpt>
      <trkpt lat="43.81857" lon="3.85296">
        <ele>331.31</ele>
        <time>2012-06-24T09:10:28Z</time>
      </trkpt>
      <trkpt lat="43.81741" lon="3.85204">
        <ele>329.39</ele>
        <time>2012-06-24T09:10:35Z</time>
      </trkpt>
      <trkpt lat="43.81731" lon="3.85201">
        <ele>329.39</ele>
        <time>2012-06-24T09:10:36Z</time>
      </trkpt>
      <trkpt lat="43.8172" lon="3.85202">
        <ele>329.39</ele>
        <time>2012-06-24T09:10:37Z</time>
      </trkpt>
      <trkpt lat="43.81709" lon="3.85208">
        <ele>328.91</ele>
        <time>2012-06-24T09:10:38Z</time>
      </trkpt>
      <trkpt lat="43.81699" lon="3.8522">
        <ele>328.91</ele>
        <time>2012-06-24T09:10:39Z</time>
      </trkpt>
      <trkpt lat="43.81691" lon="3.85235">
        <ele>328.91</ele>
        <time>2012-06-24T09:10:40Z</time>
      </trkpt>
      <trkpt lat="43.81683" lon="3.85253">
        <ele>328.43</ele>
        <time>2012-06-24T09:10:41Z</time>
      </trkpt>
      <trkpt lat="43.81677" lon="3.85274">
        <ele>327.95</ele>
        <time>2012-06-24T09:10:42Z</time>
      </trkpt>
      <trkpt lat="43.81674" lon="3.85294">
        <ele>327.47</ele>
        <time>2012-06-24T09:10:43Z</time>
      </trkpt>
      <trkpt lat="43.81673" lon="3.85314">
        <ele>326.99</ele>
        <time>2012-06-24T09:10:44Z</time>
      </trkpt>
      <trkpt lat="43.81674" lon="3.85332">
        <ele>326.5</ele>
        <time>2012-06-24T09:10:45Z</time>
      </trkpt>
      <trkpt lat="43.81678" lon="3.85346">
        <ele>326.02</ele>
        <time>2012-06-24T09:10:46Z</time>
      </trkpt>
      <trkpt lat="43.81683" lon="3.85356">
        <ele>325.54</ele>
        <time>2012-06-24T09:10:47Z</time>
      </trkpt>
      <trkpt lat="43.8169" lon="3.85363">
        <ele>325.06</ele>
        <time>2012-06-24T09:10:48Z</time>
      </trkpt>
      <trkpt lat="43.817" lon="3.85366">
        <ele>324.1</ele>
        <time>2012-06-24T09:10:49Z</time>
      </trkpt>
      <trkpt lat="43.8171" lon="3.85368">
        <ele>323.62</ele>
        <time>2012-06-24T09:10:50Z</time>
      </trkpt>
      <trkpt lat="43.81722" lon="3.85362">
        <ele>322.66</ele>
        <time>2012-06-24T09:10:51Z</time>
      </trkpt>
      <trkpt lat="43.81733" lon="3.85357">
        <ele>321.7</ele>
        <time>2012-06-24T09:10:52Z</time>
      </trkpt>
      <trkpt lat="43.81743" lon="3.85351">
        <ele>321.22</ele>
        <time>2012-06-24T09:10:53Z</time>
      </trkpt>
      <trkpt lat="43.81754" lon="3.8535">
        <ele>320.26</ele>
        <time>2012-06-24T09:10:54Z</time>
      </trkpt>
      <trkpt lat="43.81764" lon="3.85354">
        <ele>319.78</ele>
        <time>2012-06-24T09:10:55Z</time>
      </trkpt>
      <trkpt lat="43.81773" lon="3.85364">
        <ele>319.3</ele>
        <time>2012-06-24T09:10:56Z</time>
      </trkpt>
      <trkpt lat="43.81782" lon="3.85377">
        <ele>318.33</ele>
        <time>2012-06-24T09:10:57Z</time>
      </trkpt>
      <trkpt lat="43.81792" lon="3.85392">
        <ele>317.37</ele>
        <time>2012-06-24T09:10:58Z</time>
      </trkpt>
      <trkpt lat="43.81903" lon="3.85517">
        <ele>309.2</ele>
        <time>2012-06-24T09:11:08Z</time>
      </trkpt>
      <trkpt lat="43.81912" lon="3.85529">
        <ele>308.72</ele>
        <time>2012-06-24T09:11:09Z</time>
      </trkpt>
      <trkpt lat="43.81951" lon="3.85586">
        <ele>304.88</ele>
        <time>2012-06-24T09:11:15Z</time>
      </trkpt>
      <trkpt lat="43.81949" lon="3.8559">
        <ele>304.39</ele>
        <time>2012-06-24T09:11:16Z</time>
      </trkpt>
      <trkpt lat="43.81945" lon="3.85592">
        <ele>303.91</ele>
        <time>2012-06-24T09:11:17Z</time>
      </trkpt>
      <trkpt lat="43.81939" lon="3.8559">
        <ele>303.43</ele>
        <time>2012-06-24T09:11:18Z</time>
      </trkpt>
      <trkpt lat="43.81932" lon="3.85584">
        <ele>302.95</ele>
        <time>2012-06-24T09:11:19Z</time>
      </trkpt>
      <trkpt lat="43.81926" lon="3.85577">
        <ele>302.47</ele>
        <time>2012-06-24T09:11:20Z</time>
      </trkpt>
      <trkpt lat="43.81918" lon="3.85568">
        <ele>301.99</ele>
        <time>2012-06-24T09:11:21Z</time>
      </trkpt>
      <trkpt lat="43.81908" lon="3.85559">
        <ele>301.51</ele>
        <time>2012-06-24T09:11:22Z</time>
      </trkpt>
      <trkpt lat="43.81897" lon="3.8555">
        <ele>301.03</ele>
        <time>2012-06-24T09:11:23Z</time>
      </trkpt>
      <trkpt lat="43.81885" lon="3.85542">
        <ele>300.55</ele>
        <time>2012-06-24T09:11:24Z</time>
      </trkpt>
      <trkpt lat="43.8183" lon="3.85514">
        <ele>297.67</ele>
        <time>2012-06-24T09:11:30Z</time>
      </trkpt>
      <trkpt lat="43.81825" lon="3.85518">
        <ele>297.18</ele>
        <time>2012-06-24T09:11:31Z</time>
      </trkpt>
      <trkpt lat="43.81822" lon="3.85525">
        <ele>296.7</ele>
        <time>2012-06-24T09:11:32Z</time>
      </trkpt>
      <trkpt lat="43.81824" lon="3.85535">
        <ele>296.22</ele>
        <time>2012-06-24T09:11:33Z</time>
      </trkpt>
      <trkpt lat="43.81827" lon="3.85544">
        <ele>296.22</ele>
        <time>2012-06-24T09:11:34Z</time>
      </trkpt>
      <trkpt lat="43.81832" lon="3.85554">
        <ele>295.74</ele>
        <time>2012-06-24T09:11:35Z</time>
      </trkpt>
      <trkpt lat="43.81835" lon="3.85566">
        <ele>295.26</ele>
        <time>2012-06-24T09:11:36Z</time>
      </trkpt>
      <trkpt lat="43.81835" lon="3.85577">
        <ele>294.78</ele>
        <time>2012-06-24T09:11:37Z</time>
      </trkpt>
      <trkpt lat="43.81833" lon="3.85588">
        <ele>293.82</ele>
        <time>2012-06-24T09:11:38Z</time>
      </trkpt>
      <trkpt lat="43.81828" lon="3.85597">
        <ele>293.34</ele>
        <time>2012-06-24T09:11:39Z</time>
      </trkpt>
      <trkpt lat="43.8182" lon="3.85607">
        <ele>292.86</ele>
        <time>2012-06-24T09:11:40Z</time>
      </trkpt>
      <trkpt lat="43.8181" lon="3.85615">
        <ele>292.38</ele>
        <time>2012-06-24T09:11:41Z</time>
      </trkpt>
      <trkpt lat="43.81797" lon="3.85624">
        <ele>291.9</ele>
        <time>2012-06-24T09:11:42Z</time>
      </trkpt>
      <trkpt lat="43.81784" lon="3.85631">
        <ele>291.42</ele>
        <time>2012-06-24T09:11:43Z</time>
      </trkpt>
      <trkpt lat="43.8177" lon="3.85638">
        <ele>290.94</ele>
        <time>2012-06-24T09:11:44Z</time>
      </trkpt>
      <trkpt lat="43.81687" lon="3.85665">
        <ele>285.65</ele>
        <time>2012-06-24T09:11:50Z</time>
      </trkpt>
      <trkpt lat="43.81672" lon="3.85665">
        <ele>284.69</ele>
        <time>2012-06-24T09:11:51Z</time>
      </trkpt>
      <trkpt lat="43.81656" lon="3.85663">
        <ele>283.73</ele>
        <time>2012-06-24T09:11:52Z</time>
      </trkpt>
      <trkpt lat="43.81576" lon="3.85643">
        <ele>279.88</ele>
        <time>2012-06-24T09:11:57Z</time>
      </trkpt>
      <trkpt lat="43.81562" lon="3.85635">
        <ele>278.92</ele>
        <time>2012-06-24T09:11:58Z</time>
      </trkpt>
      <trkpt lat="43.81547" lon="3.85625">
        <ele>277.48</ele>
        <time>2012-06-24T09:11:59Z</time>
      </trkpt>
      <trkpt lat="43.81534" lon="3.85612">
        <ele>276.04</ele>
        <time>2012-06-24T09:12:00Z</time>
      </trkpt>
      <trkpt lat="43.81521" lon="3.85598">
        <ele>275.07</ele>
        <time>2012-06-24T09:12:01Z</time>
      </trkpt>
      <trkpt lat="43.81509" lon="3.85583">
        <ele>273.63</ele>
        <time>2012-06-24T09:12:02Z</time>
      </trkpt>
      <trkpt lat="43.81497" lon="3.85566">
        <ele>272.67</ele>
        <time>2012-06-24T09:12:03Z</time>
      </trkpt>
      <trkpt lat="43.81394" lon="3.85424">
        <ele>264.02</ele>
        <time>2012-06-24T09:12:11Z</time>
      </trkpt>
      <trkpt lat="43.81341" lon="3.85351">
        <ele>259.21</ele>
        <time>2012-06-24T09:12:16Z</time>
      </trkpt>
      <trkpt lat="43.81334" lon="3.85338">
        <ele>258.73</ele>
        <time>2012-06-24T09:12:17Z</time>
      </trkpt>
      <trkpt lat="43.81327" lon="3.85324">
        <ele>256.81</ele>
        <time>2012-06-24T09:12:19Z</time>
      </trkpt>
      <trkpt lat="43.81321" lon="3.85322">
        <ele>255.85</ele>
        <time>2012-06-24T09:12:20Z</time>
      </trkpt>
      <trkpt lat="43.8132" lon="3.85326">
        <ele>255.37</ele>
        <time>2012-06-24T09:12:21Z</time>
      </trkpt>
      <trkpt lat="43.81318" lon="3.85342">
        <ele>252.96</ele>
        <time>2012-06-24T09:12:23Z</time>
      </trkpt>
      <trkpt lat="43.81321" lon="3.85352">
        <ele>252</ele>
        <time>2012-06-24T09:12:24Z</time>
      </trkpt>
      <trkpt lat="43.81331" lon="3.85366">
        <ele>251.04</ele>
        <time>2012-06-24T09:12:25Z</time>
      </trkpt>
      <trkpt lat="43.8134" lon="3.85381">
        <ele>250.56</ele>
        <time>2012-06-24T09:12:26Z</time>
      </trkpt>
      <trkpt lat="43.81422" lon="3.8555">
        <ele>242.39</ele>
        <time>2012-06-24T09:12:35Z</time>
      </trkpt>
      <trkpt lat="43.81508" lon="3.85725">
        <ele>234.22</ele>
        <time>2012-06-24T09:12:44Z</time>
      </trkpt>
      <trkpt lat="43.81614" lon="3.85824">
        <ele>226.53</ele>
        <time>2012-06-24T09:12:52Z</time>
      </trkpt>
      <trkpt lat="43.81627" lon="3.8583">
        <ele>225.57</ele>
        <time>2012-06-24T09:12:53Z</time>
      </trkpt>
      <trkpt lat="43.81642" lon="3.85833">
        <ele>224.61</ele>
        <time>2012-06-24T09:12:54Z</time>
      </trkpt>
      <trkpt lat="43.81657" lon="3.85834">
        <ele>223.64</ele>
        <time>2012-06-24T09:12:55Z</time>
      </trkpt>
      <trkpt lat="43.81672" lon="3.85836">
        <ele>222.68</ele>
        <time>2012-06-24T09:12:56Z</time>
      </trkpt>
      <trkpt lat="43.81687" lon="3.85839">
        <ele>221.72</ele>
        <time>2012-06-24T09:12:57Z</time>
      </trkpt>
      <trkpt lat="43.817" lon="3.85842">
        <ele>220.76</ele>
        <time>2012-06-24T09:12:58Z</time>
      </trkpt>
      <trkpt lat="43.81719" lon="3.85855">
        <ele>218.84</ele>
        <time>2012-06-24T09:13:01Z</time>
      </trkpt>
      <trkpt lat="43.81717" lon="3.8586">
        <ele>218.36</ele>
        <time>2012-06-24T09:13:02Z</time>
      </trkpt>
      <trkpt lat="43.81712" lon="3.85866">
        <ele>216.43</ele>
        <time>2012-06-24T09:13:03Z</time>
      </trkpt>
      <trkpt lat="43.81698" lon="3.85863">
        <ele>215.95</ele>
        <time>2012-06-24T09:13:04Z</time>
      </trkpt>
      <trkpt lat="43.81687" lon="3.8586">
        <ele>215.47</ele>
        <time>2012-06-24T09:13:05Z</time>
      </trkpt>
      <trkpt lat="43.81675" lon="3.85858">
        <ele>214.99</ele>
        <time>2012-06-24T09:13:06Z</time>
      </trkpt>
      <trkpt lat="43.81647" lon="3.85864">
        <ele>213.55</ele>
        <time>2012-06-24T09:13:08Z</time>
      </trkpt>
      <trkpt lat="43.81635" lon="3.85873">
        <ele>212.11</ele>
        <time>2012-06-24T09:13:09Z</time>
      </trkpt>
      <trkpt lat="43.81623" lon="3.85879">
        <ele>211.15</ele>
        <time>2012-06-24T09:13:10Z</time>
      </trkpt>
      <trkpt lat="43.81611" lon="3.85881">
        <ele>210.67</ele>
        <time>2012-06-24T09:13:11Z</time>
      </trkpt>
      <trkpt lat="43.81596" lon="3.85878">
        <ele>209.7</ele>
        <time>2012-06-24T09:13:12Z</time>
      </trkpt>
      <trkpt lat="43.8158" lon="3.85875">
        <ele>209.22</ele>
        <time>2012-06-24T09:13:13Z</time>
      </trkpt>
      <trkpt lat="43.81535" lon="3.85863">
        <ele>206.34</ele>
        <time>2012-06-24T09:13:16Z</time>
      </trkpt>
      <trkpt lat="43.81506" lon="3.85855">
        <ele>204.42</ele>
        <time>2012-06-24T09:13:18Z</time>
      </trkpt>
      <trkpt lat="43.81491" lon="3.85855">
        <ele>203.46</ele>
        <time>2012-06-24T09:13:19Z</time>
      </trkpt>
      <trkpt lat="43.81474" lon="3.85858">
        <ele>202.49</ele>
        <time>2012-06-24T09:13:20Z</time>
      </trkpt>
      <trkpt lat="43.81456" lon="3.85859">
        <ele>202.01</ele>
        <time>2012-06-24T09:13:21Z</time>
      </trkpt>
      <trkpt lat="43.81438" lon="3.85858">
        <ele>201.53</ele>
        <time>2012-06-24T09:13:22Z</time>
      </trkpt>
      <trkpt lat="43.81425" lon="3.85854">
        <ele>200.57</ele>
        <time>2012-06-24T09:13:23Z</time>
      </trkpt>
      <trkpt lat="43.81415" lon="3.8585">
        <ele>200.09</ele>
        <time>2012-06-24T09:13:24Z</time>
      </trkpt>
      <trkpt lat="43.81408" lon="3.85842">
        <ele>199.61</ele>
        <time>2012-06-24T09:13:25Z</time>
      </trkpt>
      <trkpt lat="43.81403" lon="3.85834">
        <ele>199.13</ele>
        <time>2012-06-24T09:13:26Z</time>
      </trkpt>
      <trkpt lat="43.81398" lon="3.85826">
        <ele>198.65</ele>
        <time>2012-06-24T09:13:27Z</time>
      </trkpt>
      <trkpt lat="43.81394" lon="3.85823">
        <ele>197.69</ele>
        <time>2012-06-24T09:13:28Z</time>
      </trkpt>
      <trkpt lat="43.81391" lon="3.85827">
        <ele>197.21</ele>
        <time>2012-06-24T09:13:29Z</time>
      </trkpt>
      <trkpt lat="43.81401" lon="3.85856">
        <ele>194.8</ele>
        <time>2012-06-24T09:13:32Z</time>
      </trkpt>
      <trkpt lat="43.81412" lon="3.85871">
        <ele>194.8</ele>
        <time>2012-06-24T09:13:33Z</time>
      </trkpt>
      <trkpt lat="43.81424" lon="3.85886">
        <ele>194.32</ele>
        <time>2012-06-24T09:13:34Z</time>
      </trkpt>
      <trkpt lat="43.8145" lon="3.85927">
        <ele>192.88</ele>
        <time>2012-06-24T09:13:36Z</time>
      </trkpt>
      <trkpt lat="43.81461" lon="3.85953">
        <ele>191.92</ele>
        <time>2012-06-24T09:13:37Z</time>
      </trkpt>
      <trkpt lat="43.81471" lon="3.85978">
        <ele>190.96</ele>
        <time>2012-06-24T09:13:38Z</time>
      </trkpt>
      <trkpt lat="43.81514" lon="3.86104">
        <ele>188.56</ele>
        <time>2012-06-24T09:13:44Z</time>
      </trkpt>
      <trkpt lat="43.81518" lon="3.86119">
        <ele>188.08</ele>
        <time>2012-06-24T09:13:45Z</time>
      </trkpt>
      <trkpt lat="43.81519" lon="3.86132">
        <ele>187.11</ele>
        <time>2012-06-24T09:13:46Z</time>
      </trkpt>
      <trkpt lat="43.81516" lon="3.86145">
        <ele>186.15</ele>
        <time>2012-06-24T09:13:47Z</time>
      </trkpt>
      <trkpt lat="43.8151" lon="3.86155">
        <ele>186.15</ele>
        <time>2012-06-24T09:13:48Z</time>
      </trkpt>
      <trkpt lat="43.81499" lon="3.86165">
        <ele>185.67</ele>
        <time>2012-06-24T09:13:49Z</time>
      </trkpt>
      <trkpt lat="43.81483" lon="3.86176">
        <ele>185.67</ele>
        <time>2012-06-24T09:13:50Z</time>
      </trkpt>
      <trkpt lat="43.81466" lon="3.86185">
        <ele>185.19</ele>
        <time>2012-06-24T09:13:51Z</time>
      </trkpt>
      <trkpt lat="43.81448" lon="3.86192">
        <ele>185.19</ele>
        <time>2012-06-24T09:13:52Z</time>
      </trkpt>
      <trkpt lat="43.8143" lon="3.86197">
        <ele>184.71</ele>
        <time>2012-06-24T09:13:53Z</time>
      </trkpt>
      <trkpt lat="43.81412" lon="3.86201">
        <ele>184.23</ele>
        <time>2012-06-24T09:13:54Z</time>
      </trkpt>
      <trkpt lat="43.81348" lon="3.86224">
        <ele>182.31</ele>
        <time>2012-06-24T09:13:58Z</time>
      </trkpt>
      <trkpt lat="43.81334" lon="3.86234">
        <ele>181.83</ele>
        <time>2012-06-24T09:13:59Z</time>
      </trkpt>
      <trkpt lat="43.8132" lon="3.86246">
        <ele>181.35</ele>
        <time>2012-06-24T09:14:00Z</time>
      </trkpt>
      <trkpt lat="43.81306" lon="3.8626">
        <ele>180.38</ele>
        <time>2012-06-24T09:14:01Z</time>
      </trkpt>
      <trkpt lat="43.81293" lon="3.86276">
        <ele>179.42</ele>
        <time>2012-06-24T09:14:02Z</time>
      </trkpt>
      <trkpt lat="43.8111" lon="3.8649">
        <ele>170.29</ele>
        <time>2012-06-24T09:14:14Z</time>
      </trkpt>
      <trkpt lat="43.81036" lon="3.86579">
        <ele>166.93</ele>
        <time>2012-06-24T09:14:19Z</time>
      </trkpt>
      <trkpt lat="43.81024" lon="3.86599">
        <ele>166.45</ele>
        <time>2012-06-24T09:14:20Z</time>
      </trkpt>
      <trkpt lat="43.80916" lon="3.86825">
        <ele>161.16</ele>
        <time>2012-06-24T09:14:29Z</time>
      </trkpt>
      <trkpt lat="43.80851" lon="3.86957">
        <ele>159.24</ele>
        <time>2012-06-24T09:14:35Z</time>
      </trkpt>
      <trkpt lat="43.80839" lon="3.86973">
        <ele>158.75</ele>
        <time>2012-06-24T09:14:36Z</time>
      </trkpt>
      <trkpt lat="43.80825" lon="3.86985">
        <ele>158.27</ele>
        <time>2012-06-24T09:14:37Z</time>
      </trkpt>
      <trkpt lat="43.80808" lon="3.86996">
        <ele>157.79</ele>
        <time>2012-06-24T09:14:38Z</time>
      </trkpt>
      <trkpt lat="43.80789" lon="3.87007">
        <ele>157.31</ele>
        <time>2012-06-24T09:14:39Z</time>
      </trkpt>
      <trkpt lat="43.80605" lon="3.87122">
        <ele>154.43</ele>
        <time>2012-06-24T09:14:48Z</time>
      </trkpt>
      <trkpt lat="43.80423" lon="3.87241">
        <ele>149.14</ele>
        <time>2012-06-24T09:14:58Z</time>
      </trkpt>
      <trkpt lat="43.80405" lon="3.87253">
        <ele>149.14</ele>
        <time>2012-06-24T09:15:00Z</time>
      </trkpt>
      <trkpt lat="43.80391" lon="3.87261">
        <ele>148.66</ele>
        <time>2012-06-24T09:15:02Z</time>
      </trkpt>
      <trkpt lat="43.80386" lon="3.87267">
        <ele>148.66</ele>
        <time>2012-06-24T09:15:03Z</time>
      </trkpt>
      <trkpt lat="43.80385" lon="3.87275">
        <ele>148.18</ele>
        <time>2012-06-24T09:15:04Z</time>
      </trkpt>
      <trkpt lat="43.80387" lon="3.87284">
        <ele>148.18</ele>
        <time>2012-06-24T09:15:05Z</time>
      </trkpt>
      <trkpt lat="43.80391" lon="3.87293">
        <ele>147.7</ele>
        <time>2012-06-24T09:15:06Z</time>
      </trkpt>
      <trkpt lat="43.80396" lon="3.87306">
        <ele>147.22</ele>
        <time>2012-06-24T09:15:07Z</time>
      </trkpt>
      <trkpt lat="43.80397" lon="3.87322">
        <ele>147.7</ele>
        <time>2012-06-24T09:15:08Z</time>
      </trkpt>
      <trkpt lat="43.80396" lon="3.8734">
        <ele>148.18</ele>
        <time>2012-06-24T09:15:09Z</time>
      </trkpt>
      <trkpt lat="43.80394" lon="3.87362">
        <ele>148.66</ele>
        <time>2012-06-24T09:15:10Z</time>
      </trkpt>
      <trkpt lat="43.80364" lon="3.87556">
        <ele>151.54</ele>
        <time>2012-06-24T09:15:18Z</time>
      </trkpt>
      <trkpt lat="43.80331" lon="3.87728">
        <ele>147.7</ele>
        <time>2012-06-24T09:15:26Z</time>
      </trkpt>
      <trkpt lat="43.80298" lon="3.87879">
        <ele>145.3</ele>
        <time>2012-06-24T09:15:35Z</time>
      </trkpt>
      <trkpt lat="43.80295" lon="3.87889">
        <ele>145.3</ele>
        <time>2012-06-24T09:15:36Z</time>
      </trkpt>
      <trkpt lat="43.80292" lon="3.87896">
        <ele>145.3</ele>
        <time>2012-06-24T09:15:37Z</time>
      </trkpt>
      <trkpt lat="43.80287" lon="3.87902">
        <ele>144.82</ele>
        <time>2012-06-24T09:15:38Z</time>
      </trkpt>
      <trkpt lat="43.80281" lon="3.87907">
        <ele>144.82</ele>
        <time>2012-06-24T09:15:39Z</time>
      </trkpt>
      <trkpt lat="43.80273" lon="3.87905">
        <ele>144.34</ele>
        <time>2012-06-24T09:15:40Z</time>
      </trkpt>
      <trkpt lat="43.80263" lon="3.879">
        <ele>144.34</ele>
        <time>2012-06-24T09:15:41Z</time>
      </trkpt>
      <trkpt lat="43.80251" lon="3.87895">
        <ele>143.85</ele>
        <time>2012-06-24T09:15:42Z</time>
      </trkpt>
      <trkpt lat="43.80238" lon="3.87888">
        <ele>144.34</ele>
        <time>2012-06-24T09:15:43Z</time>
      </trkpt>
      <trkpt lat="43.80121" lon="3.87819">
        <ele>145.78</ele>
        <time>2012-06-24T09:15:50Z</time>
      </trkpt>
      <trkpt lat="43.79913" lon="3.87693">
        <ele>153.47</ele>
        <time>2012-06-24T09:16:02Z</time>
      </trkpt>
      <trkpt lat="43.79765" lon="3.87659">
        <ele>154.43</ele>
        <time>2012-06-24T09:16:10Z</time>
      </trkpt>
      <trkpt lat="43.79553" lon="3.87612">
        <ele>148.18</ele>
        <time>2012-06-24T09:16:19Z</time>
      </trkpt>
      <trkpt lat="43.79329" lon="3.87564">
        <ele>141.93</ele>
        <time>2012-06-24T09:16:28Z</time>
      </trkpt>
      <trkpt lat="43.79082" lon="3.87504">
        <ele>137.61</ele>
        <time>2012-06-24T09:16:38Z</time>
      </trkpt>
      <trkpt lat="43.78798" lon="3.87416">
        <ele>135.68</ele>
        <time>2012-06-24T09:16:51Z</time>
      </trkpt>
      <trkpt lat="43.78578" lon="3.87346">
        <ele>134.24</ele>
        <time>2012-06-24T09:17:02Z</time>
      </trkpt>
      <trkpt lat="43.78287" lon="3.87255">
        <ele>128.95</ele>
        <time>2012-06-24T09:17:15Z</time>
      </trkpt>
      <trkpt lat="43.77915" lon="3.87138">
        <ele>122.22</ele>
        <time>2012-06-24T09:17:31Z</time>
      </trkpt>
      <trkpt lat="43.77563" lon="3.87026">
        <ele>116.94</ele>
        <time>2012-06-24T09:17:47Z</time>
      </trkpt>
      <trkpt lat="43.77465" lon="3.86995">
        <ele>115.01</ele>
        <time>2012-06-24T09:17:53Z</time>
      </trkpt>
      <trkpt lat="43.77457" lon="3.8699">
        <ele>115.01</ele>
        <time>2012-06-24T09:17:54Z</time>
      </trkpt>
      <trkpt lat="43.77452" lon="3.86982">
        <ele>115.01</ele>
        <time>2012-06-24T09:17:55Z</time>
      </trkpt>
      <trkpt lat="43.77448" lon="3.86971">
        <ele>115.01</ele>
        <time>2012-06-24T09:17:56Z</time>
      </trkpt>
      <trkpt lat="43.77443" lon="3.86959">
        <ele>115.01</ele>
        <time>2012-06-24T09:17:57Z</time>
      </trkpt>
      <trkpt lat="43.77438" lon="3.86947">
        <ele>114.53</ele>
        <time>2012-06-24T09:17:58Z</time>
      </trkpt>
      <trkpt lat="43.77432" lon="3.86939">
        <ele>114.53</ele>
        <time>2012-06-24T09:17:59Z</time>
      </trkpt>
      <trkpt lat="43.77424" lon="3.86935">
        <ele>114.53</ele>
        <time>2012-06-24T09:18:00Z</time>
      </trkpt>
      <trkpt lat="43.77414" lon="3.86937">
        <ele>114.05</ele>
        <time>2012-06-24T09:18:01Z</time>
      </trkpt>
      <trkpt lat="43.77404" lon="3.86942">
        <ele>114.05</ele>
        <time>2012-06-24T09:18:02Z</time>
      </trkpt>
      <trkpt lat="43.77393" lon="3.86945">
        <ele>114.05</ele>
        <time>2012-06-24T09:18:03Z</time>
      </trkpt>
      <trkpt lat="43.77381" lon="3.86946">
        <ele>113.57</ele>
        <time>2012-06-24T09:18:04Z</time>
      </trkpt>
      <trkpt lat="43.77368" lon="3.86944">
        <ele>113.09</ele>
        <time>2012-06-24T09:18:05Z</time>
      </trkpt>
      <trkpt lat="43.77354" lon="3.86942">
        <ele>112.61</ele>
        <time>2012-06-24T09:18:06Z</time>
      </trkpt>
      <trkpt lat="43.77236" lon="3.86906">
        <ele>108.29</ele>
        <time>2012-06-24T09:18:16Z</time>
      </trkpt>
      <trkpt lat="43.77095" lon="3.86855">
        <ele>103.96</ele>
        <time>2012-06-24T09:18:30Z</time>
      </trkpt>
      <trkpt lat="43.76998" lon="3.86819">
        <ele>102.52</ele>
        <time>2012-06-24T09:18:42Z</time>
      </trkpt>
      <trkpt lat="43.76919" lon="3.86789">
        <ele>102.52</ele>
        <time>2012-06-24T09:18:53Z</time>
      </trkpt>
      <trkpt lat="43.76856" lon="3.86768">
        <ele>103</ele>
        <time>2012-06-24T09:19:04Z</time>
      </trkpt>
      <trkpt lat="43.76796" lon="3.86746">
        <ele>103.96</ele>
        <time>2012-06-24T09:19:15Z</time>
      </trkpt>
      <trkpt lat="43.76718" lon="3.86717">
        <ele>105.4</ele>
        <time>2012-06-24T09:19:29Z</time>
      </trkpt>
      <trkpt lat="43.76655" lon="3.86685">
        <ele>103.96</ele>
        <time>2012-06-24T09:19:39Z</time>
      </trkpt>
      <trkpt lat="43.76599" lon="3.86645">
        <ele>102.52</ele>
        <time>2012-06-24T09:19:49Z</time>
      </trkpt>
      <trkpt lat="43.76589" lon="3.86635">
        <ele>102.04</ele>
        <time>2012-06-24T09:19:51Z</time>
      </trkpt>
      <trkpt lat="43.76582" lon="3.86632">
        <ele>102.04</ele>
        <time>2012-06-24T09:19:52Z</time>
      </trkpt>
      <trkpt lat="43.765" lon="3.8658">
        <ele>100.11</ele>
        <time>2012-06-24T09:20:01Z</time>
      </trkpt>
      <trkpt lat="43.76383" lon="3.86503">
        <ele>98.19</ele>
        <time>2012-06-24T09:20:12Z</time>
      </trkpt>
      <trkpt lat="43.76292" lon="3.86442">
        <ele>96.27</ele>
        <time>2012-06-24T09:20:20Z</time>
      </trkpt>
      <trkpt lat="43.76196" lon="3.86379">
        <ele>94.35</ele>
        <time>2012-06-24T09:20:29Z</time>
      </trkpt>
      <trkpt lat="43.76164" lon="3.86355">
        <ele>94.83</ele>
        <time>2012-06-24T09:20:33Z</time>
      </trkpt>
      <trkpt lat="43.76157" lon="3.86346">
        <ele>94.83</ele>
        <time>2012-06-24T09:20:34Z</time>
      </trkpt>
      <trkpt lat="43.76152" lon="3.86336">
        <ele>94.83</ele>
        <time>2012-06-24T09:20:35Z</time>
      </trkpt>
      <trkpt lat="43.76146" lon="3.86325">
        <ele>94.83</ele>
        <time>2012-06-24T09:20:36Z</time>
      </trkpt>
      <trkpt lat="43.76139" lon="3.86316">
        <ele>94.83</ele>
        <time>2012-06-24T09:20:37Z</time>
      </trkpt>
      <trkpt lat="43.76131" lon="3.86311">
        <ele>94.83</ele>
        <time>2012-06-24T09:20:38Z</time>
      </trkpt>
      <trkpt lat="43.76121" lon="3.8631">
        <ele>94.35</ele>
        <time>2012-06-24T09:20:39Z</time>
      </trkpt>
      <trkpt lat="43.7611" lon="3.86311">
        <ele>94.35</ele>
        <time>2012-06-24T09:20:40Z</time>
      </trkpt>
      <trkpt lat="43.76099" lon="3.86309">
        <ele>93.87</ele>
        <time>2012-06-24T09:20:41Z</time>
      </trkpt>
      <trkpt lat="43.76087" lon="3.86304">
        <ele>93.87</ele>
        <time>2012-06-24T09:20:42Z</time>
      </trkpt>
      <trkpt lat="43.76074" lon="3.86297">
        <ele>93.87</ele>
        <time>2012-06-24T09:20:43Z</time>
      </trkpt>
      <trkpt lat="43.7606" lon="3.86288">
        <ele>94.35</ele>
        <time>2012-06-24T09:20:44Z</time>
      </trkpt>
      <trkpt lat="43.75914" lon="3.86192">
        <ele>93.39</ele>
        <time>2012-06-24T09:20:53Z</time>
      </trkpt>
      <trkpt lat="43.75639" lon="3.86011">
        <ele>91.94</ele>
        <time>2012-06-24T09:21:10Z</time>
      </trkpt>
      <trkpt lat="43.75484" lon="3.85975">
        <ele>92.42</ele>
        <time>2012-06-24T09:21:18Z</time>
      </trkpt>
      <trkpt lat="43.75277" lon="3.85938">
        <ele>90.02</ele>
        <time>2012-06-24T09:21:27Z</time>
      </trkpt>
      <trkpt lat="43.75054" lon="3.85892">
        <ele>87.62</ele>
        <time>2012-06-24T09:21:35Z</time>
      </trkpt>
      <trkpt lat="43.74852" lon="3.85861">
        <ele>86.66</ele>
        <time>2012-06-24T09:21:43Z</time>
      </trkpt>
      <trkpt lat="43.74827" lon="3.85864">
        <ele>86.18</ele>
        <time>2012-06-24T09:21:44Z</time>
      </trkpt>
      <trkpt lat="43.74803" lon="3.85874">
        <ele>86.18</ele>
        <time>2012-06-24T09:21:45Z</time>
      </trkpt>
      <trkpt lat="43.74778" lon="3.85888">
        <ele>86.18</ele>
        <time>2012-06-24T09:21:46Z</time>
      </trkpt>
      <trkpt lat="43.74753" lon="3.85907">
        <ele>86.18</ele>
        <time>2012-06-24T09:21:47Z</time>
      </trkpt>
      <trkpt lat="43.74728" lon="3.85928">
        <ele>86.18</ele>
        <time>2012-06-24T09:21:48Z</time>
      </trkpt>
      <trkpt lat="43.74702" lon="3.85951">
        <ele>85.69</ele>
        <time>2012-06-24T09:21:49Z</time>
      </trkpt>
      <trkpt lat="43.74442" lon="3.86203">
        <ele>84.25</ele>
        <time>2012-06-24T09:21:59Z</time>
      </trkpt>
      <trkpt lat="43.74183" lon="3.86452">
        <ele>86.66</ele>
        <time>2012-06-24T09:22:10Z</time>
      </trkpt>
      <trkpt lat="43.74041" lon="3.86559">
        <ele>85.21</ele>
        <time>2012-06-24T09:22:16Z</time>
      </trkpt>
      <trkpt lat="43.73867" lon="3.86675">
        <ele>81.85</ele>
        <time>2012-06-24T09:22:24Z</time>
      </trkpt>
      <trkpt lat="43.73706" lon="3.86737">
        <ele>81.37</ele>
        <time>2012-06-24T09:22:31Z</time>
      </trkpt>
      <trkpt lat="43.7354" lon="3.86746">
        <ele>81.37</ele>
        <time>2012-06-24T09:22:38Z</time>
      </trkpt>
      <trkpt lat="43.73337" lon="3.86767">
        <ele>81.37</ele>
        <time>2012-06-24T09:22:47Z</time>
      </trkpt>
      <trkpt lat="43.73317" lon="3.86776">
        <ele>81.37</ele>
        <time>2012-06-24T09:22:48Z</time>
      </trkpt>
      <trkpt lat="43.73296" lon="3.86787">
        <ele>81.37</ele>
        <time>2012-06-24T09:22:49Z</time>
      </trkpt>
      <trkpt lat="43.73115" lon="3.86905">
        <ele>82.81</ele>
        <time>2012-06-24T09:22:59Z</time>
      </trkpt>
      <trkpt lat="43.73054" lon="3.86939">
        <ele>85.69</ele>
        <time>2012-06-24T09:23:05Z</time>
      </trkpt>
      <trkpt lat="43.73047" lon="3.8694">
        <ele>86.18</ele>
        <time>2012-06-24T09:23:06Z</time>
      </trkpt>
      <trkpt lat="43.7304" lon="3.86939">
        <ele>86.18</ele>
        <time>2012-06-24T09:23:07Z</time>
      </trkpt>
      <trkpt lat="43.73032" lon="3.86939">
        <ele>86.66</ele>
        <time>2012-06-24T09:23:08Z</time>
      </trkpt>
      <trkpt lat="43.73023" lon="3.86942">
        <ele>87.14</ele>
        <time>2012-06-24T09:23:09Z</time>
      </trkpt>
      <trkpt lat="43.73015" lon="3.86947">
        <ele>87.14</ele>
        <time>2012-06-24T09:23:10Z</time>
      </trkpt>
      <trkpt lat="43.73007" lon="3.86955">
        <ele>87.14</ele>
        <time>2012-06-24T09:23:11Z</time>
      </trkpt>
      <trkpt lat="43.72999" lon="3.86961">
        <ele>87.62</ele>
        <time>2012-06-24T09:23:12Z</time>
      </trkpt>
      <trkpt lat="43.7299" lon="3.86965">
        <ele>87.62</ele>
        <time>2012-06-24T09:23:13Z</time>
      </trkpt>
      <trkpt lat="43.72981" lon="3.86968">
        <ele>88.1</ele>
        <time>2012-06-24T09:23:14Z</time>
      </trkpt>
      <trkpt lat="43.72864" lon="3.8699">
        <ele>87.62</ele>
        <time>2012-06-24T09:23:25Z</time>
      </trkpt>
      <trkpt lat="43.72855" lon="3.86989">
        <ele>87.62</ele>
        <time>2012-06-24T09:23:26Z</time>
      </trkpt>
      <trkpt lat="43.72846" lon="3.86986">
        <ele>87.62</ele>
        <time>2012-06-24T09:23:27Z</time>
      </trkpt>
      <trkpt lat="43.72837" lon="3.86984">
        <ele>87.62</ele>
        <time>2012-06-24T09:23:28Z</time>
      </trkpt>
      <trkpt lat="43.72829" lon="3.86985">
        <ele>87.14</ele>
        <time>2012-06-24T09:23:29Z</time>
      </trkpt>
      <trkpt lat="43.7282" lon="3.86989">
        <ele>87.14</ele>
        <time>2012-06-24T09:23:30Z</time>
      </trkpt>
      <trkpt lat="43.72811" lon="3.86994">
        <ele>86.66</ele>
        <time>2012-06-24T09:23:31Z</time>
      </trkpt>
      <trkpt lat="43.72802" lon="3.87">
        <ele>86.18</ele>
        <time>2012-06-24T09:23:32Z</time>
      </trkpt>
      <trkpt lat="43.72792" lon="3.87003">
        <ele>85.69</ele>
        <time>2012-06-24T09:23:33Z</time>
      </trkpt>
      <trkpt lat="43.72781" lon="3.87005">
        <ele>85.21</ele>
        <time>2012-06-24T09:23:34Z</time>
      </trkpt>
      <trkpt lat="43.72768" lon="3.87007">
        <ele>84.73</ele>
        <time>2012-06-24T09:23:35Z</time>
      </trkpt>
      <trkpt lat="43.72755" lon="3.87007">
        <ele>83.77</ele>
        <time>2012-06-24T09:23:36Z</time>
      </trkpt>
      <trkpt lat="43.7269" lon="3.86994">
        <ele>81.37</ele>
        <time>2012-06-24T09:23:40Z</time>
      </trkpt>
      <trkpt lat="43.72672" lon="3.86986">
        <ele>80.89</ele>
        <time>2012-06-24T09:23:41Z</time>
      </trkpt>
      <trkpt lat="43.72654" lon="3.86975">
        <ele>80.41</ele>
        <time>2012-06-24T09:23:42Z</time>
      </trkpt>
      <trkpt lat="43.72507" lon="3.86902">
        <ele>78.97</ele>
        <time>2012-06-24T09:23:50Z</time>
      </trkpt>
      <trkpt lat="43.72216" lon="3.86852">
        <ele>77.52</ele>
        <time>2012-06-24T09:24:05Z</time>
      </trkpt>
      <trkpt lat="43.72198" lon="3.86854">
        <ele>78.48</ele>
        <time>2012-06-24T09:24:06Z</time>
      </trkpt>
      <trkpt lat="43.72182" lon="3.86859">
        <ele>78.97</ele>
        <time>2012-06-24T09:24:07Z</time>
      </trkpt>
      <trkpt lat="43.72166" lon="3.86866">
        <ele>79.45</ele>
        <time>2012-06-24T09:24:08Z</time>
      </trkpt>
      <trkpt lat="43.72086" lon="3.86901">
        <ele>78</ele>
        <time>2012-06-24T09:24:13Z</time>
      </trkpt>
      <trkpt lat="43.72068" lon="3.86903">
        <ele>77.52</ele>
        <time>2012-06-24T09:24:14Z</time>
      </trkpt>
      <trkpt lat="43.7205" lon="3.86902">
        <ele>77.04</ele>
        <time>2012-06-24T09:24:15Z</time>
      </trkpt>
      <trkpt lat="43.72031" lon="3.86899">
        <ele>76.56</ele>
        <time>2012-06-24T09:24:16Z</time>
      </trkpt>
      <trkpt lat="43.72011" lon="3.86894">
        <ele>76.08</ele>
        <time>2012-06-24T09:24:17Z</time>
      </trkpt>
      <trkpt lat="43.71991" lon="3.86887">
        <ele>75.6</ele>
        <time>2012-06-24T09:24:18Z</time>
      </trkpt>
      <trkpt lat="43.71805" lon="3.86808">
        <ele>74.16</ele>
        <time>2012-06-24T09:24:27Z</time>
      </trkpt>
      <trkpt lat="43.71625" lon="3.86711">
        <ele>71.76</ele>
        <time>2012-06-24T09:24:36Z</time>
      </trkpt>
      <trkpt lat="43.71426" lon="3.86661">
        <ele>71.27</ele>
        <time>2012-06-24T09:24:46Z</time>
      </trkpt>
      <trkpt lat="43.71214" lon="3.86697">
        <ele>70.31</ele>
        <time>2012-06-24T09:24:56Z</time>
      </trkpt>
      <trkpt lat="43.7096" lon="3.86758">
        <ele>69.35</ele>
        <time>2012-06-24T09:25:08Z</time>
      </trkpt>
      <trkpt lat="43.70708" lon="3.86786">
        <ele>68.87</ele>
        <time>2012-06-24T09:25:20Z</time>
      </trkpt>
      <trkpt lat="43.70527" lon="3.868">
        <ele>68.39</ele>
        <time>2012-06-24T09:25:27Z</time>
      </trkpt>
      <trkpt lat="43.70461" lon="3.868">
        <ele>68.87</ele>
        <time>2012-06-24T09:25:30Z</time>
      </trkpt>
      <trkpt lat="43.7044" lon="3.86795">
        <ele>68.87</ele>
        <time>2012-06-24T09:25:31Z</time>
      </trkpt>
      <trkpt lat="43.70419" lon="3.86786">
        <ele>68.87</ele>
        <time>2012-06-24T09:25:32Z</time>
      </trkpt>
      <trkpt lat="43.70399" lon="3.86774">
        <ele>69.35</ele>
        <time>2012-06-24T09:25:33Z</time>
      </trkpt>
      <trkpt lat="43.7038" lon="3.8676">
        <ele>69.35</ele>
        <time>2012-06-24T09:25:34Z</time>
      </trkpt>
      <trkpt lat="43.70363" lon="3.86743">
        <ele>69.35</ele>
        <time>2012-06-24T09:25:35Z</time>
      </trkpt>
      <trkpt lat="43.70349" lon="3.86724">
        <ele>69.83</ele>
        <time>2012-06-24T09:25:36Z</time>
      </trkpt>
      <trkpt lat="43.70336" lon="3.86703">
        <ele>69.83</ele>
        <time>2012-06-24T09:25:37Z</time>
      </trkpt>
      <trkpt lat="43.70326" lon="3.86681">
        <ele>69.35</ele>
        <time>2012-06-24T09:25:38Z</time>
      </trkpt>
      <trkpt lat="43.70316" lon="3.86659">
        <ele>69.35</ele>
        <time>2012-06-24T09:25:39Z</time>
      </trkpt>
      <trkpt lat="43.70307" lon="3.86637">
        <ele>69.35</ele>
        <time>2012-06-24T09:25:40Z</time>
      </trkpt>
      <trkpt lat="43.70254" lon="3.86493">
        <ele>68.87</ele>
        <time>2012-06-24T09:25:48Z</time>
      </trkpt>
      <trkpt lat="43.70224" lon="3.86407">
        <ele>68.87</ele>
        <time>2012-06-24T09:25:56Z</time>
      </trkpt>
      <trkpt lat="43.70175" lon="3.86315">
        <ele>68.87</ele>
        <time>2012-06-24T09:26:07Z</time>
      </trkpt>
      <trkpt lat="43.70101" lon="3.86266">
        <ele>65.99</ele>
        <time>2012-06-24T09:26:18Z</time>
      </trkpt>
      <trkpt lat="43.70075" lon="3.86252">
        <ele>65.99</ele>
        <time>2012-06-24T09:26:26Z</time>
      </trkpt>
      <trkpt lat="43.70068" lon="3.86242">
        <ele>65.99</ele>
        <time>2012-06-24T09:26:29Z</time>
      </trkpt>
      <trkpt lat="43.70065" lon="3.8624">
        <ele>65.51</ele>
        <time>2012-06-24T09:26:30Z</time>
      </trkpt>
      <trkpt lat="43.7006" lon="3.86241">
        <ele>65.51</ele>
        <time>2012-06-24T09:26:31Z</time>
      </trkpt>
      <trkpt lat="43.70055" lon="3.86243">
        <ele>65.03</ele>
        <time>2012-06-24T09:26:32Z</time>
      </trkpt>
      <trkpt lat="43.70049" lon="3.86246">
        <ele>65.03</ele>
        <time>2012-06-24T09:26:33Z</time>
      </trkpt>
      <trkpt lat="43.70043" lon="3.86247">
        <ele>65.03</ele>
        <time>2012-06-24T09:26:34Z</time>
      </trkpt>
      <trkpt lat="43.70037" lon="3.86248">
        <ele>65.03</ele>
        <time>2012-06-24T09:26:35Z</time>
      </trkpt>
      <trkpt lat="43.7003" lon="3.86247">
        <ele>64.55</ele>
        <time>2012-06-24T09:26:36Z</time>
      </trkpt>
      <trkpt lat="43.69943" lon="3.86235">
        <ele>65.03</ele>
        <time>2012-06-24T09:26:47Z</time>
      </trkpt>
      <trkpt lat="43.69872" lon="3.86251">
        <ele>66.95</ele>
        <time>2012-06-24T09:26:56Z</time>
      </trkpt>
      <trkpt lat="43.69809" lon="3.86292">
        <ele>68.87</ele>
        <time>2012-06-24T09:27:07Z</time>
      </trkpt>
      <trkpt lat="43.69787" lon="3.86299">
        <ele>70.31</ele>
        <time>2012-06-24T09:27:15Z</time>
      </trkpt>
      <trkpt lat="43.69765" lon="3.86299">
        <ele>70.79</ele>
        <time>2012-06-24T09:27:19Z</time>
      </trkpt>
      <trkpt lat="43.69755" lon="3.86296">
        <ele>69.83</ele>
        <time>2012-06-24T09:27:21Z</time>
      </trkpt>
      <trkpt lat="43.69751" lon="3.86294">
        <ele>69.83</ele>
        <time>2012-06-24T09:27:22Z</time>
      </trkpt>
      <trkpt lat="43.69746" lon="3.86293">
        <ele>69.35</ele>
        <time>2012-06-24T09:27:23Z</time>
      </trkpt>
      <trkpt lat="43.69688" lon="3.86284">
        <ele>68.87</ele>
        <time>2012-06-24T09:27:30Z</time>
      </trkpt>
      <trkpt lat="43.6959" lon="3.86268">
        <ele>68.39</ele>
        <time>2012-06-24T09:27:42Z</time>
      </trkpt>
      <trkpt lat="43.69504" lon="3.86253">
        <ele>68.87</ele>
        <time>2012-06-24T09:27:51Z</time>
      </trkpt>
      <trkpt lat="43.69429" lon="3.86248">
        <ele>66.95</ele>
        <time>2012-06-24T09:28:01Z</time>
      </trkpt>
      <trkpt lat="43.69431" lon="3.86249">
        <ele>66.47</ele>
        <time>2012-06-24T09:28:12Z</time>
      </trkpt>
      <trkpt lat="43.69408" lon="3.86251">
        <ele>69.35</ele>
        <time>2012-06-24T09:28:41Z</time>
      </trkpt>
      <trkpt lat="43.69332" lon="3.86251">
        <ele>69.35</ele>
        <time>2012-06-24T09:28:50Z</time>
      </trkpt>
      <trkpt lat="43.69221" lon="3.86272">
        <ele>70.31</ele>
        <time>2012-06-24T09:29:01Z</time>
      </trkpt>
      <trkpt lat="43.6915" lon="3.86278">
        <ele>69.83</ele>
        <time>2012-06-24T09:29:11Z</time>
      </trkpt>
      <trkpt lat="43.69046" lon="3.86275">
        <ele>65.51</ele>
        <time>2012-06-24T09:29:21Z</time>
      </trkpt>
      <trkpt lat="43.68957" lon="3.86276">
        <ele>65.03</ele>
        <time>2012-06-24T09:29:28Z</time>
      </trkpt>
      <trkpt lat="43.68862" lon="3.86302">
        <ele>63.1</ele>
        <time>2012-06-24T09:29:37Z</time>
      </trkpt>
      <trkpt lat="43.68722" lon="3.86353">
        <ele>61.66</ele>
        <time>2012-06-24T09:29:50Z</time>
      </trkpt>
      <trkpt lat="43.68667" lon="3.86377">
        <ele>61.66</ele>
        <time>2012-06-24T09:29:56Z</time>
      </trkpt>
      <trkpt lat="43.68652" lon="3.86382">
        <ele>61.66</ele>
        <time>2012-06-24T09:29:58Z</time>
      </trkpt>
      <trkpt lat="43.68634" lon="3.86387">
        <ele>61.66</ele>
        <time>2012-06-24T09:30:00Z</time>
      </trkpt>
      <trkpt lat="43.68547" lon="3.86393">
        <ele>60.22</ele>
        <time>2012-06-24T09:30:07Z</time>
      </trkpt>
      <trkpt lat="43.68441" lon="3.86364">
        <ele>59.26</ele>
        <time>2012-06-24T09:30:16Z</time>
      </trkpt>
      <trkpt lat="43.68424" lon="3.86357">
        <ele>58.78</ele>
        <time>2012-06-24T09:30:18Z</time>
      </trkpt>
      <trkpt lat="43.68416" lon="3.86352">
        <ele>59.26</ele>
        <time>2012-06-24T09:30:19Z</time>
      </trkpt>
      <trkpt lat="43.68408" lon="3.86346">
        <ele>59.26</ele>
        <time>2012-06-24T09:30:20Z</time>
      </trkpt>
      <trkpt lat="43.68401" lon="3.86337">
        <ele>59.26</ele>
        <time>2012-06-24T09:30:21Z</time>
      </trkpt>
      <trkpt lat="43.68395" lon="3.86328">
        <ele>58.78</ele>
        <time>2012-06-24T09:30:22Z</time>
      </trkpt>
      <trkpt lat="43.6839" lon="3.86319">
        <ele>58.78</ele>
        <time>2012-06-24T09:30:23Z</time>
      </trkpt>
      <trkpt lat="43.68383" lon="3.86313">
        <ele>58.3</ele>
        <time>2012-06-24T09:30:24Z</time>
      </trkpt>
      <trkpt lat="43.68375" lon="3.8631">
        <ele>58.3</ele>
        <time>2012-06-24T09:30:25Z</time>
      </trkpt>
      <trkpt lat="43.68367" lon="3.86312">
        <ele>58.3</ele>
        <time>2012-06-24T09:30:26Z</time>
      </trkpt>
      <trkpt lat="43.68357" lon="3.86319">
        <ele>57.82</ele>
        <time>2012-06-24T09:30:27Z</time>
      </trkpt>
      <trkpt lat="43.68347" lon="3.86328">
        <ele>58.3</ele>
        <time>2012-06-24T09:30:28Z</time>
      </trkpt>
      <trkpt lat="43.68336" lon="3.86337">
        <ele>58.3</ele>
        <time>2012-06-24T09:30:29Z</time>
      </trkpt>
      <trkpt lat="43.68326" lon="3.86349">
        <ele>58.3</ele>
        <time>2012-06-24T09:30:30Z</time>
      </trkpt>
      <trkpt lat="43.68318" lon="3.86362">
        <ele>58.3</ele>
        <time>2012-06-24T09:30:31Z</time>
      </trkpt>
      <trkpt lat="43.68312" lon="3.86377">
        <ele>58.3</ele>
        <time>2012-06-24T09:30:32Z</time>
      </trkpt>
      <trkpt lat="43.68306" lon="3.86393">
        <ele>58.3</ele>
        <time>2012-06-24T09:30:33Z</time>
      </trkpt>
      <trkpt lat="43.68271" lon="3.86453">
        <ele>57.82</ele>
        <time>2012-06-24T09:30:37Z</time>
      </trkpt>
      <trkpt lat="43.68256" lon="3.86466">
        <ele>57.82</ele>
        <time>2012-06-24T09:30:38Z</time>
      </trkpt>
      <trkpt lat="43.68194" lon="3.86513">
        <ele>56.86</ele>
        <time>2012-06-24T09:30:42Z</time>
      </trkpt>
      <trkpt lat="43.68176" lon="3.86521">
        <ele>57.34</ele>
        <time>2012-06-24T09:30:43Z</time>
      </trkpt>
      <trkpt lat="43.68158" lon="3.86526">
        <ele>57.34</ele>
        <time>2012-06-24T09:30:44Z</time>
      </trkpt>
      <trkpt lat="43.68024" lon="3.86582">
        <ele>58.3</ele>
        <time>2012-06-24T09:30:52Z</time>
      </trkpt>
      <trkpt lat="43.67843" lon="3.86681">
        <ele>60.22</ele>
        <time>2012-06-24T09:31:05Z</time>
      </trkpt>
      <trkpt lat="43.67768" lon="3.86714">
        <ele>60.22</ele>
        <time>2012-06-24T09:31:12Z</time>
      </trkpt>
      <trkpt lat="43.67757" lon="3.86715">
        <ele>60.22</ele>
        <time>2012-06-24T09:31:13Z</time>
      </trkpt>
      <trkpt lat="43.67747" lon="3.86715">
        <ele>60.22</ele>
        <time>2012-06-24T09:31:14Z</time>
      </trkpt>
      <trkpt lat="43.67738" lon="3.86713">
        <ele>60.22</ele>
        <time>2012-06-24T09:31:15Z</time>
      </trkpt>
      <trkpt lat="43.67728" lon="3.86711">
        <ele>60.22</ele>
        <time>2012-06-24T09:31:16Z</time>
      </trkpt>
      <trkpt lat="43.67719" lon="3.86707">
        <ele>60.22</ele>
        <time>2012-06-24T09:31:17Z</time>
      </trkpt>
      <trkpt lat="43.67711" lon="3.86701">
        <ele>60.22</ele>
        <time>2012-06-24T09:31:18Z</time>
      </trkpt>
      <trkpt lat="43.67703" lon="3.86692">
        <ele>60.22</ele>
        <time>2012-06-24T09:31:19Z</time>
      </trkpt>
      <trkpt lat="43.67696" lon="3.86683">
        <ele>60.22</ele>
        <time>2012-06-24T09:31:20Z</time>
      </trkpt>
      <trkpt lat="43.67689" lon="3.86674">
        <ele>59.74</ele>
        <time>2012-06-24T09:31:21Z</time>
      </trkpt>
      <trkpt lat="43.6768" lon="3.86667">
        <ele>59.74</ele>
        <time>2012-06-24T09:31:22Z</time>
      </trkpt>
      <trkpt lat="43.67671" lon="3.86663">
        <ele>59.74</ele>
        <time>2012-06-24T09:31:23Z</time>
      </trkpt>
      <trkpt lat="43.67661" lon="3.86662">
        <ele>59.74</ele>
        <time>2012-06-24T09:31:24Z</time>
      </trkpt>
      <trkpt lat="43.67651" lon="3.86666">
        <ele>59.26</ele>
        <time>2012-06-24T09:31:25Z</time>
      </trkpt>
      <trkpt lat="43.67643" lon="3.86675">
        <ele>59.26</ele>
        <time>2012-06-24T09:31:26Z</time>
      </trkpt>
      <trkpt lat="43.67636" lon="3.86685">
        <ele>59.74</ele>
        <time>2012-06-24T09:31:27Z</time>
      </trkpt>
      <trkpt lat="43.67628" lon="3.86696">
        <ele>59.74</ele>
        <time>2012-06-24T09:31:28Z</time>
      </trkpt>
      <trkpt lat="43.6762" lon="3.86705">
        <ele>59.74</ele>
        <time>2012-06-24T09:31:29Z</time>
      </trkpt>
      <trkpt lat="43.6761" lon="3.86709">
        <ele>59.74</ele>
        <time>2012-06-24T09:31:30Z</time>
      </trkpt>
      <trkpt lat="43.67599" lon="3.8671">
        <ele>59.74</ele>
        <time>2012-06-24T09:31:31Z</time>
      </trkpt>
      <trkpt lat="43.67586" lon="3.86711">
        <ele>59.26</ele>
        <time>2012-06-24T09:31:32Z</time>
      </trkpt>
      <trkpt lat="43.67481" lon="3.86746">
        <ele>60.7</ele>
        <time>2012-06-24T09:31:40Z</time>
      </trkpt>
      <trkpt lat="43.6743" lon="3.86766">
        <ele>61.66</ele>
        <time>2012-06-24T09:31:44Z</time>
      </trkpt>
      <trkpt lat="43.67416" lon="3.86768">
        <ele>61.66</ele>
        <time>2012-06-24T09:31:45Z</time>
      </trkpt>
      <trkpt lat="43.67401" lon="3.86768">
        <ele>61.66</ele>
        <time>2012-06-24T09:31:46Z</time>
      </trkpt>
      <trkpt lat="43.67251" lon="3.8677">
        <ele>59.74</ele>
        <time>2012-06-24T09:31:56Z</time>
      </trkpt>
      <trkpt lat="43.67044" lon="3.86821">
        <ele>55.89</ele>
        <time>2012-06-24T09:32:08Z</time>
      </trkpt>
      <trkpt lat="43.66888" lon="3.86843">
        <ele>56.37</ele>
        <time>2012-06-24T09:32:18Z</time>
      </trkpt>
      <trkpt lat="43.66789" lon="3.8679">
        <ele>56.37</ele>
        <time>2012-06-24T09:32:24Z</time>
      </trkpt>
      <trkpt lat="43.66774" lon="3.86775">
        <ele>56.37</ele>
        <time>2012-06-24T09:32:25Z</time>
      </trkpt>
      <trkpt lat="43.66666" lon="3.86647">
        <ele>55.41</ele>
        <time>2012-06-24T09:32:33Z</time>
      </trkpt>
      <trkpt lat="43.6665" lon="3.86636">
        <ele>55.41</ele>
        <time>2012-06-24T09:32:34Z</time>
      </trkpt>
      <trkpt lat="43.66634" lon="3.86628">
        <ele>55.41</ele>
        <time>2012-06-24T09:32:35Z</time>
      </trkpt>
      <trkpt lat="43.66618" lon="3.86621">
        <ele>55.41</ele>
        <time>2012-06-24T09:32:36Z</time>
      </trkpt>
      <trkpt lat="43.666" lon="3.86618">
        <ele>55.41</ele>
        <time>2012-06-24T09:32:37Z</time>
      </trkpt>
      <trkpt lat="43.66582" lon="3.86616">
        <ele>54.93</ele>
        <time>2012-06-24T09:32:38Z</time>
      </trkpt>
      <trkpt lat="43.66563" lon="3.86616">
        <ele>54.93</ele>
        <time>2012-06-24T09:32:39Z</time>
      </trkpt>
      <trkpt lat="43.66545" lon="3.86619">
        <ele>54.93</ele>
        <time>2012-06-24T09:32:40Z</time>
      </trkpt>
      <trkpt lat="43.66527" lon="3.86622">
        <ele>54.93</ele>
        <time>2012-06-24T09:32:41Z</time>
      </trkpt>
      <trkpt lat="43.66357" lon="3.86638">
        <ele>61.18</ele>
        <time>2012-06-24T09:32:51Z</time>
      </trkpt>
      <trkpt lat="43.66103" lon="3.86631">
        <ele>57.34</ele>
        <time>2012-06-24T09:33:06Z</time>
      </trkpt>
      <trkpt lat="43.66032" lon="3.8665">
        <ele>53.49</ele>
        <time>2012-06-24T09:33:10Z</time>
      </trkpt>
      <trkpt lat="43.66015" lon="3.8666">
        <ele>52.05</ele>
        <time>2012-06-24T09:33:11Z</time>
      </trkpt>
      <trkpt lat="43.65997" lon="3.86673">
        <ele>51.09</ele>
        <time>2012-06-24T09:33:12Z</time>
      </trkpt>
      <trkpt lat="43.65983" lon="3.86694">
        <ele>50.13</ele>
        <time>2012-06-24T09:33:13Z</time>
      </trkpt>
      <trkpt lat="43.65965" lon="3.86716">
        <ele>49.16</ele>
        <time>2012-06-24T09:33:14Z</time>
      </trkpt>
      <trkpt lat="43.65947" lon="3.86738">
        <ele>48.68</ele>
        <time>2012-06-24T09:33:15Z</time>
      </trkpt>
      <trkpt lat="43.65812" lon="3.86895">
        <ele>47.24</ele>
        <time>2012-06-24T09:33:23Z</time>
      </trkpt>
      <trkpt lat="43.65694" lon="3.87004">
        <ele>46.28</ele>
        <time>2012-06-24T09:33:29Z</time>
      </trkpt>
      <trkpt lat="43.65571" lon="3.87127">
        <ele>47.24</ele>
        <time>2012-06-24T09:33:35Z</time>
      </trkpt>
      <trkpt lat="43.65528" lon="3.872">
        <ele>50.13</ele>
        <time>2012-06-24T09:33:39Z</time>
      </trkpt>
      <trkpt lat="43.6552" lon="3.87211">
        <ele>50.61</ele>
        <time>2012-06-24T09:33:40Z</time>
      </trkpt>
      <trkpt lat="43.65511" lon="3.87219">
        <ele>51.09</ele>
        <time>2012-06-24T09:33:41Z</time>
      </trkpt>
      <trkpt lat="43.65503" lon="3.87224">
        <ele>51.57</ele>
        <time>2012-06-24T09:33:42Z</time>
      </trkpt>
      <trkpt lat="43.65494" lon="3.87227">
        <ele>51.57</ele>
        <time>2012-06-24T09:33:43Z</time>
      </trkpt>
      <trkpt lat="43.65485" lon="3.87221">
        <ele>51.57</ele>
        <time>2012-06-24T09:33:44Z</time>
      </trkpt>
      <trkpt lat="43.65474" lon="3.87213">
        <ele>52.05</ele>
        <time>2012-06-24T09:33:45Z</time>
      </trkpt>
      <trkpt lat="43.65462" lon="3.87206">
        <ele>51.57</ele>
        <time>2012-06-24T09:33:46Z</time>
      </trkpt>
      <trkpt lat="43.65445" lon="3.872">
        <ele>51.09</ele>
        <time>2012-06-24T09:33:47Z</time>
      </trkpt>
      <trkpt lat="43.65427" lon="3.87198">
        <ele>50.61</ele>
        <time>2012-06-24T09:33:48Z</time>
      </trkpt>
      <trkpt lat="43.6541" lon="3.87199">
        <ele>50.61</ele>
        <time>2012-06-24T09:33:49Z</time>
      </trkpt>
      <trkpt lat="43.65394" lon="3.87202">
        <ele>50.13</ele>
        <time>2012-06-24T09:33:50Z</time>
      </trkpt>
      <trkpt lat="43.65379" lon="3.87209">
        <ele>50.13</ele>
        <time>2012-06-24T09:33:51Z</time>
      </trkpt>
      <trkpt lat="43.65366" lon="3.87216">
        <ele>50.13</ele>
        <time>2012-06-24T09:33:52Z</time>
      </trkpt>
      <trkpt lat="43.65355" lon="3.87224">
        <ele>50.13</ele>
        <time>2012-06-24T09:33:53Z</time>
      </trkpt>
      <trkpt lat="43.65347" lon="3.87231">
        <ele>50.61</ele>
        <time>2012-06-24T09:33:54Z</time>
      </trkpt>
      <trkpt lat="43.6534" lon="3.87236">
        <ele>50.13</ele>
        <time>2012-06-24T09:33:55Z</time>
      </trkpt>
      <trkpt lat="43.65331" lon="3.87237">
        <ele>50.13</ele>
        <time>2012-06-24T09:33:56Z</time>
      </trkpt>
      <trkpt lat="43.6532" lon="3.87232">
        <ele>50.13</ele>
        <time>2012-06-24T09:33:57Z</time>
      </trkpt>
      <trkpt lat="43.65306" lon="3.87223">
        <ele>49.65</ele>
        <time>2012-06-24T09:33:58Z</time>
      </trkpt>
      <trkpt lat="43.65289" lon="3.8721">
        <ele>49.16</ele>
        <time>2012-06-24T09:33:59Z</time>
      </trkpt>
      <trkpt lat="43.65271" lon="3.87192">
        <ele>48.68</ele>
        <time>2012-06-24T09:34:00Z</time>
      </trkpt>
      <trkpt lat="43.65252" lon="3.8717">
        <ele>48.2</ele>
        <time>2012-06-24T09:34:01Z</time>
      </trkpt>
      <trkpt lat="43.65234" lon="3.87145">
        <ele>47.72</ele>
        <time>2012-06-24T09:34:02Z</time>
      </trkpt>
      <trkpt lat="43.65217" lon="3.87116">
        <ele>47.24</ele>
        <time>2012-06-24T09:34:03Z</time>
      </trkpt>
      <trkpt lat="43.65202" lon="3.87082">
        <ele>46.76</ele>
        <time>2012-06-24T09:34:04Z</time>
      </trkpt>
      <trkpt lat="43.65187" lon="3.87047">
        <ele>47.24</ele>
        <time>2012-06-24T09:34:05Z</time>
      </trkpt>
      <trkpt lat="43.65174" lon="3.87013">
        <ele>47.24</ele>
        <time>2012-06-24T09:34:06Z</time>
      </trkpt>
      <trkpt lat="43.65116" lon="3.86848">
        <ele>48.68</ele>
        <time>2012-06-24T09:34:12Z</time>
      </trkpt>
      <trkpt lat="43.65097" lon="3.86701">
        <ele>48.68</ele>
        <time>2012-06-24T09:34:18Z</time>
      </trkpt>
      <trkpt lat="43.65098" lon="3.8667">
        <ele>47.72</ele>
        <time>2012-06-24T09:34:20Z</time>
      </trkpt>
      <trkpt lat="43.65101" lon="3.86666">
        <ele>47.24</ele>
        <time>2012-06-24T09:34:21Z</time>
      </trkpt>
      <trkpt lat="43.65103" lon="3.86664">
        <ele>47.24</ele>
        <time>2012-06-24T09:34:22Z</time>
      </trkpt>
      <trkpt lat="43.65107" lon="3.86657">
        <ele>47.24</ele>
        <time>2012-06-24T09:34:26Z</time>
      </trkpt>
      <trkpt lat="43.65113" lon="3.8665">
        <ele>46.76</ele>
        <time>2012-06-24T09:34:27Z</time>
      </trkpt>
      <trkpt lat="43.65129" lon="3.86629">
        <ele>46.76</ele>
        <time>2012-06-24T09:34:29Z</time>
      </trkpt>
      <trkpt lat="43.65135" lon="3.86615">
        <ele>46.76</ele>
        <time>2012-06-24T09:34:30Z</time>
      </trkpt>
      <trkpt lat="43.65138" lon="3.86599">
        <ele>46.76</ele>
        <time>2012-06-24T09:34:31Z</time>
      </trkpt>
      <trkpt lat="43.65137" lon="3.86582">
        <ele>47.24</ele>
        <time>2012-06-24T09:34:32Z</time>
      </trkpt>
      <trkpt lat="43.65131" lon="3.86565">
        <ele>46.76</ele>
        <time>2012-06-24T09:34:33Z</time>
      </trkpt>
      <trkpt lat="43.65122" lon="3.86551">
        <ele>46.76</ele>
        <time>2012-06-24T09:34:34Z</time>
      </trkpt>
      <trkpt lat="43.6511" lon="3.86541">
        <ele>46.76</ele>
        <time>2012-06-24T09:34:35Z</time>
      </trkpt>
      <trkpt lat="43.65098" lon="3.86531">
        <ele>46.28</ele>
        <time>2012-06-24T09:34:36Z</time>
      </trkpt>
      <trkpt lat="43.65087" lon="3.86519">
        <ele>45.8</ele>
        <time>2012-06-24T09:34:37Z</time>
      </trkpt>
      <trkpt lat="43.6508" lon="3.86503">
        <ele>45.32</ele>
        <time>2012-06-24T09:34:38Z</time>
      </trkpt>
      <trkpt lat="43.65076" lon="3.86483">
        <ele>45.32</ele>
        <time>2012-06-24T09:34:39Z</time>
      </trkpt>
      <trkpt lat="43.65074" lon="3.86457">
        <ele>44.84</ele>
        <time>2012-06-24T09:34:40Z</time>
      </trkpt>
      <trkpt lat="43.65072" lon="3.86427">
        <ele>44.36</ele>
        <time>2012-06-24T09:34:41Z</time>
      </trkpt>
      <trkpt lat="43.65055" lon="3.86219">
        <ele>47.72</ele>
        <time>2012-06-24T09:34:49Z</time>
      </trkpt>
      <trkpt lat="43.65038" lon="3.86054">
        <ele>54.93</ele>
        <time>2012-06-24T09:34:58Z</time>
      </trkpt>
      <trkpt lat="43.65011" lon="3.85875">
        <ele>60.22</ele>
        <time>2012-06-24T09:35:09Z</time>
      </trkpt>
      <trkpt lat="43.65" lon="3.85833">
        <ele>60.7</ele>
        <time>2012-06-24T09:35:12Z</time>
      </trkpt>
      <trkpt lat="43.64995" lon="3.85821">
        <ele>61.18</ele>
        <time>2012-06-24T09:35:13Z</time>
      </trkpt>
      <trkpt lat="43.64979" lon="3.85786">
        <ele>61.18</ele>
        <time>2012-06-24T09:35:16Z</time>
      </trkpt>
      <trkpt lat="43.64924" lon="3.85656">
        <ele>61.66</ele>
        <time>2012-06-24T09:35:25Z</time>
      </trkpt>
      <trkpt lat="43.64836" lon="3.85521">
        <ele>61.66</ele>
        <time>2012-06-24T09:35:35Z</time>
      </trkpt>
      <trkpt lat="43.64732" lon="3.85449">
        <ele>67.43</ele>
        <time>2012-06-24T09:35:44Z</time>
      </trkpt>
      <trkpt lat="43.64619" lon="3.85394">
        <ele>70.31</ele>
        <time>2012-06-24T09:35:55Z</time>
      </trkpt>
      <trkpt lat="43.64609" lon="3.85388">
        <ele>70.31</ele>
        <time>2012-06-24T09:35:56Z</time>
      </trkpt>
      <trkpt lat="43.64533" lon="3.85301">
        <ele>74.64</ele>
        <time>2012-06-24T09:36:05Z</time>
      </trkpt>
      <trkpt lat="43.64442" lon="3.85151">
        <ele>74.64</ele>
        <time>2012-06-24T09:36:17Z</time>
      </trkpt>
      <trkpt lat="43.64349" lon="3.84984">
        <ele>79.93</ele>
        <time>2012-06-24T09:36:28Z</time>
      </trkpt>
      <trkpt lat="43.6432" lon="3.84887">
        <ele>79.93</ele>
        <time>2012-06-24T09:36:34Z</time>
      </trkpt>
      <trkpt lat="43.64312" lon="3.84873">
        <ele>78.97</ele>
        <time>2012-06-24T09:36:35Z</time>
      </trkpt>
      <trkpt lat="43.64304" lon="3.84859">
        <ele>78.48</ele>
        <time>2012-06-24T09:36:36Z</time>
      </trkpt>
      <trkpt lat="43.64226" lon="3.84763">
        <ele>71.27</ele>
        <time>2012-06-24T09:36:44Z</time>
      </trkpt>
      <trkpt lat="43.64211" lon="3.84753">
        <ele>69.83</ele>
        <time>2012-06-24T09:36:45Z</time>
      </trkpt>
      <trkpt lat="43.64195" lon="3.84744">
        <ele>68.39</ele>
        <time>2012-06-24T09:36:46Z</time>
      </trkpt>
      <trkpt lat="43.63903" lon="3.84656">
        <ele>55.89</ele>
        <time>2012-06-24T09:37:06Z</time>
      </trkpt>
      <trkpt lat="43.63782" lon="3.84589">
        <ele>55.89</ele>
        <time>2012-06-24T09:37:15Z</time>
      </trkpt>
      <trkpt lat="43.637" lon="3.84512">
        <ele>56.86</ele>
        <time>2012-06-24T09:37:23Z</time>
      </trkpt>
      <trkpt lat="43.63694" lon="3.84506">
        <ele>56.86</ele>
        <time>2012-06-24T09:37:28Z</time>
      </trkpt>
      <trkpt lat="43.63677" lon="3.84488">
        <ele>56.86</ele>
        <time>2012-06-24T09:37:57Z</time>
      </trkpt>
      <trkpt lat="43.63612" lon="3.8444">
        <ele>54.93</ele>
        <time>2012-06-24T09:38:02Z</time>
      </trkpt>
      <trkpt lat="43.63471" lon="3.84361">
        <ele>57.82</ele>
        <time>2012-06-24T09:38:09Z</time>
      </trkpt>
      <trkpt lat="43.63304" lon="3.84301">
        <ele>58.3</ele>
        <time>2012-06-24T09:38:17Z</time>
      </trkpt>
      <trkpt lat="43.63197" lon="3.84251">
        <ele>57.34</ele>
        <time>2012-06-24T09:38:23Z</time>
      </trkpt>
      <trkpt lat="43.6317" lon="3.84231">
        <ele>57.82</ele>
        <time>2012-06-24T09:38:26Z</time>
      </trkpt>
      <trkpt lat="43.63165" lon="3.84224">
        <ele>57.82</ele>
        <time>2012-06-24T09:38:27Z</time>
      </trkpt>
      <trkpt lat="43.63162" lon="3.84212">
        <ele>57.82</ele>
        <time>2012-06-24T09:38:28Z</time>
      </trkpt>
      <trkpt lat="43.6316" lon="3.84198">
        <ele>58.3</ele>
        <time>2012-06-24T09:38:29Z</time>
      </trkpt>
      <trkpt lat="43.63156" lon="3.84184">
        <ele>58.3</ele>
        <time>2012-06-24T09:38:30Z</time>
      </trkpt>
      <trkpt lat="43.63151" lon="3.84172">
        <ele>58.78</ele>
        <time>2012-06-24T09:38:31Z</time>
      </trkpt>
      <trkpt lat="43.63144" lon="3.84163">
        <ele>58.78</ele>
        <time>2012-06-24T09:38:32Z</time>
      </trkpt>
      <trkpt lat="43.63135" lon="3.84156">
        <ele>58.78</ele>
        <time>2012-06-24T09:38:33Z</time>
      </trkpt>
      <trkpt lat="43.63124" lon="3.84154">
        <ele>58.78</ele>
        <time>2012-06-24T09:38:34Z</time>
      </trkpt>
      <trkpt lat="43.63112" lon="3.84155">
        <ele>58.78</ele>
        <time>2012-06-24T09:38:35Z</time>
      </trkpt>
      <trkpt lat="43.63102" lon="3.84159">
        <ele>58.78</ele>
        <time>2012-06-24T09:38:36Z</time>
      </trkpt>
      <trkpt lat="43.63091" lon="3.84166">
        <ele>58.78</ele>
        <time>2012-06-24T09:38:37Z</time>
      </trkpt>
      <trkpt lat="43.6308" lon="3.84174">
        <ele>58.3</ele>
        <time>2012-06-24T09:38:38Z</time>
      </trkpt>
      <trkpt lat="43.63068" lon="3.84181">
        <ele>58.3</ele>
        <time>2012-06-24T09:38:39Z</time>
      </trkpt>
      <trkpt lat="43.63053" lon="3.84182">
        <ele>58.3</ele>
        <time>2012-06-24T09:38:40Z</time>
      </trkpt>
      <trkpt lat="43.63037" lon="3.84181">
        <ele>58.3</ele>
        <time>2012-06-24T09:38:41Z</time>
      </trkpt>
      <trkpt lat="43.62916" lon="3.84147">
        <ele>58.3</ele>
        <time>2012-06-24T09:38:47Z</time>
      </trkpt>
      <trkpt lat="43.62798" lon="3.84046">
        <ele>60.7</ele>
        <time>2012-06-24T09:38:53Z</time>
      </trkpt>
      <trkpt lat="43.62666" lon="3.83866">
        <ele>66.95</ele>
        <time>2012-06-24T09:39:01Z</time>
      </trkpt>
      <trkpt lat="43.62589" lon="3.83735">
        <ele>71.76</ele>
        <time>2012-06-24T09:39:08Z</time>
      </trkpt>
      <trkpt lat="43.62551" lon="3.83679">
        <ele>74.16</ele>
        <time>2012-06-24T09:39:13Z</time>
      </trkpt>
      <trkpt lat="43.62548" lon="3.83673">
        <ele>74.64</ele>
        <time>2012-06-24T09:39:14Z</time>
      </trkpt>
      <trkpt lat="43.62547" lon="3.83669">
        <ele>75.12</ele>
        <time>2012-06-24T09:39:15Z</time>
      </trkpt>
      <trkpt lat="43.62547" lon="3.83666">
        <ele>75.12</ele>
        <time>2012-06-24T09:39:16Z</time>
      </trkpt>
      <trkpt lat="43.62547" lon="3.83662">
        <ele>75.6</ele>
        <time>2012-06-24T09:39:17Z</time>
      </trkpt>
      <trkpt lat="43.6255" lon="3.83655">
        <ele>75.6</ele>
        <time>2012-06-24T09:39:18Z</time>
      </trkpt>
      <trkpt lat="43.62554" lon="3.83643">
        <ele>75.6</ele>
        <time>2012-06-24T09:39:19Z</time>
      </trkpt>
      <trkpt lat="43.62555" lon="3.83629">
        <ele>75.6</ele>
        <time>2012-06-24T09:39:20Z</time>
      </trkpt>
      <trkpt lat="43.62555" lon="3.83614">
        <ele>75.12</ele>
        <time>2012-06-24T09:39:21Z</time>
      </trkpt>
      <trkpt lat="43.6255" lon="3.836">
        <ele>75.12</ele>
        <time>2012-06-24T09:39:22Z</time>
      </trkpt>
      <trkpt lat="43.6254" lon="3.8359">
        <ele>74.64</ele>
        <time>2012-06-24T09:39:23Z</time>
      </trkpt>
      <trkpt lat="43.62529" lon="3.83582">
        <ele>74.64</ele>
        <time>2012-06-24T09:39:24Z</time>
      </trkpt>
      <trkpt lat="43.62518" lon="3.83578">
        <ele>74.16</ele>
        <time>2012-06-24T09:39:25Z</time>
      </trkpt>
      <trkpt lat="43.62506" lon="3.8358">
        <ele>74.16</ele>
        <time>2012-06-24T09:39:26Z</time>
      </trkpt>
      <trkpt lat="43.62496" lon="3.83586">
        <ele>73.68</ele>
        <time>2012-06-24T09:39:27Z</time>
      </trkpt>
      <trkpt lat="43.62486" lon="3.83594">
        <ele>73.68</ele>
        <time>2012-06-24T09:39:28Z</time>
      </trkpt>
      <trkpt lat="43.62479" lon="3.83605">
        <ele>73.2</ele>
        <time>2012-06-24T09:39:29Z</time>
      </trkpt>
      <trkpt lat="43.62474" lon="3.83617">
        <ele>73.2</ele>
        <time>2012-06-24T09:39:30Z</time>
      </trkpt>
      <trkpt lat="43.62469" lon="3.83629">
        <ele>73.2</ele>
        <time>2012-06-24T09:39:31Z</time>
      </trkpt>
      <trkpt lat="43.62463" lon="3.83639">
        <ele>72.72</ele>
        <time>2012-06-24T09:39:32Z</time>
      </trkpt>
      <trkpt lat="43.62456" lon="3.83646">
        <ele>72.72</ele>
        <time>2012-06-24T09:39:33Z</time>
      </trkpt>
      <trkpt lat="43.62448" lon="3.83649">
        <ele>72.72</ele>
        <time>2012-06-24T09:39:34Z</time>
      </trkpt>
      <trkpt lat="43.62441" lon="3.83651">
        <ele>73.2</ele>
        <time>2012-06-24T09:39:35Z</time>
      </trkpt>
      <trkpt lat="43.62435" lon="3.83651">
        <ele>73.68</ele>
        <time>2012-06-24T09:39:36Z</time>
      </trkpt>
      <trkpt lat="43.62429" lon="3.83651">
        <ele>74.16</ele>
        <time>2012-06-24T09:39:37Z</time>
      </trkpt>
      <trkpt lat="43.62422" lon="3.83651">
        <ele>74.16</ele>
        <time>2012-06-24T09:39:38Z</time>
      </trkpt>
      <trkpt lat="43.62417" lon="3.83654">
        <ele>74.64</ele>
        <time>2012-06-24T09:39:39Z</time>
      </trkpt>
      <trkpt lat="43.62412" lon="3.83659">
        <ele>74.64</ele>
        <time>2012-06-24T09:39:40Z</time>
      </trkpt>
      <trkpt lat="43.6241" lon="3.83664">
        <ele>75.12</ele>
        <time>2012-06-24T09:39:41Z</time>
      </trkpt>
      <trkpt lat="43.62408" lon="3.8367">
        <ele>75.12</ele>
        <time>2012-06-24T09:39:42Z</time>
      </trkpt>
      <trkpt lat="43.62407" lon="3.83675">
        <ele>75.12</ele>
        <time>2012-06-24T09:39:43Z</time>
      </trkpt>
      <trkpt lat="43.62407" lon="3.8368">
        <ele>75.12</ele>
        <time>2012-06-24T09:39:44Z</time>
      </trkpt>
      <trkpt lat="43.62408" lon="3.83684">
        <ele>75.12</ele>
        <time>2012-06-24T09:39:45Z</time>
      </trkpt>
      <trkpt lat="43.62411" lon="3.83688">
        <ele>75.12</ele>
        <time>2012-06-24T09:39:46Z</time>
      </trkpt>
      <trkpt lat="43.62414" lon="3.83692">
        <ele>75.12</ele>
        <time>2012-06-24T09:39:47Z</time>
      </trkpt>
      <trkpt lat="43.62417" lon="3.83695">
        <ele>75.12</ele>
        <time>2012-06-24T09:39:48Z</time>
      </trkpt>
      <trkpt lat="43.62419" lon="3.83698">
        <ele>75.12</ele>
        <time>2012-06-24T09:39:49Z</time>
      </trkpt>
      <trkpt lat="43.62422" lon="3.83701">
        <ele>75.12</ele>
        <time>2012-06-24T09:39:50Z</time>
      </trkpt>
      <trkpt lat="43.62425" lon="3.83707">
        <ele>74.64</ele>
        <time>2012-06-24T09:39:51Z</time>
      </trkpt>
      <trkpt lat="43.62427" lon="3.83715">
        <ele>74.64</ele>
        <time>2012-06-24T09:39:52Z</time>
      </trkpt>
      <trkpt lat="43.62429" lon="3.83723">
        <ele>74.64</ele>
        <time>2012-06-24T09:39:53Z</time>
      </trkpt>
      <trkpt lat="43.62431" lon="3.83732">
        <ele>74.64</ele>
        <time>2012-06-24T09:39:54Z</time>
      </trkpt>
      <trkpt lat="43.62439" lon="3.83765">
        <ele>75.6</ele>
        <time>2012-06-24T09:39:58Z</time>
      </trkpt>
      <trkpt lat="43.62447" lon="3.83787">
        <ele>76.08</ele>
        <time>2012-06-24T09:40:03Z</time>
      </trkpt>
      <trkpt lat="43.6244" lon="3.83784">
        <ele>76.08</ele>
        <time>2012-06-24T09:40:10Z</time>
      </trkpt>
    </trkseg>
  </trk>
</gpx>